<?xml version="1.0" encoding="UTF-8" standalone="no" ?>
<gpx xmlns="http://www.topografix.com/GPX/1/1" xmlns:xsi="http://www.w3.org/2001/XMLSchema-instance" xsi:schemaLocation="http://www.topografix.com/GPX/1/1 http://www.topografix.com/GPX/1/1/gpx.xsd" version="1.1" creator="VisuGPX - https://www.visugpx.com">
  <metadata>
    <name>2020-08-22 Villeret d'Apchier - Saint Alban sur Limagnole</name>
    <desc><![CDATA[Etape 5 sur le chemin de Saint Jacques de Compostelle au départ du Puy en Velay
Passage de la Haute Loire à la Lozère au col de l'Hospitalet où est édifiée la chapelle Saint Roch.
Une fontaine aux vertus bénéfiques pour les yeux coule au pied d'un oratoire]]></desc>
  </metadata>
  <trk>
    <name><![CDATA[2020-08-22 SANTIAGO E05]]></name>
    <trkseg>
      <trkpt lat="44.88072" lon="3.49931">
        <ele>1132.09</ele>
        <time>2020-08-22T06:52:48Z</time>
      </trkpt>
      <trkpt lat="44.88072" lon="3.49931">
        <ele>1132.09</ele>
        <time>2020-08-22T06:52:51Z</time>
      </trkpt>
      <trkpt lat="44.88072" lon="3.49931">
        <ele>1132.09</ele>
        <time>2020-08-22T06:52:52Z</time>
      </trkpt>
      <trkpt lat="44.88071" lon="3.49931">
        <ele>1132.57</ele>
        <time>2020-08-22T06:53:21Z</time>
      </trkpt>
      <trkpt lat="44.8807" lon="3.49929">
        <ele>1131.61</ele>
        <time>2020-08-22T06:53:38Z</time>
      </trkpt>
      <trkpt lat="44.88068" lon="3.49929">
        <ele>1131.13</ele>
        <time>2020-08-22T06:54:02Z</time>
      </trkpt>
      <trkpt lat="44.88072" lon="3.49932">
        <ele>1131.13</ele>
        <time>2020-08-22T06:54:20Z</time>
      </trkpt>
      <trkpt lat="44.88067" lon="3.49934">
        <ele>1130.65</ele>
        <time>2020-08-22T06:54:41Z</time>
      </trkpt>
      <trkpt lat="44.88066" lon="3.49931">
        <ele>1130.17</ele>
        <time>2020-08-22T06:54:58Z</time>
      </trkpt>
      <trkpt lat="44.88057" lon="3.49934">
        <ele>1127.28</ele>
        <time>2020-08-22T06:55:14Z</time>
      </trkpt>
      <trkpt lat="44.88043" lon="3.49937">
        <ele>1123.92</ele>
        <time>2020-08-22T06:55:32Z</time>
      </trkpt>
      <trkpt lat="44.88041" lon="3.49937">
        <ele>1123.92</ele>
        <time>2020-08-22T06:55:33Z</time>
      </trkpt>
      <trkpt lat="44.88029" lon="3.49949">
        <ele>1122</ele>
        <time>2020-08-22T06:55:50Z</time>
      </trkpt>
      <trkpt lat="44.88026" lon="3.49961">
        <ele>1121.52</ele>
        <time>2020-08-22T06:56:05Z</time>
      </trkpt>
      <trkpt lat="44.88026" lon="3.49983">
        <ele>1121.03</ele>
        <time>2020-08-22T06:56:22Z</time>
      </trkpt>
      <trkpt lat="44.88022" lon="3.50001">
        <ele>1117.67</ele>
        <time>2020-08-22T06:56:37Z</time>
      </trkpt>
      <trkpt lat="44.88009" lon="3.50009">
        <ele>1114.31</ele>
        <time>2020-08-22T06:56:55Z</time>
      </trkpt>
      <trkpt lat="44.88002" lon="3.50004">
        <ele>1112.86</ele>
        <time>2020-08-22T06:57:03Z</time>
      </trkpt>
      <trkpt lat="44.87986" lon="3.49998">
        <ele>1109.02</ele>
        <time>2020-08-22T06:57:21Z</time>
      </trkpt>
      <trkpt lat="44.87975" lon="3.50007">
        <ele>1106.61</ele>
        <time>2020-08-22T06:57:36Z</time>
      </trkpt>
      <trkpt lat="44.87966" lon="3.50015">
        <ele>1105.17</ele>
        <time>2020-08-22T06:57:50Z</time>
      </trkpt>
      <trkpt lat="44.8796" lon="3.50019">
        <ele>1104.21</ele>
        <time>2020-08-22T06:58:05Z</time>
      </trkpt>
      <trkpt lat="44.87958" lon="3.50017">
        <ele>1104.21</ele>
        <time>2020-08-22T06:58:27Z</time>
      </trkpt>
      <trkpt lat="44.87952" lon="3.50015">
        <ele>1102.77</ele>
        <time>2020-08-22T06:58:42Z</time>
      </trkpt>
      <trkpt lat="44.87937" lon="3.50016">
        <ele>1102.29</ele>
        <time>2020-08-22T06:58:58Z</time>
      </trkpt>
      <trkpt lat="44.87931" lon="3.50017">
        <ele>1100.85</ele>
        <time>2020-08-22T06:59:03Z</time>
      </trkpt>
      <trkpt lat="44.87903" lon="3.50023">
        <ele>1099.89</ele>
        <time>2020-08-22T06:59:29Z</time>
      </trkpt>
      <trkpt lat="44.8788" lon="3.50018">
        <ele>1099.4</ele>
        <time>2020-08-22T06:59:51Z</time>
      </trkpt>
      <trkpt lat="44.87857" lon="3.50007">
        <ele>1099.4</ele>
        <time>2020-08-22T07:00:13Z</time>
      </trkpt>
      <trkpt lat="44.87843" lon="3.50005">
        <ele>1099.4</ele>
        <time>2020-08-22T07:00:30Z</time>
      </trkpt>
      <trkpt lat="44.87833" lon="3.50009">
        <ele>1099.4</ele>
        <time>2020-08-22T07:00:45Z</time>
      </trkpt>
      <trkpt lat="44.87826" lon="3.50026">
        <ele>1098.92</ele>
        <time>2020-08-22T07:01:01Z</time>
      </trkpt>
      <trkpt lat="44.87825" lon="3.50028">
        <ele>1100.37</ele>
        <time>2020-08-22T07:01:03Z</time>
      </trkpt>
      <trkpt lat="44.87822" lon="3.50042">
        <ele>1101.33</ele>
        <time>2020-08-22T07:01:15Z</time>
      </trkpt>
      <trkpt lat="44.87816" lon="3.50061">
        <ele>1103.25</ele>
        <time>2020-08-22T07:01:33Z</time>
      </trkpt>
      <trkpt lat="44.8781" lon="3.50084">
        <ele>1103.73</ele>
        <time>2020-08-22T07:01:49Z</time>
      </trkpt>
      <trkpt lat="44.87804" lon="3.50103">
        <ele>1104.69</ele>
        <time>2020-08-22T07:02:05Z</time>
      </trkpt>
      <trkpt lat="44.87796" lon="3.50121">
        <ele>1106.61</ele>
        <time>2020-08-22T07:02:21Z</time>
      </trkpt>
      <trkpt lat="44.87789" lon="3.50131">
        <ele>1108.06</ele>
        <time>2020-08-22T07:02:35Z</time>
      </trkpt>
      <trkpt lat="44.8778" lon="3.50131">
        <ele>1109.98</ele>
        <time>2020-08-22T07:02:48Z</time>
      </trkpt>
      <trkpt lat="44.87772" lon="3.50121">
        <ele>1111.42</ele>
        <time>2020-08-22T07:03:02Z</time>
      </trkpt>
      <trkpt lat="44.87764" lon="3.50112">
        <ele>1113.34</ele>
        <time>2020-08-22T07:03:15Z</time>
      </trkpt>
      <trkpt lat="44.87754" lon="3.50112">
        <ele>1114.79</ele>
        <time>2020-08-22T07:03:27Z</time>
      </trkpt>
      <trkpt lat="44.87741" lon="3.50111">
        <ele>1115.75</ele>
        <time>2020-08-22T07:03:42Z</time>
      </trkpt>
      <trkpt lat="44.8773" lon="3.50117">
        <ele>1117.19</ele>
        <time>2020-08-22T07:03:57Z</time>
      </trkpt>
      <trkpt lat="44.87722" lon="3.50131">
        <ele>1118.15</ele>
        <time>2020-08-22T07:04:12Z</time>
      </trkpt>
      <trkpt lat="44.87711" lon="3.50144">
        <ele>1119.11</ele>
        <time>2020-08-22T07:04:29Z</time>
      </trkpt>
      <trkpt lat="44.87697" lon="3.50153">
        <ele>1119.59</ele>
        <time>2020-08-22T07:04:46Z</time>
      </trkpt>
      <trkpt lat="44.87685" lon="3.50162">
        <ele>1120.55</ele>
        <time>2020-08-22T07:05:01Z</time>
      </trkpt>
      <trkpt lat="44.87673" lon="3.50172">
        <ele>1121.03</ele>
        <time>2020-08-22T07:05:16Z</time>
      </trkpt>
      <trkpt lat="44.87659" lon="3.50181">
        <ele>1122</ele>
        <time>2020-08-22T07:05:32Z</time>
      </trkpt>
      <trkpt lat="44.87644" lon="3.50187">
        <ele>1123.44</ele>
        <time>2020-08-22T07:05:48Z</time>
      </trkpt>
      <trkpt lat="44.87639" lon="3.5019">
        <ele>1123.44</ele>
        <time>2020-08-22T07:05:54Z</time>
      </trkpt>
      <trkpt lat="44.87625" lon="3.50192">
        <ele>1124.88</ele>
        <time>2020-08-22T07:06:10Z</time>
      </trkpt>
      <trkpt lat="44.87612" lon="3.50196">
        <ele>1126.32</ele>
        <time>2020-08-22T07:06:25Z</time>
      </trkpt>
      <trkpt lat="44.87601" lon="3.50203">
        <ele>1127.28</ele>
        <time>2020-08-22T07:06:39Z</time>
      </trkpt>
      <trkpt lat="44.87594" lon="3.50208">
        <ele>1127.76</ele>
        <time>2020-08-22T07:06:51Z</time>
      </trkpt>
      <trkpt lat="44.87581" lon="3.50221">
        <ele>1129.69</ele>
        <time>2020-08-22T07:07:07Z</time>
      </trkpt>
      <trkpt lat="44.87573" lon="3.50228">
        <ele>1131.13</ele>
        <time>2020-08-22T07:07:20Z</time>
      </trkpt>
      <trkpt lat="44.8757" lon="3.50236">
        <ele>1132.57</ele>
        <time>2020-08-22T07:07:32Z</time>
      </trkpt>
      <trkpt lat="44.87561" lon="3.50246">
        <ele>1134.49</ele>
        <time>2020-08-22T07:07:46Z</time>
      </trkpt>
      <trkpt lat="44.87551" lon="3.50253">
        <ele>1135.94</ele>
        <time>2020-08-22T07:08:03Z</time>
      </trkpt>
      <trkpt lat="44.8754" lon="3.50258">
        <ele>1137.38</ele>
        <time>2020-08-22T07:08:18Z</time>
      </trkpt>
      <trkpt lat="44.87531" lon="3.50264">
        <ele>1139.78</ele>
        <time>2020-08-22T07:08:34Z</time>
      </trkpt>
      <trkpt lat="44.87521" lon="3.5027">
        <ele>1141.7</ele>
        <time>2020-08-22T07:08:48Z</time>
      </trkpt>
      <trkpt lat="44.8751" lon="3.50273">
        <ele>1143.14</ele>
        <time>2020-08-22T07:09:03Z</time>
      </trkpt>
      <trkpt lat="44.87498" lon="3.50273">
        <ele>1145.07</ele>
        <time>2020-08-22T07:09:17Z</time>
      </trkpt>
      <trkpt lat="44.87487" lon="3.50272">
        <ele>1146.51</ele>
        <time>2020-08-22T07:09:31Z</time>
      </trkpt>
      <trkpt lat="44.87478" lon="3.50277">
        <ele>1148.43</ele>
        <time>2020-08-22T07:09:45Z</time>
      </trkpt>
      <trkpt lat="44.87471" lon="3.50284">
        <ele>1149.87</ele>
        <time>2020-08-22T07:09:58Z</time>
      </trkpt>
      <trkpt lat="44.87461" lon="3.50291">
        <ele>1151.8</ele>
        <time>2020-08-22T07:10:14Z</time>
      </trkpt>
      <trkpt lat="44.87455" lon="3.50294">
        <ele>1153.24</ele>
        <time>2020-08-22T07:10:29Z</time>
      </trkpt>
      <trkpt lat="44.87456" lon="3.50296">
        <ele>1153.24</ele>
        <time>2020-08-22T07:10:51Z</time>
      </trkpt>
      <trkpt lat="44.87456" lon="3.50293">
        <ele>1153.24</ele>
        <time>2020-08-22T07:11:18Z</time>
      </trkpt>
      <trkpt lat="44.87453" lon="3.50279">
        <ele>1153.72</ele>
        <time>2020-08-22T07:11:35Z</time>
      </trkpt>
      <trkpt lat="44.87456" lon="3.50271">
        <ele>1153.72</ele>
        <time>2020-08-22T07:11:49Z</time>
      </trkpt>
      <trkpt lat="44.87458" lon="3.50273">
        <ele>1153.72</ele>
        <time>2020-08-22T07:12:09Z</time>
      </trkpt>
      <trkpt lat="44.87453" lon="3.50279">
        <ele>1153.72</ele>
        <time>2020-08-22T07:12:23Z</time>
      </trkpt>
      <trkpt lat="44.87449" lon="3.50289">
        <ele>1153.72</ele>
        <time>2020-08-22T07:12:40Z</time>
      </trkpt>
      <trkpt lat="44.8745" lon="3.50285">
        <ele>1153.72</ele>
        <time>2020-08-22T07:12:53Z</time>
      </trkpt>
      <trkpt lat="44.87451" lon="3.50284">
        <ele>1153.72</ele>
        <time>2020-08-22T07:13:08Z</time>
      </trkpt>
      <trkpt lat="44.87451" lon="3.50284">
        <ele>1153.72</ele>
        <time>2020-08-22T07:13:26Z</time>
      </trkpt>
      <trkpt lat="44.87452" lon="3.50288">
        <ele>1153.72</ele>
        <time>2020-08-22T07:13:42Z</time>
      </trkpt>
      <trkpt lat="44.87452" lon="3.50287">
        <ele>1153.72</ele>
        <time>2020-08-22T07:13:57Z</time>
      </trkpt>
      <trkpt lat="44.87451" lon="3.50295">
        <ele>1153.72</ele>
        <time>2020-08-22T07:14:15Z</time>
      </trkpt>
      <trkpt lat="44.87449" lon="3.50299">
        <ele>1153.72</ele>
        <time>2020-08-22T07:14:31Z</time>
      </trkpt>
      <trkpt lat="44.8745" lon="3.50291">
        <ele>1154.2</ele>
        <time>2020-08-22T07:14:45Z</time>
      </trkpt>
      <trkpt lat="44.87447" lon="3.50302">
        <ele>1154.2</ele>
        <time>2020-08-22T07:15:03Z</time>
      </trkpt>
      <trkpt lat="44.87449" lon="3.50291">
        <ele>1154.2</ele>
        <time>2020-08-22T07:15:18Z</time>
      </trkpt>
      <trkpt lat="44.8745" lon="3.50282">
        <ele>1154.2</ele>
        <time>2020-08-22T07:15:34Z</time>
      </trkpt>
      <trkpt lat="44.87454" lon="3.50278">
        <ele>1154.2</ele>
        <time>2020-08-22T07:15:51Z</time>
      </trkpt>
      <trkpt lat="44.87454" lon="3.50274">
        <ele>1152.76</ele>
        <time>2020-08-22T07:16:07Z</time>
      </trkpt>
      <trkpt lat="44.87454" lon="3.50277">
        <ele>1152.76</ele>
        <time>2020-08-22T07:16:26Z</time>
      </trkpt>
      <trkpt lat="44.87455" lon="3.50282">
        <ele>1152.76</ele>
        <time>2020-08-22T07:16:43Z</time>
      </trkpt>
      <trkpt lat="44.8746" lon="3.50278">
        <ele>1152.76</ele>
        <time>2020-08-22T07:17:22Z</time>
      </trkpt>
      <trkpt lat="44.87457" lon="3.50277">
        <ele>1152.76</ele>
        <time>2020-08-22T07:17:36Z</time>
      </trkpt>
      <trkpt lat="44.87456" lon="3.5028">
        <ele>1152.28</ele>
        <time>2020-08-22T07:18:00Z</time>
      </trkpt>
      <trkpt lat="44.87459" lon="3.50266">
        <ele>1151.8</ele>
        <time>2020-08-22T07:18:26Z</time>
      </trkpt>
      <trkpt lat="44.8746" lon="3.50261">
        <ele>1151.8</ele>
        <time>2020-08-22T07:18:30Z</time>
      </trkpt>
      <trkpt lat="44.87467" lon="3.50238">
        <ele>1150.35</ele>
        <time>2020-08-22T07:18:49Z</time>
      </trkpt>
      <trkpt lat="44.87472" lon="3.50217">
        <ele>1148.91</ele>
        <time>2020-08-22T07:19:04Z</time>
      </trkpt>
      <trkpt lat="44.87472" lon="3.50192">
        <ele>1148.43</ele>
        <time>2020-08-22T07:19:22Z</time>
      </trkpt>
      <trkpt lat="44.8747" lon="3.50168">
        <ele>1147.47</ele>
        <time>2020-08-22T07:19:39Z</time>
      </trkpt>
      <trkpt lat="44.87468" lon="3.50144">
        <ele>1146.51</ele>
        <time>2020-08-22T07:19:55Z</time>
      </trkpt>
      <trkpt lat="44.87466" lon="3.50121">
        <ele>1145.55</ele>
        <time>2020-08-22T07:20:10Z</time>
      </trkpt>
      <trkpt lat="44.87463" lon="3.50096">
        <ele>1144.59</ele>
        <time>2020-08-22T07:20:26Z</time>
      </trkpt>
      <trkpt lat="44.87462" lon="3.50071">
        <ele>1143.14</ele>
        <time>2020-08-22T07:20:43Z</time>
      </trkpt>
      <trkpt lat="44.87458" lon="3.50047">
        <ele>1142.18</ele>
        <time>2020-08-22T07:20:59Z</time>
      </trkpt>
      <trkpt lat="44.87452" lon="3.50022">
        <ele>1141.22</ele>
        <time>2020-08-22T07:21:17Z</time>
      </trkpt>
      <trkpt lat="44.87446" lon="3.50002">
        <ele>1140.26</ele>
        <time>2020-08-22T07:21:31Z</time>
      </trkpt>
      <trkpt lat="44.87437" lon="3.49973">
        <ele>1137.86</ele>
        <time>2020-08-22T07:21:51Z</time>
      </trkpt>
      <trkpt lat="44.87428" lon="3.49948">
        <ele>1136.42</ele>
        <time>2020-08-22T07:22:10Z</time>
      </trkpt>
      <trkpt lat="44.87418" lon="3.49921">
        <ele>1134.97</ele>
        <time>2020-08-22T07:22:28Z</time>
      </trkpt>
      <trkpt lat="44.8741" lon="3.49897">
        <ele>1133.53</ele>
        <time>2020-08-22T07:22:45Z</time>
      </trkpt>
      <trkpt lat="44.874" lon="3.49871">
        <ele>1132.57</ele>
        <time>2020-08-22T07:23:04Z</time>
      </trkpt>
      <trkpt lat="44.87391" lon="3.49845">
        <ele>1131.13</ele>
        <time>2020-08-22T07:23:22Z</time>
      </trkpt>
      <trkpt lat="44.87382" lon="3.49818">
        <ele>1129.69</ele>
        <time>2020-08-22T07:23:42Z</time>
      </trkpt>
      <trkpt lat="44.87376" lon="3.49797">
        <ele>1128.73</ele>
        <time>2020-08-22T07:23:58Z</time>
      </trkpt>
      <trkpt lat="44.87365" lon="3.49773">
        <ele>1127.28</ele>
        <time>2020-08-22T07:24:17Z</time>
      </trkpt>
      <trkpt lat="44.87355" lon="3.49749">
        <ele>1125.36</ele>
        <time>2020-08-22T07:24:36Z</time>
      </trkpt>
      <trkpt lat="44.87345" lon="3.49728">
        <ele>1123.44</ele>
        <time>2020-08-22T07:24:54Z</time>
      </trkpt>
      <trkpt lat="44.8733" lon="3.49705">
        <ele>1121.52</ele>
        <time>2020-08-22T07:25:13Z</time>
      </trkpt>
      <trkpt lat="44.87315" lon="3.49683">
        <ele>1119.11</ele>
        <time>2020-08-22T07:25:32Z</time>
      </trkpt>
      <trkpt lat="44.87298" lon="3.49659">
        <ele>1117.19</ele>
        <time>2020-08-22T07:25:54Z</time>
      </trkpt>
      <trkpt lat="44.87276" lon="3.49643">
        <ele>1115.75</ele>
        <time>2020-08-22T07:26:15Z</time>
      </trkpt>
      <trkpt lat="44.87251" lon="3.49631">
        <ele>1113.82</ele>
        <time>2020-08-22T07:26:39Z</time>
      </trkpt>
      <trkpt lat="44.87234" lon="3.49621">
        <ele>1111.9</ele>
        <time>2020-08-22T07:26:57Z</time>
      </trkpt>
      <trkpt lat="44.87233" lon="3.4962">
        <ele>1111.9</ele>
        <time>2020-08-22T07:26:58Z</time>
      </trkpt>
      <trkpt lat="44.87218" lon="3.49604">
        <ele>1109.98</ele>
        <time>2020-08-22T07:27:16Z</time>
      </trkpt>
      <trkpt lat="44.87206" lon="3.49575">
        <ele>1108.06</ele>
        <time>2020-08-22T07:27:38Z</time>
      </trkpt>
      <trkpt lat="44.87198" lon="3.4955">
        <ele>1106.61</ele>
        <time>2020-08-22T07:27:56Z</time>
      </trkpt>
      <trkpt lat="44.87185" lon="3.49527">
        <ele>1105.17</ele>
        <time>2020-08-22T07:28:16Z</time>
      </trkpt>
      <trkpt lat="44.87179" lon="3.49524">
        <ele>1104.69</ele>
        <time>2020-08-22T07:28:23Z</time>
      </trkpt>
      <trkpt lat="44.8716" lon="3.49528">
        <ele>1104.69</ele>
        <time>2020-08-22T07:28:42Z</time>
      </trkpt>
      <trkpt lat="44.87146" lon="3.49535">
        <ele>1104.69</ele>
        <time>2020-08-22T07:28:58Z</time>
      </trkpt>
      <trkpt lat="44.87131" lon="3.49544">
        <ele>1104.69</ele>
        <time>2020-08-22T07:29:14Z</time>
      </trkpt>
      <trkpt lat="44.87128" lon="3.49545">
        <ele>1104.69</ele>
        <time>2020-08-22T07:29:32Z</time>
      </trkpt>
      <trkpt lat="44.87128" lon="3.49543">
        <ele>1104.21</ele>
        <time>2020-08-22T07:30:06Z</time>
      </trkpt>
      <trkpt lat="44.87127" lon="3.49544">
        <ele>1104.21</ele>
        <time>2020-08-22T07:30:34Z</time>
      </trkpt>
      <trkpt lat="44.87127" lon="3.49547">
        <ele>1104.21</ele>
        <time>2020-08-22T07:31:04Z</time>
      </trkpt>
      <trkpt lat="44.87123" lon="3.49543">
        <ele>1104.21</ele>
        <time>2020-08-22T07:31:38Z</time>
      </trkpt>
      <trkpt lat="44.87106" lon="3.49552">
        <ele>1105.17</ele>
        <time>2020-08-22T07:31:56Z</time>
      </trkpt>
      <trkpt lat="44.87087" lon="3.49558">
        <ele>1105.65</ele>
        <time>2020-08-22T07:32:13Z</time>
      </trkpt>
      <trkpt lat="44.87069" lon="3.49566">
        <ele>1106.61</ele>
        <time>2020-08-22T07:32:30Z</time>
      </trkpt>
      <trkpt lat="44.87064" lon="3.4957">
        <ele>1107.1</ele>
        <time>2020-08-22T07:32:36Z</time>
      </trkpt>
      <trkpt lat="44.87062" lon="3.49576">
        <ele>1107.58</ele>
        <time>2020-08-22T07:32:42Z</time>
      </trkpt>
      <trkpt lat="44.87047" lon="3.49579">
        <ele>1109.02</ele>
        <time>2020-08-22T07:32:57Z</time>
      </trkpt>
      <trkpt lat="44.87031" lon="3.4958">
        <ele>1109.98</ele>
        <time>2020-08-22T07:33:13Z</time>
      </trkpt>
      <trkpt lat="44.87017" lon="3.49578">
        <ele>1110.94</ele>
        <time>2020-08-22T07:33:27Z</time>
      </trkpt>
      <trkpt lat="44.87" lon="3.49575">
        <ele>1111.42</ele>
        <time>2020-08-22T07:33:43Z</time>
      </trkpt>
      <trkpt lat="44.86984" lon="3.49574">
        <ele>1112.38</ele>
        <time>2020-08-22T07:33:59Z</time>
      </trkpt>
      <trkpt lat="44.86968" lon="3.49574">
        <ele>1112.86</ele>
        <time>2020-08-22T07:34:14Z</time>
      </trkpt>
      <trkpt lat="44.86952" lon="3.49579">
        <ele>1113.34</ele>
        <time>2020-08-22T07:34:30Z</time>
      </trkpt>
      <trkpt lat="44.86939" lon="3.49587">
        <ele>1115.27</ele>
        <time>2020-08-22T07:34:44Z</time>
      </trkpt>
      <trkpt lat="44.86938" lon="3.49587">
        <ele>1115.27</ele>
        <time>2020-08-22T07:34:45Z</time>
      </trkpt>
      <trkpt lat="44.86923" lon="3.49591">
        <ele>1116.23</ele>
        <time>2020-08-22T07:35:00Z</time>
      </trkpt>
      <trkpt lat="44.8691" lon="3.49596">
        <ele>1117.19</ele>
        <time>2020-08-22T07:35:13Z</time>
      </trkpt>
      <trkpt lat="44.86895" lon="3.496">
        <ele>1117.67</ele>
        <time>2020-08-22T07:35:28Z</time>
      </trkpt>
      <trkpt lat="44.86875" lon="3.49604">
        <ele>1118.15</ele>
        <time>2020-08-22T07:35:46Z</time>
      </trkpt>
      <trkpt lat="44.86856" lon="3.49608">
        <ele>1118.15</ele>
        <time>2020-08-22T07:36:04Z</time>
      </trkpt>
      <trkpt lat="44.86835" lon="3.49612">
        <ele>1118.15</ele>
        <time>2020-08-22T07:36:23Z</time>
      </trkpt>
      <trkpt lat="44.86823" lon="3.49616">
        <ele>1117.19</ele>
        <time>2020-08-22T07:36:34Z</time>
      </trkpt>
      <trkpt lat="44.86805" lon="3.49623">
        <ele>1117.19</ele>
        <time>2020-08-22T07:36:51Z</time>
      </trkpt>
      <trkpt lat="44.86786" lon="3.49622">
        <ele>1117.19</ele>
        <time>2020-08-22T07:37:09Z</time>
      </trkpt>
      <trkpt lat="44.86773" lon="3.49614">
        <ele>1117.19</ele>
        <time>2020-08-22T07:37:23Z</time>
      </trkpt>
      <trkpt lat="44.8677" lon="3.49612">
        <ele>1118.15</ele>
        <time>2020-08-22T07:37:26Z</time>
      </trkpt>
      <trkpt lat="44.86758" lon="3.49604">
        <ele>1118.63</ele>
        <time>2020-08-22T07:37:40Z</time>
      </trkpt>
      <trkpt lat="44.86745" lon="3.49599">
        <ele>1119.59</ele>
        <time>2020-08-22T07:37:53Z</time>
      </trkpt>
      <trkpt lat="44.86731" lon="3.49595">
        <ele>1120.55</ele>
        <time>2020-08-22T07:38:07Z</time>
      </trkpt>
      <trkpt lat="44.86717" lon="3.49592">
        <ele>1121.03</ele>
        <time>2020-08-22T07:38:21Z</time>
      </trkpt>
      <trkpt lat="44.86711" lon="3.49591">
        <ele>1121.03</ele>
        <time>2020-08-22T07:38:27Z</time>
      </trkpt>
      <trkpt lat="44.86693" lon="3.4959">
        <ele>1122</ele>
        <time>2020-08-22T07:38:45Z</time>
      </trkpt>
      <trkpt lat="44.86675" lon="3.4959">
        <ele>1122.96</ele>
        <time>2020-08-22T07:39:02Z</time>
      </trkpt>
      <trkpt lat="44.86658" lon="3.49591">
        <ele>1124.4</ele>
        <time>2020-08-22T07:39:18Z</time>
      </trkpt>
      <trkpt lat="44.86654" lon="3.49591">
        <ele>1124.88</ele>
        <time>2020-08-22T07:39:21Z</time>
      </trkpt>
      <trkpt lat="44.86636" lon="3.4959">
        <ele>1124.88</ele>
        <time>2020-08-22T07:39:39Z</time>
      </trkpt>
      <trkpt lat="44.86633" lon="3.49591">
        <ele>1124.88</ele>
        <time>2020-08-22T07:39:42Z</time>
      </trkpt>
      <trkpt lat="44.86616" lon="3.4959">
        <ele>1126.32</ele>
        <time>2020-08-22T07:39:57Z</time>
      </trkpt>
      <trkpt lat="44.86601" lon="3.49588">
        <ele>1127.28</ele>
        <time>2020-08-22T07:40:12Z</time>
      </trkpt>
      <trkpt lat="44.86597" lon="3.49588">
        <ele>1127.76</ele>
        <time>2020-08-22T07:40:15Z</time>
      </trkpt>
      <trkpt lat="44.86584" lon="3.49583">
        <ele>1129.21</ele>
        <time>2020-08-22T07:40:29Z</time>
      </trkpt>
      <trkpt lat="44.86569" lon="3.49571">
        <ele>1130.17</ele>
        <time>2020-08-22T07:40:45Z</time>
      </trkpt>
      <trkpt lat="44.86567" lon="3.4957">
        <ele>1130.17</ele>
        <time>2020-08-22T07:40:47Z</time>
      </trkpt>
      <trkpt lat="44.86554" lon="3.4956">
        <ele>1130.65</ele>
        <time>2020-08-22T07:41:00Z</time>
      </trkpt>
      <trkpt lat="44.86551" lon="3.49556">
        <ele>1130.65</ele>
        <time>2020-08-22T07:41:04Z</time>
      </trkpt>
      <trkpt lat="44.86538" lon="3.49544">
        <ele>1131.13</ele>
        <time>2020-08-22T07:41:19Z</time>
      </trkpt>
      <trkpt lat="44.86529" lon="3.49537">
        <ele>1131.61</ele>
        <time>2020-08-22T07:41:29Z</time>
      </trkpt>
      <trkpt lat="44.86513" lon="3.49526">
        <ele>1132.09</ele>
        <time>2020-08-22T07:41:46Z</time>
      </trkpt>
      <trkpt lat="44.86512" lon="3.49525">
        <ele>1132.09</ele>
        <time>2020-08-22T07:41:47Z</time>
      </trkpt>
      <trkpt lat="44.86494" lon="3.49519">
        <ele>1133.05</ele>
        <time>2020-08-22T07:42:04Z</time>
      </trkpt>
      <trkpt lat="44.86478" lon="3.49516">
        <ele>1133.53</ele>
        <time>2020-08-22T07:42:20Z</time>
      </trkpt>
      <trkpt lat="44.86467" lon="3.49515">
        <ele>1134.01</ele>
        <time>2020-08-22T07:42:30Z</time>
      </trkpt>
      <trkpt lat="44.8645" lon="3.49516">
        <ele>1134.49</ele>
        <time>2020-08-22T07:42:46Z</time>
      </trkpt>
      <trkpt lat="44.86428" lon="3.49517">
        <ele>1134.97</ele>
        <time>2020-08-22T07:43:06Z</time>
      </trkpt>
      <trkpt lat="44.86409" lon="3.49521">
        <ele>1135.45</ele>
        <time>2020-08-22T07:43:24Z</time>
      </trkpt>
      <trkpt lat="44.86391" lon="3.49532">
        <ele>1135.45</ele>
        <time>2020-08-22T07:43:41Z</time>
      </trkpt>
      <trkpt lat="44.86375" lon="3.49533">
        <ele>1134.01</ele>
        <time>2020-08-22T07:43:58Z</time>
      </trkpt>
      <trkpt lat="44.86356" lon="3.49523">
        <ele>1131.61</ele>
        <time>2020-08-22T07:44:17Z</time>
      </trkpt>
      <trkpt lat="44.86341" lon="3.4952">
        <ele>1130.65</ele>
        <time>2020-08-22T07:44:32Z</time>
      </trkpt>
      <trkpt lat="44.86319" lon="3.49516">
        <ele>1129.21</ele>
        <time>2020-08-22T07:44:52Z</time>
      </trkpt>
      <trkpt lat="44.86298" lon="3.4952">
        <ele>1127.76</ele>
        <time>2020-08-22T07:45:12Z</time>
      </trkpt>
      <trkpt lat="44.86276" lon="3.49514">
        <ele>1126.8</ele>
        <time>2020-08-22T07:45:32Z</time>
      </trkpt>
      <trkpt lat="44.86256" lon="3.49507">
        <ele>1125.84</ele>
        <time>2020-08-22T07:45:50Z</time>
      </trkpt>
      <trkpt lat="44.8624" lon="3.49502">
        <ele>1125.84</ele>
        <time>2020-08-22T07:46:06Z</time>
      </trkpt>
      <trkpt lat="44.86221" lon="3.49491">
        <ele>1125.36</ele>
        <time>2020-08-22T07:46:24Z</time>
      </trkpt>
      <trkpt lat="44.86206" lon="3.49481">
        <ele>1124.88</ele>
        <time>2020-08-22T07:46:40Z</time>
      </trkpt>
      <trkpt lat="44.86198" lon="3.49478">
        <ele>1124.88</ele>
        <time>2020-08-22T07:46:53Z</time>
      </trkpt>
      <trkpt lat="44.86186" lon="3.49472">
        <ele>1126.32</ele>
        <time>2020-08-22T07:47:07Z</time>
      </trkpt>
      <trkpt lat="44.86173" lon="3.4947">
        <ele>1127.28</ele>
        <time>2020-08-22T07:47:22Z</time>
      </trkpt>
      <trkpt lat="44.86161" lon="3.49473">
        <ele>1128.24</ele>
        <time>2020-08-22T07:47:35Z</time>
      </trkpt>
      <trkpt lat="44.86148" lon="3.49477">
        <ele>1129.21</ele>
        <time>2020-08-22T07:47:49Z</time>
      </trkpt>
      <trkpt lat="44.86135" lon="3.49477">
        <ele>1130.65</ele>
        <time>2020-08-22T07:48:04Z</time>
      </trkpt>
      <trkpt lat="44.86123" lon="3.49475">
        <ele>1131.61</ele>
        <time>2020-08-22T07:48:17Z</time>
      </trkpt>
      <trkpt lat="44.86115" lon="3.49471">
        <ele>1132.57</ele>
        <time>2020-08-22T07:48:26Z</time>
      </trkpt>
      <trkpt lat="44.86101" lon="3.49467">
        <ele>1133.53</ele>
        <time>2020-08-22T07:48:42Z</time>
      </trkpt>
      <trkpt lat="44.86088" lon="3.49463">
        <ele>1135.45</ele>
        <time>2020-08-22T07:48:56Z</time>
      </trkpt>
      <trkpt lat="44.86079" lon="3.49456">
        <ele>1136.42</ele>
        <time>2020-08-22T07:49:08Z</time>
      </trkpt>
      <trkpt lat="44.86066" lon="3.49448">
        <ele>1138.34</ele>
        <time>2020-08-22T07:49:23Z</time>
      </trkpt>
      <trkpt lat="44.86057" lon="3.49442">
        <ele>1139.78</ele>
        <time>2020-08-22T07:49:35Z</time>
      </trkpt>
      <trkpt lat="44.86046" lon="3.49435">
        <ele>1141.22</ele>
        <time>2020-08-22T07:49:50Z</time>
      </trkpt>
      <trkpt lat="44.86034" lon="3.49432">
        <ele>1142.66</ele>
        <time>2020-08-22T07:50:03Z</time>
      </trkpt>
      <trkpt lat="44.86029" lon="3.49429">
        <ele>1143.14</ele>
        <time>2020-08-22T07:50:09Z</time>
      </trkpt>
      <trkpt lat="44.86023" lon="3.49425">
        <ele>1144.11</ele>
        <time>2020-08-22T07:50:15Z</time>
      </trkpt>
      <trkpt lat="44.86012" lon="3.49417">
        <ele>1145.55</ele>
        <time>2020-08-22T07:50:29Z</time>
      </trkpt>
      <trkpt lat="44.86003" lon="3.49413">
        <ele>1146.51</ele>
        <time>2020-08-22T07:50:40Z</time>
      </trkpt>
      <trkpt lat="44.85992" lon="3.49405">
        <ele>1147.95</ele>
        <time>2020-08-22T07:50:54Z</time>
      </trkpt>
      <trkpt lat="44.85987" lon="3.49403">
        <ele>1147.95</ele>
        <time>2020-08-22T07:51:03Z</time>
      </trkpt>
      <trkpt lat="44.85982" lon="3.494">
        <ele>1148.43</ele>
        <time>2020-08-22T07:51:10Z</time>
      </trkpt>
      <trkpt lat="44.8597" lon="3.49392">
        <ele>1148.91</ele>
        <time>2020-08-22T07:51:23Z</time>
      </trkpt>
      <trkpt lat="44.85965" lon="3.49388">
        <ele>1149.39</ele>
        <time>2020-08-22T07:51:29Z</time>
      </trkpt>
      <trkpt lat="44.85949" lon="3.4938">
        <ele>1150.35</ele>
        <time>2020-08-22T07:51:46Z</time>
      </trkpt>
      <trkpt lat="44.85938" lon="3.49374">
        <ele>1150.84</ele>
        <time>2020-08-22T07:51:58Z</time>
      </trkpt>
      <trkpt lat="44.85931" lon="3.4937">
        <ele>1151.8</ele>
        <time>2020-08-22T07:52:16Z</time>
      </trkpt>
      <trkpt lat="44.8592" lon="3.49366">
        <ele>1152.28</ele>
        <time>2020-08-22T07:52:28Z</time>
      </trkpt>
      <trkpt lat="44.8591" lon="3.49367">
        <ele>1153.72</ele>
        <time>2020-08-22T07:52:40Z</time>
      </trkpt>
      <trkpt lat="44.85897" lon="3.49368">
        <ele>1154.68</ele>
        <time>2020-08-22T07:52:55Z</time>
      </trkpt>
      <trkpt lat="44.85893" lon="3.49369">
        <ele>1154.68</ele>
        <time>2020-08-22T07:52:59Z</time>
      </trkpt>
      <trkpt lat="44.85876" lon="3.49362">
        <ele>1155.64</ele>
        <time>2020-08-22T07:53:16Z</time>
      </trkpt>
      <trkpt lat="44.85861" lon="3.49354">
        <ele>1156.6</ele>
        <time>2020-08-22T07:53:31Z</time>
      </trkpt>
      <trkpt lat="44.85849" lon="3.49341">
        <ele>1156.6</ele>
        <time>2020-08-22T07:53:46Z</time>
      </trkpt>
      <trkpt lat="44.85842" lon="3.4933">
        <ele>1156.6</ele>
        <time>2020-08-22T07:54:01Z</time>
      </trkpt>
      <trkpt lat="44.85841" lon="3.49326">
        <ele>1156.6</ele>
        <time>2020-08-22T07:54:17Z</time>
      </trkpt>
      <trkpt lat="44.85842" lon="3.49325">
        <ele>1155.64</ele>
        <time>2020-08-22T07:54:26Z</time>
      </trkpt>
      <trkpt lat="44.85843" lon="3.49325">
        <ele>1155.16</ele>
        <time>2020-08-22T07:55:01Z</time>
      </trkpt>
      <trkpt lat="44.85843" lon="3.49326">
        <ele>1155.16</ele>
        <time>2020-08-22T07:55:32Z</time>
      </trkpt>
      <trkpt lat="44.8584" lon="3.49321">
        <ele>1155.16</ele>
        <time>2020-08-22T07:55:54Z</time>
      </trkpt>
      <trkpt lat="44.85827" lon="3.49309">
        <ele>1155.16</ele>
        <time>2020-08-22T07:56:09Z</time>
      </trkpt>
      <trkpt lat="44.85807" lon="3.49307">
        <ele>1155.16</ele>
        <time>2020-08-22T07:56:28Z</time>
      </trkpt>
      <trkpt lat="44.85791" lon="3.49305">
        <ele>1154.68</ele>
        <time>2020-08-22T07:56:42Z</time>
      </trkpt>
      <trkpt lat="44.85779" lon="3.49304">
        <ele>1154.68</ele>
        <time>2020-08-22T07:56:52Z</time>
      </trkpt>
      <trkpt lat="44.85757" lon="3.49308">
        <ele>1152.76</ele>
        <time>2020-08-22T07:57:12Z</time>
      </trkpt>
      <trkpt lat="44.85742" lon="3.49309">
        <ele>1153.24</ele>
        <time>2020-08-22T07:57:26Z</time>
      </trkpt>
      <trkpt lat="44.85736" lon="3.4931">
        <ele>1153.24</ele>
        <time>2020-08-22T07:57:32Z</time>
      </trkpt>
      <trkpt lat="44.8572" lon="3.49311">
        <ele>1153.24</ele>
        <time>2020-08-22T07:57:47Z</time>
      </trkpt>
      <trkpt lat="44.85703" lon="3.49314">
        <ele>1153.24</ele>
        <time>2020-08-22T07:58:04Z</time>
      </trkpt>
      <trkpt lat="44.85699" lon="3.49317">
        <ele>1153.24</ele>
        <time>2020-08-22T07:58:19Z</time>
      </trkpt>
      <trkpt lat="44.85688" lon="3.49327">
        <ele>1153.24</ele>
        <time>2020-08-22T07:58:35Z</time>
      </trkpt>
      <trkpt lat="44.85683" lon="3.49335">
        <ele>1152.76</ele>
        <time>2020-08-22T07:58:48Z</time>
      </trkpt>
      <trkpt lat="44.85685" lon="3.49332">
        <ele>1152.76</ele>
        <time>2020-08-22T07:58:57Z</time>
      </trkpt>
      <trkpt lat="44.85686" lon="3.49333">
        <ele>1152.76</ele>
        <time>2020-08-22T07:59:26Z</time>
      </trkpt>
      <trkpt lat="44.85687" lon="3.49333">
        <ele>1152.76</ele>
        <time>2020-08-22T07:59:55Z</time>
      </trkpt>
      <trkpt lat="44.85685" lon="3.49337">
        <ele>1152.76</ele>
        <time>2020-08-22T08:00:32Z</time>
      </trkpt>
      <trkpt lat="44.85685" lon="3.49337">
        <ele>1153.24</ele>
        <time>2020-08-22T08:01:03Z</time>
      </trkpt>
      <trkpt lat="44.85687" lon="3.49337">
        <ele>1152.76</ele>
        <time>2020-08-22T08:01:31Z</time>
      </trkpt>
      <trkpt lat="44.85686" lon="3.49335">
        <ele>1152.76</ele>
        <time>2020-08-22T08:02:03Z</time>
      </trkpt>
      <trkpt lat="44.85688" lon="3.49334">
        <ele>1153.24</ele>
        <time>2020-08-22T08:02:43Z</time>
      </trkpt>
      <trkpt lat="44.85687" lon="3.49331">
        <ele>1153.24</ele>
        <time>2020-08-22T08:03:18Z</time>
      </trkpt>
      <trkpt lat="44.85688" lon="3.4933">
        <ele>1153.24</ele>
        <time>2020-08-22T08:03:56Z</time>
      </trkpt>
      <trkpt lat="44.85686" lon="3.4933">
        <ele>1153.24</ele>
        <time>2020-08-22T08:04:30Z</time>
      </trkpt>
      <trkpt lat="44.85686" lon="3.49329">
        <ele>1153.24</ele>
        <time>2020-08-22T08:05:12Z</time>
      </trkpt>
      <trkpt lat="44.85686" lon="3.4933">
        <ele>1153.24</ele>
        <time>2020-08-22T08:05:48Z</time>
      </trkpt>
      <trkpt lat="44.85683" lon="3.49336">
        <ele>1153.24</ele>
        <time>2020-08-22T08:06:18Z</time>
      </trkpt>
      <trkpt lat="44.85679" lon="3.4934">
        <ele>1153.24</ele>
        <time>2020-08-22T08:06:32Z</time>
      </trkpt>
      <trkpt lat="44.85682" lon="3.49341">
        <ele>1153.24</ele>
        <time>2020-08-22T08:06:58Z</time>
      </trkpt>
      <trkpt lat="44.85683" lon="3.49342">
        <ele>1153.24</ele>
        <time>2020-08-22T08:07:23Z</time>
      </trkpt>
      <trkpt lat="44.85683" lon="3.49341">
        <ele>1153.24</ele>
        <time>2020-08-22T08:07:45Z</time>
      </trkpt>
      <trkpt lat="44.8568" lon="3.49341">
        <ele>1153.24</ele>
        <time>2020-08-22T08:08:02Z</time>
      </trkpt>
      <trkpt lat="44.85671" lon="3.49346">
        <ele>1153.24</ele>
        <time>2020-08-22T08:08:21Z</time>
      </trkpt>
      <trkpt lat="44.85665" lon="3.49353">
        <ele>1154.68</ele>
        <time>2020-08-22T08:08:30Z</time>
      </trkpt>
      <trkpt lat="44.85662" lon="3.49367">
        <ele>1156.12</ele>
        <time>2020-08-22T08:08:44Z</time>
      </trkpt>
      <trkpt lat="44.85669" lon="3.49377">
        <ele>1158.05</ele>
        <time>2020-08-22T08:08:58Z</time>
      </trkpt>
      <trkpt lat="44.85669" lon="3.49392">
        <ele>1159.49</ele>
        <time>2020-08-22T08:09:11Z</time>
      </trkpt>
      <trkpt lat="44.85666" lon="3.494">
        <ele>1160.93</ele>
        <time>2020-08-22T08:09:23Z</time>
      </trkpt>
      <trkpt lat="44.85665" lon="3.49411">
        <ele>1161.89</ele>
        <time>2020-08-22T08:09:34Z</time>
      </trkpt>
      <trkpt lat="44.85665" lon="3.49429">
        <ele>1163.33</ele>
        <time>2020-08-22T08:09:49Z</time>
      </trkpt>
      <trkpt lat="44.8567" lon="3.49445">
        <ele>1164.77</ele>
        <time>2020-08-22T08:10:04Z</time>
      </trkpt>
      <trkpt lat="44.85671" lon="3.4946">
        <ele>1166.22</ele>
        <time>2020-08-22T08:10:16Z</time>
      </trkpt>
      <trkpt lat="44.85671" lon="3.49463">
        <ele>1166.7</ele>
        <time>2020-08-22T08:10:19Z</time>
      </trkpt>
      <trkpt lat="44.85665" lon="3.49473">
        <ele>1167.66</ele>
        <time>2020-08-22T08:10:31Z</time>
      </trkpt>
      <trkpt lat="44.85661" lon="3.49481">
        <ele>1168.14</ele>
        <time>2020-08-22T08:10:47Z</time>
      </trkpt>
      <trkpt lat="44.85654" lon="3.495">
        <ele>1169.58</ele>
        <time>2020-08-22T08:11:02Z</time>
      </trkpt>
      <trkpt lat="44.85644" lon="3.49513">
        <ele>1171.02</ele>
        <time>2020-08-22T08:11:18Z</time>
      </trkpt>
      <trkpt lat="44.85637" lon="3.49521">
        <ele>1171.98</ele>
        <time>2020-08-22T08:11:28Z</time>
      </trkpt>
      <trkpt lat="44.85624" lon="3.49525">
        <ele>1173.91</ele>
        <time>2020-08-22T08:11:43Z</time>
      </trkpt>
      <trkpt lat="44.85613" lon="3.49522">
        <ele>1174.87</ele>
        <time>2020-08-22T08:11:55Z</time>
      </trkpt>
      <trkpt lat="44.85597" lon="3.49517">
        <ele>1176.31</ele>
        <time>2020-08-22T08:12:10Z</time>
      </trkpt>
      <trkpt lat="44.85596" lon="3.49518">
        <ele>1176.79</ele>
        <time>2020-08-22T08:12:11Z</time>
      </trkpt>
      <trkpt lat="44.85581" lon="3.49516">
        <ele>1177.27</ele>
        <time>2020-08-22T08:12:27Z</time>
      </trkpt>
      <trkpt lat="44.8556" lon="3.49516">
        <ele>1177.27</ele>
        <time>2020-08-22T08:12:47Z</time>
      </trkpt>
      <trkpt lat="44.85539" lon="3.49519">
        <ele>1177.27</ele>
        <time>2020-08-22T08:13:06Z</time>
      </trkpt>
      <trkpt lat="44.85526" lon="3.49522">
        <ele>1175.83</ele>
        <time>2020-08-22T08:13:18Z</time>
      </trkpt>
      <trkpt lat="44.85503" lon="3.49526">
        <ele>1175.35</ele>
        <time>2020-08-22T08:13:39Z</time>
      </trkpt>
      <trkpt lat="44.85481" lon="3.4953">
        <ele>1173.91</ele>
        <time>2020-08-22T08:14:00Z</time>
      </trkpt>
      <trkpt lat="44.85457" lon="3.49543">
        <ele>1171.98</ele>
        <time>2020-08-22T08:14:25Z</time>
      </trkpt>
      <trkpt lat="44.85439" lon="3.49557">
        <ele>1171.02</ele>
        <time>2020-08-22T08:14:43Z</time>
      </trkpt>
      <trkpt lat="44.8542" lon="3.49566">
        <ele>1171.02</ele>
        <time>2020-08-22T08:15:01Z</time>
      </trkpt>
      <trkpt lat="44.85405" lon="3.49571">
        <ele>1171.02</ele>
        <time>2020-08-22T08:15:17Z</time>
      </trkpt>
      <trkpt lat="44.85388" lon="3.49579">
        <ele>1170.06</ele>
        <time>2020-08-22T08:15:34Z</time>
      </trkpt>
      <trkpt lat="44.8537" lon="3.49585">
        <ele>1170.06</ele>
        <time>2020-08-22T08:15:52Z</time>
      </trkpt>
      <trkpt lat="44.85356" lon="3.49583">
        <ele>1170.06</ele>
        <time>2020-08-22T08:16:05Z</time>
      </trkpt>
      <trkpt lat="44.85339" lon="3.49576">
        <ele>1170.06</ele>
        <time>2020-08-22T08:16:21Z</time>
      </trkpt>
      <trkpt lat="44.85332" lon="3.49573">
        <ele>1171.02</ele>
        <time>2020-08-22T08:16:28Z</time>
      </trkpt>
      <trkpt lat="44.85319" lon="3.49573">
        <ele>1171.98</ele>
        <time>2020-08-22T08:16:42Z</time>
      </trkpt>
      <trkpt lat="44.85307" lon="3.49574">
        <ele>1172.95</ele>
        <time>2020-08-22T08:16:55Z</time>
      </trkpt>
      <trkpt lat="44.85293" lon="3.49573">
        <ele>1174.39</ele>
        <time>2020-08-22T08:17:10Z</time>
      </trkpt>
      <trkpt lat="44.85276" lon="3.49566">
        <ele>1175.83</ele>
        <time>2020-08-22T08:17:28Z</time>
      </trkpt>
      <trkpt lat="44.85262" lon="3.49561">
        <ele>1176.79</ele>
        <time>2020-08-22T08:17:43Z</time>
      </trkpt>
      <trkpt lat="44.85247" lon="3.49558">
        <ele>1178.23</ele>
        <time>2020-08-22T08:17:58Z</time>
      </trkpt>
      <trkpt lat="44.85233" lon="3.49558">
        <ele>1179.19</ele>
        <time>2020-08-22T08:18:12Z</time>
      </trkpt>
      <trkpt lat="44.85219" lon="3.4956">
        <ele>1180.16</ele>
        <time>2020-08-22T08:18:26Z</time>
      </trkpt>
      <trkpt lat="44.85202" lon="3.49566">
        <ele>1180.64</ele>
        <time>2020-08-22T08:18:42Z</time>
      </trkpt>
      <trkpt lat="44.85201" lon="3.49566">
        <ele>1180.64</ele>
        <time>2020-08-22T08:18:43Z</time>
      </trkpt>
      <trkpt lat="44.85184" lon="3.49574">
        <ele>1181.12</ele>
        <time>2020-08-22T08:19:00Z</time>
      </trkpt>
      <trkpt lat="44.85168" lon="3.49579">
        <ele>1181.6</ele>
        <time>2020-08-22T08:19:15Z</time>
      </trkpt>
      <trkpt lat="44.85152" lon="3.49585">
        <ele>1181.6</ele>
        <time>2020-08-22T08:19:31Z</time>
      </trkpt>
      <trkpt lat="44.85135" lon="3.49591">
        <ele>1180.16</ele>
        <time>2020-08-22T08:19:47Z</time>
      </trkpt>
      <trkpt lat="44.85116" lon="3.49598">
        <ele>1179.19</ele>
        <time>2020-08-22T08:20:05Z</time>
      </trkpt>
      <trkpt lat="44.85107" lon="3.49604">
        <ele>1179.19</ele>
        <time>2020-08-22T08:20:14Z</time>
      </trkpt>
      <trkpt lat="44.85105" lon="3.49605">
        <ele>1179.19</ele>
        <time>2020-08-22T08:20:17Z</time>
      </trkpt>
      <trkpt lat="44.85093" lon="3.49621">
        <ele>1179.19</ele>
        <time>2020-08-22T08:20:33Z</time>
      </trkpt>
      <trkpt lat="44.85086" lon="3.49635">
        <ele>1179.19</ele>
        <time>2020-08-22T08:20:44Z</time>
      </trkpt>
      <trkpt lat="44.85077" lon="3.49651">
        <ele>1180.16</ele>
        <time>2020-08-22T08:20:57Z</time>
      </trkpt>
      <trkpt lat="44.85065" lon="3.49664">
        <ele>1180.64</ele>
        <time>2020-08-22T08:21:11Z</time>
      </trkpt>
      <trkpt lat="44.85046" lon="3.49669">
        <ele>1180.64</ele>
        <time>2020-08-22T08:21:27Z</time>
      </trkpt>
      <trkpt lat="44.85027" lon="3.49664">
        <ele>1181.6</ele>
        <time>2020-08-22T08:21:45Z</time>
      </trkpt>
      <trkpt lat="44.85007" lon="3.49658">
        <ele>1182.08</ele>
        <time>2020-08-22T08:22:04Z</time>
      </trkpt>
      <trkpt lat="44.8499" lon="3.49656">
        <ele>1183.04</ele>
        <time>2020-08-22T08:22:20Z</time>
      </trkpt>
      <trkpt lat="44.84978" lon="3.4967">
        <ele>1184</ele>
        <time>2020-08-22T08:22:36Z</time>
      </trkpt>
      <trkpt lat="44.84969" lon="3.49684">
        <ele>1184.96</ele>
        <time>2020-08-22T08:22:50Z</time>
      </trkpt>
      <trkpt lat="44.84958" lon="3.49695">
        <ele>1185.92</ele>
        <time>2020-08-22T08:23:04Z</time>
      </trkpt>
      <trkpt lat="44.84947" lon="3.49706">
        <ele>1187.85</ele>
        <time>2020-08-22T08:23:19Z</time>
      </trkpt>
      <trkpt lat="44.84945" lon="3.49709">
        <ele>1188.33</ele>
        <time>2020-08-22T08:23:23Z</time>
      </trkpt>
      <trkpt lat="44.84934" lon="3.49722">
        <ele>1189.77</ele>
        <time>2020-08-22T08:23:38Z</time>
      </trkpt>
      <trkpt lat="44.84925" lon="3.49735">
        <ele>1191.21</ele>
        <time>2020-08-22T08:23:52Z</time>
      </trkpt>
      <trkpt lat="44.84916" lon="3.49742">
        <ele>1192.17</ele>
        <time>2020-08-22T08:24:04Z</time>
      </trkpt>
      <trkpt lat="44.84911" lon="3.49743">
        <ele>1193.13</ele>
        <time>2020-08-22T08:24:10Z</time>
      </trkpt>
      <trkpt lat="44.84907" lon="3.49741">
        <ele>1193.13</ele>
        <time>2020-08-22T08:24:14Z</time>
      </trkpt>
      <trkpt lat="44.84904" lon="3.49739">
        <ele>1193.61</ele>
        <time>2020-08-22T08:24:18Z</time>
      </trkpt>
      <trkpt lat="44.84899" lon="3.49736">
        <ele>1193.61</ele>
        <time>2020-08-22T08:24:23Z</time>
      </trkpt>
      <trkpt lat="44.84887" lon="3.49731">
        <ele>1195.54</ele>
        <time>2020-08-22T08:24:37Z</time>
      </trkpt>
      <trkpt lat="44.84877" lon="3.49733">
        <ele>1196.5</ele>
        <time>2020-08-22T08:24:49Z</time>
      </trkpt>
      <trkpt lat="44.84863" lon="3.49733">
        <ele>1197.46</ele>
        <time>2020-08-22T08:25:04Z</time>
      </trkpt>
      <trkpt lat="44.84852" lon="3.49725">
        <ele>1198.9</ele>
        <time>2020-08-22T08:25:18Z</time>
      </trkpt>
      <trkpt lat="44.8485" lon="3.49723">
        <ele>1199.38</ele>
        <time>2020-08-22T08:25:21Z</time>
      </trkpt>
      <trkpt lat="44.84844" lon="3.49715">
        <ele>1200.34</ele>
        <time>2020-08-22T08:25:34Z</time>
      </trkpt>
      <trkpt lat="44.84838" lon="3.49707">
        <ele>1200.82</ele>
        <time>2020-08-22T08:25:45Z</time>
      </trkpt>
      <trkpt lat="44.84844" lon="3.49703">
        <ele>1200.82</ele>
        <time>2020-08-22T08:25:58Z</time>
      </trkpt>
      <trkpt lat="44.84846" lon="3.497">
        <ele>1200.82</ele>
        <time>2020-08-22T08:26:12Z</time>
      </trkpt>
      <trkpt lat="44.84841" lon="3.49706">
        <ele>1200.82</ele>
        <time>2020-08-22T08:26:30Z</time>
      </trkpt>
      <trkpt lat="44.8483" lon="3.49701">
        <ele>1200.82</ele>
        <time>2020-08-22T08:26:42Z</time>
      </trkpt>
      <trkpt lat="44.84821" lon="3.49691">
        <ele>1201.3</ele>
        <time>2020-08-22T08:26:53Z</time>
      </trkpt>
      <trkpt lat="44.8481" lon="3.49673">
        <ele>1201.3</ele>
        <time>2020-08-22T08:27:10Z</time>
      </trkpt>
      <trkpt lat="44.84793" lon="3.49663">
        <ele>1201.3</ele>
        <time>2020-08-22T08:27:27Z</time>
      </trkpt>
      <trkpt lat="44.84778" lon="3.49672">
        <ele>1201.3</ele>
        <time>2020-08-22T08:27:43Z</time>
      </trkpt>
      <trkpt lat="44.84766" lon="3.49686">
        <ele>1201.79</ele>
        <time>2020-08-22T08:27:58Z</time>
      </trkpt>
      <trkpt lat="44.84754" lon="3.49698">
        <ele>1202.27</ele>
        <time>2020-08-22T08:28:12Z</time>
      </trkpt>
      <trkpt lat="44.84742" lon="3.49711">
        <ele>1202.75</ele>
        <time>2020-08-22T08:28:27Z</time>
      </trkpt>
      <trkpt lat="44.84728" lon="3.49726">
        <ele>1203.23</ele>
        <time>2020-08-22T08:28:41Z</time>
      </trkpt>
      <trkpt lat="44.84717" lon="3.49737">
        <ele>1203.23</ele>
        <time>2020-08-22T08:28:52Z</time>
      </trkpt>
      <trkpt lat="44.84699" lon="3.49751">
        <ele>1202.75</ele>
        <time>2020-08-22T08:29:10Z</time>
      </trkpt>
      <trkpt lat="44.84684" lon="3.49765">
        <ele>1202.75</ele>
        <time>2020-08-22T08:29:27Z</time>
      </trkpt>
      <trkpt lat="44.84667" lon="3.49778">
        <ele>1202.75</ele>
        <time>2020-08-22T08:29:44Z</time>
      </trkpt>
      <trkpt lat="44.84649" lon="3.49787">
        <ele>1202.75</ele>
        <time>2020-08-22T08:30:01Z</time>
      </trkpt>
      <trkpt lat="44.8464" lon="3.4979">
        <ele>1203.23</ele>
        <time>2020-08-22T08:30:09Z</time>
      </trkpt>
      <trkpt lat="44.84626" lon="3.49794">
        <ele>1203.23</ele>
        <time>2020-08-22T08:30:22Z</time>
      </trkpt>
      <trkpt lat="44.84614" lon="3.49799">
        <ele>1203.71</ele>
        <time>2020-08-22T08:30:36Z</time>
      </trkpt>
      <trkpt lat="44.84606" lon="3.49802">
        <ele>1203.71</ele>
        <time>2020-08-22T08:30:51Z</time>
      </trkpt>
      <trkpt lat="44.84603" lon="3.49801">
        <ele>1203.71</ele>
        <time>2020-08-22T08:31:22Z</time>
      </trkpt>
      <trkpt lat="44.84605" lon="3.49802">
        <ele>1203.71</ele>
        <time>2020-08-22T08:31:54Z</time>
      </trkpt>
      <trkpt lat="44.84601" lon="3.49805">
        <ele>1204.19</ele>
        <time>2020-08-22T08:32:09Z</time>
      </trkpt>
      <trkpt lat="44.846" lon="3.49805">
        <ele>1204.19</ele>
        <time>2020-08-22T08:32:45Z</time>
      </trkpt>
      <trkpt lat="44.84597" lon="3.49807">
        <ele>1204.67</ele>
        <time>2020-08-22T08:33:11Z</time>
      </trkpt>
      <trkpt lat="44.84589" lon="3.49813">
        <ele>1205.15</ele>
        <time>2020-08-22T08:33:29Z</time>
      </trkpt>
      <trkpt lat="44.84581" lon="3.49818">
        <ele>1206.11</ele>
        <time>2020-08-22T08:33:43Z</time>
      </trkpt>
      <trkpt lat="44.84568" lon="3.49822">
        <ele>1206.59</ele>
        <time>2020-08-22T08:34:00Z</time>
      </trkpt>
      <trkpt lat="44.84551" lon="3.49821">
        <ele>1207.07</ele>
        <time>2020-08-22T08:34:17Z</time>
      </trkpt>
      <trkpt lat="44.84537" lon="3.49823">
        <ele>1207.55</ele>
        <time>2020-08-22T08:34:33Z</time>
      </trkpt>
      <trkpt lat="44.8452" lon="3.49828">
        <ele>1208.51</ele>
        <time>2020-08-22T08:34:50Z</time>
      </trkpt>
      <trkpt lat="44.84509" lon="3.49834">
        <ele>1209.48</ele>
        <time>2020-08-22T08:35:03Z</time>
      </trkpt>
      <trkpt lat="44.84503" lon="3.49839">
        <ele>1210.44</ele>
        <time>2020-08-22T08:35:15Z</time>
      </trkpt>
      <trkpt lat="44.84493" lon="3.49845">
        <ele>1211.4</ele>
        <time>2020-08-22T08:35:28Z</time>
      </trkpt>
      <trkpt lat="44.84482" lon="3.49853">
        <ele>1213.32</ele>
        <time>2020-08-22T08:35:43Z</time>
      </trkpt>
      <trkpt lat="44.84471" lon="3.49855">
        <ele>1214.76</ele>
        <time>2020-08-22T08:35:57Z</time>
      </trkpt>
      <trkpt lat="44.84458" lon="3.49852">
        <ele>1215.72</ele>
        <time>2020-08-22T08:36:14Z</time>
      </trkpt>
      <trkpt lat="44.84445" lon="3.49847">
        <ele>1217.65</ele>
        <time>2020-08-22T08:36:31Z</time>
      </trkpt>
      <trkpt lat="44.84435" lon="3.49842">
        <ele>1217.65</ele>
        <time>2020-08-22T08:36:43Z</time>
      </trkpt>
      <trkpt lat="44.8442" lon="3.49838">
        <ele>1218.13</ele>
        <time>2020-08-22T08:36:59Z</time>
      </trkpt>
      <trkpt lat="44.84405" lon="3.49831">
        <ele>1218.61</ele>
        <time>2020-08-22T08:37:14Z</time>
      </trkpt>
      <trkpt lat="44.84392" lon="3.49831">
        <ele>1218.61</ele>
        <time>2020-08-22T08:37:28Z</time>
      </trkpt>
      <trkpt lat="44.84378" lon="3.49827">
        <ele>1218.61</ele>
        <time>2020-08-22T08:37:43Z</time>
      </trkpt>
      <trkpt lat="44.84362" lon="3.49818">
        <ele>1217.65</ele>
        <time>2020-08-22T08:37:59Z</time>
      </trkpt>
      <trkpt lat="44.84346" lon="3.49813">
        <ele>1216.69</ele>
        <time>2020-08-22T08:38:16Z</time>
      </trkpt>
      <trkpt lat="44.84334" lon="3.49815">
        <ele>1216.69</ele>
        <time>2020-08-22T08:38:31Z</time>
      </trkpt>
      <trkpt lat="44.84322" lon="3.49818">
        <ele>1216.69</ele>
        <time>2020-08-22T08:38:44Z</time>
      </trkpt>
      <trkpt lat="44.84304" lon="3.49821">
        <ele>1216.69</ele>
        <time>2020-08-22T08:39:00Z</time>
      </trkpt>
      <trkpt lat="44.84295" lon="3.49818">
        <ele>1216.21</ele>
        <time>2020-08-22T08:39:09Z</time>
      </trkpt>
      <trkpt lat="44.84288" lon="3.49811">
        <ele>1216.21</ele>
        <time>2020-08-22T08:39:23Z</time>
      </trkpt>
      <trkpt lat="44.84287" lon="3.4981">
        <ele>1215.72</ele>
        <time>2020-08-22T08:39:48Z</time>
      </trkpt>
      <trkpt lat="44.84285" lon="3.49811">
        <ele>1215.72</ele>
        <time>2020-08-22T08:40:16Z</time>
      </trkpt>
      <trkpt lat="44.84282" lon="3.49805">
        <ele>1216.21</ele>
        <time>2020-08-22T08:40:45Z</time>
      </trkpt>
      <trkpt lat="44.84279" lon="3.49809">
        <ele>1216.21</ele>
        <time>2020-08-22T08:41:21Z</time>
      </trkpt>
      <trkpt lat="44.84279" lon="3.49809">
        <ele>1216.21</ele>
        <time>2020-08-22T08:41:47Z</time>
      </trkpt>
      <trkpt lat="44.84284" lon="3.49807">
        <ele>1216.21</ele>
        <time>2020-08-22T08:42:08Z</time>
      </trkpt>
      <trkpt lat="44.84286" lon="3.49807">
        <ele>1216.21</ele>
        <time>2020-08-22T08:42:40Z</time>
      </trkpt>
      <trkpt lat="44.84286" lon="3.49807">
        <ele>1216.21</ele>
        <time>2020-08-22T08:43:02Z</time>
      </trkpt>
      <trkpt lat="44.84282" lon="3.49804">
        <ele>1217.17</ele>
        <time>2020-08-22T08:43:16Z</time>
      </trkpt>
      <trkpt lat="44.84279" lon="3.49799">
        <ele>1218.61</ele>
        <time>2020-08-22T08:43:27Z</time>
      </trkpt>
      <trkpt lat="44.84279" lon="3.49792">
        <ele>1219.09</ele>
        <time>2020-08-22T08:43:33Z</time>
      </trkpt>
      <trkpt lat="44.84277" lon="3.49779">
        <ele>1220.05</ele>
        <time>2020-08-22T08:43:45Z</time>
      </trkpt>
      <trkpt lat="44.84276" lon="3.49769">
        <ele>1221.01</ele>
        <time>2020-08-22T08:43:55Z</time>
      </trkpt>
      <trkpt lat="44.84271" lon="3.49753">
        <ele>1221.49</ele>
        <time>2020-08-22T08:44:10Z</time>
      </trkpt>
      <trkpt lat="44.84266" lon="3.49735">
        <ele>1221.97</ele>
        <time>2020-08-22T08:44:29Z</time>
      </trkpt>
      <trkpt lat="44.84263" lon="3.49735">
        <ele>1221.49</ele>
        <time>2020-08-22T08:45:03Z</time>
      </trkpt>
      <trkpt lat="44.84265" lon="3.49735">
        <ele>1221.97</ele>
        <time>2020-08-22T08:45:35Z</time>
      </trkpt>
      <trkpt lat="44.8426" lon="3.4974">
        <ele>1222.45</ele>
        <time>2020-08-22T08:45:55Z</time>
      </trkpt>
      <trkpt lat="44.8426" lon="3.49728">
        <ele>1222.45</ele>
        <time>2020-08-22T08:46:09Z</time>
      </trkpt>
      <trkpt lat="44.84257" lon="3.49722">
        <ele>1222.45</ele>
        <time>2020-08-22T08:46:16Z</time>
      </trkpt>
      <trkpt lat="44.84246" lon="3.49705">
        <ele>1222.45</ele>
        <time>2020-08-22T08:46:32Z</time>
      </trkpt>
      <trkpt lat="44.84244" lon="3.497">
        <ele>1222.45</ele>
        <time>2020-08-22T08:46:48Z</time>
      </trkpt>
      <trkpt lat="44.84239" lon="3.49687">
        <ele>1221.49</ele>
        <time>2020-08-22T08:47:07Z</time>
      </trkpt>
      <trkpt lat="44.84231" lon="3.49666">
        <ele>1221.49</ele>
        <time>2020-08-22T08:47:22Z</time>
      </trkpt>
      <trkpt lat="44.84226" lon="3.49652">
        <ele>1221.01</ele>
        <time>2020-08-22T08:47:35Z</time>
      </trkpt>
      <trkpt lat="44.84221" lon="3.49639">
        <ele>1222.45</ele>
        <time>2020-08-22T08:47:47Z</time>
      </trkpt>
      <trkpt lat="44.84215" lon="3.49628">
        <ele>1222.93</ele>
        <time>2020-08-22T08:47:58Z</time>
      </trkpt>
      <trkpt lat="44.84208" lon="3.49618">
        <ele>1223.9</ele>
        <time>2020-08-22T08:48:11Z</time>
      </trkpt>
      <trkpt lat="44.84195" lon="3.49602">
        <ele>1225.34</ele>
        <time>2020-08-22T08:48:28Z</time>
      </trkpt>
      <trkpt lat="44.8419" lon="3.49595">
        <ele>1225.34</ele>
        <time>2020-08-22T08:48:33Z</time>
      </trkpt>
      <trkpt lat="44.84182" lon="3.49577">
        <ele>1226.3</ele>
        <time>2020-08-22T08:48:48Z</time>
      </trkpt>
      <trkpt lat="44.84175" lon="3.49566">
        <ele>1227.26</ele>
        <time>2020-08-22T08:48:58Z</time>
      </trkpt>
      <trkpt lat="44.8417" lon="3.49554">
        <ele>1227.26</ele>
        <time>2020-08-22T08:49:09Z</time>
      </trkpt>
      <trkpt lat="44.84161" lon="3.49539">
        <ele>1227.26</ele>
        <time>2020-08-22T08:49:22Z</time>
      </trkpt>
      <trkpt lat="44.84147" lon="3.49526">
        <ele>1228.22</ele>
        <time>2020-08-22T08:49:36Z</time>
      </trkpt>
      <trkpt lat="44.84134" lon="3.4952">
        <ele>1229.66</ele>
        <time>2020-08-22T08:49:50Z</time>
      </trkpt>
      <trkpt lat="44.84122" lon="3.49517">
        <ele>1231.59</ele>
        <time>2020-08-22T08:50:05Z</time>
      </trkpt>
      <trkpt lat="44.84112" lon="3.49518">
        <ele>1233.51</ele>
        <time>2020-08-22T08:50:20Z</time>
      </trkpt>
      <trkpt lat="44.84104" lon="3.4952">
        <ele>1234.47</ele>
        <time>2020-08-22T08:50:32Z</time>
      </trkpt>
      <trkpt lat="44.84094" lon="3.49523">
        <ele>1236.39</ele>
        <time>2020-08-22T08:50:47Z</time>
      </trkpt>
      <trkpt lat="44.84084" lon="3.49525">
        <ele>1238.32</ele>
        <time>2020-08-22T08:51:01Z</time>
      </trkpt>
      <trkpt lat="44.84075" lon="3.49525">
        <ele>1239.28</ele>
        <time>2020-08-22T08:51:14Z</time>
      </trkpt>
      <trkpt lat="44.84064" lon="3.49527">
        <ele>1240.24</ele>
        <time>2020-08-22T08:51:27Z</time>
      </trkpt>
      <trkpt lat="44.84056" lon="3.49531">
        <ele>1241.68</ele>
        <time>2020-08-22T08:51:39Z</time>
      </trkpt>
      <trkpt lat="44.84048" lon="3.49538">
        <ele>1243.12</ele>
        <time>2020-08-22T08:51:52Z</time>
      </trkpt>
      <trkpt lat="44.84038" lon="3.49541">
        <ele>1245.04</ele>
        <time>2020-08-22T08:52:07Z</time>
      </trkpt>
      <trkpt lat="44.84028" lon="3.49548">
        <ele>1246.49</ele>
        <time>2020-08-22T08:52:22Z</time>
      </trkpt>
      <trkpt lat="44.84018" lon="3.49556">
        <ele>1247.93</ele>
        <time>2020-08-22T08:52:37Z</time>
      </trkpt>
      <trkpt lat="44.84009" lon="3.49564">
        <ele>1250.33</ele>
        <time>2020-08-22T08:52:54Z</time>
      </trkpt>
      <trkpt lat="44.83997" lon="3.49569">
        <ele>1251.77</ele>
        <time>2020-08-22T08:53:08Z</time>
      </trkpt>
      <trkpt lat="44.83987" lon="3.4957">
        <ele>1253.22</ele>
        <time>2020-08-22T08:53:22Z</time>
      </trkpt>
      <trkpt lat="44.83977" lon="3.49569">
        <ele>1253.7</ele>
        <time>2020-08-22T08:53:35Z</time>
      </trkpt>
      <trkpt lat="44.83963" lon="3.49568">
        <ele>1254.66</ele>
        <time>2020-08-22T08:53:50Z</time>
      </trkpt>
      <trkpt lat="44.83954" lon="3.49564">
        <ele>1255.14</ele>
        <time>2020-08-22T08:54:03Z</time>
      </trkpt>
      <trkpt lat="44.83942" lon="3.49561">
        <ele>1255.62</ele>
        <time>2020-08-22T08:54:16Z</time>
      </trkpt>
      <trkpt lat="44.83936" lon="3.49559">
        <ele>1255.62</ele>
        <time>2020-08-22T08:54:23Z</time>
      </trkpt>
      <trkpt lat="44.83922" lon="3.49554">
        <ele>1256.58</ele>
        <time>2020-08-22T08:54:38Z</time>
      </trkpt>
      <trkpt lat="44.83912" lon="3.49553">
        <ele>1258.02</ele>
        <time>2020-08-22T08:54:51Z</time>
      </trkpt>
      <trkpt lat="44.83902" lon="3.49553">
        <ele>1259.46</ele>
        <time>2020-08-22T08:55:03Z</time>
      </trkpt>
      <trkpt lat="44.83891" lon="3.49549">
        <ele>1260.43</ele>
        <time>2020-08-22T08:55:15Z</time>
      </trkpt>
      <trkpt lat="44.83881" lon="3.49554">
        <ele>1262.35</ele>
        <time>2020-08-22T08:55:30Z</time>
      </trkpt>
      <trkpt lat="44.83873" lon="3.4956">
        <ele>1263.79</ele>
        <time>2020-08-22T08:55:42Z</time>
      </trkpt>
      <trkpt lat="44.83861" lon="3.49567">
        <ele>1265.23</ele>
        <time>2020-08-22T08:55:56Z</time>
      </trkpt>
      <trkpt lat="44.83855" lon="3.49565">
        <ele>1266.19</ele>
        <time>2020-08-22T08:56:10Z</time>
      </trkpt>
      <trkpt lat="44.83851" lon="3.49565">
        <ele>1266.67</ele>
        <time>2020-08-22T08:56:30Z</time>
      </trkpt>
      <trkpt lat="44.83837" lon="3.49567">
        <ele>1267.64</ele>
        <time>2020-08-22T08:56:47Z</time>
      </trkpt>
      <trkpt lat="44.83828" lon="3.49571">
        <ele>1269.08</ele>
        <time>2020-08-22T08:57:00Z</time>
      </trkpt>
      <trkpt lat="44.83817" lon="3.49573">
        <ele>1270.52</ele>
        <time>2020-08-22T08:57:14Z</time>
      </trkpt>
      <trkpt lat="44.83802" lon="3.49574">
        <ele>1271.48</ele>
        <time>2020-08-22T08:57:31Z</time>
      </trkpt>
      <trkpt lat="44.83781" lon="3.49578">
        <ele>1273.4</ele>
        <time>2020-08-22T08:57:52Z</time>
      </trkpt>
      <trkpt lat="44.83778" lon="3.49579">
        <ele>1273.4</ele>
        <time>2020-08-22T08:57:54Z</time>
      </trkpt>
      <trkpt lat="44.83774" lon="3.49581">
        <ele>1273.88</ele>
        <time>2020-08-22T08:57:58Z</time>
      </trkpt>
      <trkpt lat="44.83762" lon="3.49581">
        <ele>1275.33</ele>
        <time>2020-08-22T08:58:14Z</time>
      </trkpt>
      <trkpt lat="44.83751" lon="3.4958">
        <ele>1276.29</ele>
        <time>2020-08-22T08:58:27Z</time>
      </trkpt>
      <trkpt lat="44.83736" lon="3.4958">
        <ele>1277.73</ele>
        <time>2020-08-22T08:58:43Z</time>
      </trkpt>
      <trkpt lat="44.83724" lon="3.49574">
        <ele>1278.21</ele>
        <time>2020-08-22T08:58:58Z</time>
      </trkpt>
      <trkpt lat="44.83706" lon="3.49571">
        <ele>1279.17</ele>
        <time>2020-08-22T08:59:18Z</time>
      </trkpt>
      <trkpt lat="44.83692" lon="3.49568">
        <ele>1280.13</ele>
        <time>2020-08-22T08:59:35Z</time>
      </trkpt>
      <trkpt lat="44.83679" lon="3.49563">
        <ele>1280.61</ele>
        <time>2020-08-22T08:59:50Z</time>
      </trkpt>
      <trkpt lat="44.83668" lon="3.49573">
        <ele>1281.57</ele>
        <time>2020-08-22T09:00:07Z</time>
      </trkpt>
      <trkpt lat="44.83675" lon="3.49571">
        <ele>1282.06</ele>
        <time>2020-08-22T09:00:29Z</time>
      </trkpt>
      <trkpt lat="44.83664" lon="3.49563">
        <ele>1282.06</ele>
        <time>2020-08-22T09:00:42Z</time>
      </trkpt>
      <trkpt lat="44.83654" lon="3.49564">
        <ele>1283.02</ele>
        <time>2020-08-22T09:00:56Z</time>
      </trkpt>
      <trkpt lat="44.83643" lon="3.49572">
        <ele>1283.98</ele>
        <time>2020-08-22T09:01:14Z</time>
      </trkpt>
      <trkpt lat="44.83643" lon="3.49567">
        <ele>1283.98</ele>
        <time>2020-08-22T09:01:30Z</time>
      </trkpt>
      <trkpt lat="44.83641" lon="3.49569">
        <ele>1284.94</ele>
        <time>2020-08-22T09:01:57Z</time>
      </trkpt>
      <trkpt lat="44.83641" lon="3.49568">
        <ele>1284.94</ele>
        <time>2020-08-22T09:02:36Z</time>
      </trkpt>
      <trkpt lat="44.83638" lon="3.49566">
        <ele>1284.94</ele>
        <time>2020-08-22T09:03:15Z</time>
      </trkpt>
      <trkpt lat="44.83638" lon="3.49562">
        <ele>1285.42</ele>
        <time>2020-08-22T09:03:40Z</time>
      </trkpt>
      <trkpt lat="44.83642" lon="3.49566">
        <ele>1285.42</ele>
        <time>2020-08-22T09:04:15Z</time>
      </trkpt>
      <trkpt lat="44.83638" lon="3.49564">
        <ele>1285.9</ele>
        <time>2020-08-22T09:04:49Z</time>
      </trkpt>
      <trkpt lat="44.8364" lon="3.49562">
        <ele>1285.9</ele>
        <time>2020-08-22T09:05:18Z</time>
      </trkpt>
      <trkpt lat="44.8364" lon="3.49566">
        <ele>1286.38</ele>
        <time>2020-08-22T09:05:53Z</time>
      </trkpt>
      <trkpt lat="44.83642" lon="3.49566">
        <ele>1284.94</ele>
        <time>2020-08-22T09:06:35Z</time>
      </trkpt>
      <trkpt lat="44.83641" lon="3.49563">
        <ele>1285.42</ele>
        <time>2020-08-22T09:07:16Z</time>
      </trkpt>
      <trkpt lat="44.83644" lon="3.49566">
        <ele>1285.42</ele>
        <time>2020-08-22T09:07:48Z</time>
      </trkpt>
      <trkpt lat="44.83642" lon="3.49568">
        <ele>1285.42</ele>
        <time>2020-08-22T09:08:22Z</time>
      </trkpt>
      <trkpt lat="44.83644" lon="3.49569">
        <ele>1285.9</ele>
        <time>2020-08-22T09:08:54Z</time>
      </trkpt>
      <trkpt lat="44.83643" lon="3.49565">
        <ele>1285.9</ele>
        <time>2020-08-22T09:09:24Z</time>
      </trkpt>
      <trkpt lat="44.83642" lon="3.49559">
        <ele>1285.9</ele>
        <time>2020-08-22T09:09:59Z</time>
      </trkpt>
      <trkpt lat="44.83641" lon="3.49561">
        <ele>1286.38</ele>
        <time>2020-08-22T09:10:41Z</time>
      </trkpt>
      <trkpt lat="44.83638" lon="3.49568">
        <ele>1286.38</ele>
        <time>2020-08-22T09:11:24Z</time>
      </trkpt>
      <trkpt lat="44.83644" lon="3.49564">
        <ele>1286.86</ele>
        <time>2020-08-22T09:11:56Z</time>
      </trkpt>
      <trkpt lat="44.83645" lon="3.49566">
        <ele>1286.86</ele>
        <time>2020-08-22T09:12:41Z</time>
      </trkpt>
      <trkpt lat="44.83647" lon="3.49567">
        <ele>1286.86</ele>
        <time>2020-08-22T09:13:22Z</time>
      </trkpt>
      <trkpt lat="44.83654" lon="3.49566">
        <ele>1286.86</ele>
        <time>2020-08-22T09:13:55Z</time>
      </trkpt>
      <trkpt lat="44.83652" lon="3.49567">
        <ele>1286.86</ele>
        <time>2020-08-22T09:14:31Z</time>
      </trkpt>
      <trkpt lat="44.83654" lon="3.49565">
        <ele>1286.86</ele>
        <time>2020-08-22T09:14:57Z</time>
      </trkpt>
      <trkpt lat="44.83647" lon="3.49566">
        <ele>1286.86</ele>
        <time>2020-08-22T09:15:26Z</time>
      </trkpt>
      <trkpt lat="44.83643" lon="3.49567">
        <ele>1287.34</ele>
        <time>2020-08-22T09:15:59Z</time>
      </trkpt>
      <trkpt lat="44.8364" lon="3.49568">
        <ele>1287.34</ele>
        <time>2020-08-22T09:16:32Z</time>
      </trkpt>
      <trkpt lat="44.83643" lon="3.49567">
        <ele>1287.82</ele>
        <time>2020-08-22T09:17:10Z</time>
      </trkpt>
      <trkpt lat="44.83643" lon="3.4956">
        <ele>1287.82</ele>
        <time>2020-08-22T09:17:50Z</time>
      </trkpt>
      <trkpt lat="44.83641" lon="3.49565">
        <ele>1288.3</ele>
        <time>2020-08-22T09:18:23Z</time>
      </trkpt>
      <trkpt lat="44.83645" lon="3.49567">
        <ele>1288.3</ele>
        <time>2020-08-22T09:19:01Z</time>
      </trkpt>
      <trkpt lat="44.83643" lon="3.49566">
        <ele>1288.3</ele>
        <time>2020-08-22T09:19:33Z</time>
      </trkpt>
      <trkpt lat="44.83639" lon="3.49561">
        <ele>1288.78</ele>
        <time>2020-08-22T09:19:54Z</time>
      </trkpt>
      <trkpt lat="44.83631" lon="3.49555">
        <ele>1288.78</ele>
        <time>2020-08-22T09:20:10Z</time>
      </trkpt>
      <trkpt lat="44.83619" lon="3.49554">
        <ele>1288.78</ele>
        <time>2020-08-22T09:20:24Z</time>
      </trkpt>
      <trkpt lat="44.83608" lon="3.49553">
        <ele>1288.78</ele>
        <time>2020-08-22T09:20:36Z</time>
      </trkpt>
      <trkpt lat="44.83603" lon="3.49553">
        <ele>1288.78</ele>
        <time>2020-08-22T09:20:42Z</time>
      </trkpt>
      <trkpt lat="44.83589" lon="3.4955">
        <ele>1290.23</ele>
        <time>2020-08-22T09:20:57Z</time>
      </trkpt>
      <trkpt lat="44.83584" lon="3.49546">
        <ele>1290.23</ele>
        <time>2020-08-22T09:21:18Z</time>
      </trkpt>
      <trkpt lat="44.83568" lon="3.49545">
        <ele>1290.23</ele>
        <time>2020-08-22T09:21:35Z</time>
      </trkpt>
      <trkpt lat="44.83559" lon="3.49544">
        <ele>1290.71</ele>
        <time>2020-08-22T09:21:44Z</time>
      </trkpt>
      <trkpt lat="44.8355" lon="3.49546">
        <ele>1291.19</ele>
        <time>2020-08-22T09:21:58Z</time>
      </trkpt>
      <trkpt lat="44.83537" lon="3.49548">
        <ele>1291.67</ele>
        <time>2020-08-22T09:22:12Z</time>
      </trkpt>
      <trkpt lat="44.83529" lon="3.49558">
        <ele>1292.63</ele>
        <time>2020-08-22T09:22:26Z</time>
      </trkpt>
      <trkpt lat="44.83523" lon="3.49556">
        <ele>1293.11</ele>
        <time>2020-08-22T09:22:39Z</time>
      </trkpt>
      <trkpt lat="44.83519" lon="3.49562">
        <ele>1292.63</ele>
        <time>2020-08-22T09:22:51Z</time>
      </trkpt>
      <trkpt lat="44.83517" lon="3.49576">
        <ele>1294.55</ele>
        <time>2020-08-22T09:23:04Z</time>
      </trkpt>
      <trkpt lat="44.83514" lon="3.49596">
        <ele>1295.51</ele>
        <time>2020-08-22T09:23:20Z</time>
      </trkpt>
      <trkpt lat="44.83512" lon="3.49613">
        <ele>1297.44</ele>
        <time>2020-08-22T09:23:34Z</time>
      </trkpt>
      <trkpt lat="44.8351" lon="3.49624">
        <ele>1298.4</ele>
        <time>2020-08-22T09:23:44Z</time>
      </trkpt>
      <trkpt lat="44.83509" lon="3.49634">
        <ele>1299.84</ele>
        <time>2020-08-22T09:23:54Z</time>
      </trkpt>
      <trkpt lat="44.83507" lon="3.49648">
        <ele>1300.8</ele>
        <time>2020-08-22T09:24:06Z</time>
      </trkpt>
      <trkpt lat="44.83508" lon="3.49653">
        <ele>1300.8</ele>
        <time>2020-08-22T09:24:10Z</time>
      </trkpt>
      <trkpt lat="44.83507" lon="3.49661">
        <ele>1301.76</ele>
        <time>2020-08-22T09:24:25Z</time>
      </trkpt>
      <trkpt lat="44.83507" lon="3.49671">
        <ele>1301.76</ele>
        <time>2020-08-22T09:24:47Z</time>
      </trkpt>
      <trkpt lat="44.83506" lon="3.49684">
        <ele>1303.2</ele>
        <time>2020-08-22T09:24:58Z</time>
      </trkpt>
      <trkpt lat="44.83503" lon="3.49698">
        <ele>1305.13</ele>
        <time>2020-08-22T09:25:11Z</time>
      </trkpt>
      <trkpt lat="44.83504" lon="3.49713">
        <ele>1307.05</ele>
        <time>2020-08-22T09:25:26Z</time>
      </trkpt>
      <trkpt lat="44.83502" lon="3.49726">
        <ele>1309.45</ele>
        <time>2020-08-22T09:25:42Z</time>
      </trkpt>
      <trkpt lat="44.83502" lon="3.49742">
        <ele>1310.9</ele>
        <time>2020-08-22T09:25:56Z</time>
      </trkpt>
      <trkpt lat="44.83495" lon="3.49756">
        <ele>1312.82</ele>
        <time>2020-08-22T09:26:11Z</time>
      </trkpt>
      <trkpt lat="44.83481" lon="3.49762">
        <ele>1313.78</ele>
        <time>2020-08-22T09:26:26Z</time>
      </trkpt>
      <trkpt lat="44.8347" lon="3.49762">
        <ele>1313.78</ele>
        <time>2020-08-22T09:26:43Z</time>
      </trkpt>
      <trkpt lat="44.83467" lon="3.49761">
        <ele>1313.78</ele>
        <time>2020-08-22T09:27:03Z</time>
      </trkpt>
      <trkpt lat="44.83462" lon="3.49759">
        <ele>1313.78</ele>
        <time>2020-08-22T09:27:09Z</time>
      </trkpt>
      <trkpt lat="44.83447" lon="3.49758">
        <ele>1312.34</ele>
        <time>2020-08-22T09:27:25Z</time>
      </trkpt>
      <trkpt lat="44.83438" lon="3.49754">
        <ele>1311.86</ele>
        <time>2020-08-22T09:27:33Z</time>
      </trkpt>
      <trkpt lat="44.83434" lon="3.49752">
        <ele>1311.38</ele>
        <time>2020-08-22T09:27:36Z</time>
      </trkpt>
      <trkpt lat="44.83417" lon="3.49745">
        <ele>1310.41</ele>
        <time>2020-08-22T09:27:53Z</time>
      </trkpt>
      <trkpt lat="44.83405" lon="3.49741">
        <ele>1310.41</ele>
        <time>2020-08-22T09:28:05Z</time>
      </trkpt>
      <trkpt lat="44.83399" lon="3.49738">
        <ele>1309.93</ele>
        <time>2020-08-22T09:28:11Z</time>
      </trkpt>
      <trkpt lat="44.83393" lon="3.49736">
        <ele>1309.93</ele>
        <time>2020-08-22T09:28:16Z</time>
      </trkpt>
      <trkpt lat="44.83375" lon="3.49732">
        <ele>1309.93</ele>
        <time>2020-08-22T09:28:31Z</time>
      </trkpt>
      <trkpt lat="44.8336" lon="3.49724">
        <ele>1309.93</ele>
        <time>2020-08-22T09:28:44Z</time>
      </trkpt>
      <trkpt lat="44.83354" lon="3.49722">
        <ele>1309.93</ele>
        <time>2020-08-22T09:28:49Z</time>
      </trkpt>
      <trkpt lat="44.83346" lon="3.49718">
        <ele>1309.93</ele>
        <time>2020-08-22T09:28:58Z</time>
      </trkpt>
      <trkpt lat="44.83343" lon="3.49716">
        <ele>1309.93</ele>
        <time>2020-08-22T09:29:01Z</time>
      </trkpt>
      <trkpt lat="44.83335" lon="3.49714">
        <ele>1309.93</ele>
        <time>2020-08-22T09:29:08Z</time>
      </trkpt>
      <trkpt lat="44.83328" lon="3.49712">
        <ele>1309.93</ele>
        <time>2020-08-22T09:29:14Z</time>
      </trkpt>
      <trkpt lat="44.8332" lon="3.49709">
        <ele>1309.93</ele>
        <time>2020-08-22T09:29:22Z</time>
      </trkpt>
      <trkpt lat="44.83313" lon="3.49706">
        <ele>1311.38</ele>
        <time>2020-08-22T09:29:29Z</time>
      </trkpt>
      <trkpt lat="44.83303" lon="3.49705">
        <ele>1311.86</ele>
        <time>2020-08-22T09:29:37Z</time>
      </trkpt>
      <trkpt lat="44.83287" lon="3.49702">
        <ele>1312.82</ele>
        <time>2020-08-22T09:29:51Z</time>
      </trkpt>
      <trkpt lat="44.83277" lon="3.49698">
        <ele>1313.78</ele>
        <time>2020-08-22T09:30:01Z</time>
      </trkpt>
      <trkpt lat="44.83263" lon="3.49696">
        <ele>1314.74</ele>
        <time>2020-08-22T09:30:13Z</time>
      </trkpt>
      <trkpt lat="44.83251" lon="3.49694">
        <ele>1315.22</ele>
        <time>2020-08-22T09:30:27Z</time>
      </trkpt>
      <trkpt lat="44.83247" lon="3.49694">
        <ele>1315.7</ele>
        <time>2020-08-22T09:30:31Z</time>
      </trkpt>
      <trkpt lat="44.83235" lon="3.49692">
        <ele>1316.18</ele>
        <time>2020-08-22T09:30:42Z</time>
      </trkpt>
      <trkpt lat="44.8322" lon="3.49685">
        <ele>1317.14</ele>
        <time>2020-08-22T09:30:57Z</time>
      </trkpt>
      <trkpt lat="44.83202" lon="3.49682">
        <ele>1317.62</ele>
        <time>2020-08-22T09:31:14Z</time>
      </trkpt>
      <trkpt lat="44.83186" lon="3.49674">
        <ele>1318.1</ele>
        <time>2020-08-22T09:31:30Z</time>
      </trkpt>
      <trkpt lat="44.8317" lon="3.49664">
        <ele>1318.59</ele>
        <time>2020-08-22T09:31:47Z</time>
      </trkpt>
      <trkpt lat="44.83148" lon="3.49657">
        <ele>1319.07</ele>
        <time>2020-08-22T09:32:07Z</time>
      </trkpt>
      <trkpt lat="44.83125" lon="3.49651">
        <ele>1319.55</ele>
        <time>2020-08-22T09:32:28Z</time>
      </trkpt>
      <trkpt lat="44.83103" lon="3.49644">
        <ele>1319.55</ele>
        <time>2020-08-22T09:32:48Z</time>
      </trkpt>
      <trkpt lat="44.83083" lon="3.49637">
        <ele>1320.03</ele>
        <time>2020-08-22T09:33:06Z</time>
      </trkpt>
      <trkpt lat="44.83054" lon="3.49628">
        <ele>1320.51</ele>
        <time>2020-08-22T09:33:30Z</time>
      </trkpt>
      <trkpt lat="44.83052" lon="3.49627">
        <ele>1320.51</ele>
        <time>2020-08-22T09:33:32Z</time>
      </trkpt>
      <trkpt lat="44.83033" lon="3.4962">
        <ele>1320.99</ele>
        <time>2020-08-22T09:33:50Z</time>
      </trkpt>
      <trkpt lat="44.83013" lon="3.49614">
        <ele>1320.51</ele>
        <time>2020-08-22T09:34:09Z</time>
      </trkpt>
      <trkpt lat="44.83006" lon="3.49608">
        <ele>1320.51</ele>
        <time>2020-08-22T09:34:25Z</time>
      </trkpt>
      <trkpt lat="44.83006" lon="3.49604">
        <ele>1319.55</ele>
        <time>2020-08-22T09:34:31Z</time>
      </trkpt>
      <trkpt lat="44.8301" lon="3.49605">
        <ele>1319.55</ele>
        <time>2020-08-22T09:34:47Z</time>
      </trkpt>
      <trkpt lat="44.8301" lon="3.49604">
        <ele>1319.55</ele>
        <time>2020-08-22T09:35:15Z</time>
      </trkpt>
      <trkpt lat="44.83008" lon="3.49602">
        <ele>1319.55</ele>
        <time>2020-08-22T09:35:39Z</time>
      </trkpt>
      <trkpt lat="44.83014" lon="3.49597">
        <ele>1318.59</ele>
        <time>2020-08-22T09:35:51Z</time>
      </trkpt>
      <trkpt lat="44.83015" lon="3.49597">
        <ele>1318.59</ele>
        <time>2020-08-22T09:35:55Z</time>
      </trkpt>
      <trkpt lat="44.83022" lon="3.49597">
        <ele>1318.59</ele>
        <time>2020-08-22T09:36:08Z</time>
      </trkpt>
      <trkpt lat="44.83021" lon="3.49598">
        <ele>1318.59</ele>
        <time>2020-08-22T09:36:22Z</time>
      </trkpt>
      <trkpt lat="44.8302" lon="3.49597">
        <ele>1318.1</ele>
        <time>2020-08-22T09:36:58Z</time>
      </trkpt>
      <trkpt lat="44.83023" lon="3.49596">
        <ele>1318.59</ele>
        <time>2020-08-22T09:37:44Z</time>
      </trkpt>
      <trkpt lat="44.83019" lon="3.49596">
        <ele>1318.59</ele>
        <time>2020-08-22T09:38:20Z</time>
      </trkpt>
      <trkpt lat="44.83022" lon="3.49594">
        <ele>1318.59</ele>
        <time>2020-08-22T09:38:44Z</time>
      </trkpt>
      <trkpt lat="44.83023" lon="3.49596">
        <ele>1318.59</ele>
        <time>2020-08-22T09:39:19Z</time>
      </trkpt>
      <trkpt lat="44.8302" lon="3.49596">
        <ele>1318.59</ele>
        <time>2020-08-22T09:39:50Z</time>
      </trkpt>
      <trkpt lat="44.83019" lon="3.49598">
        <ele>1318.59</ele>
        <time>2020-08-22T09:40:16Z</time>
      </trkpt>
      <trkpt lat="44.83022" lon="3.49598">
        <ele>1318.59</ele>
        <time>2020-08-22T09:40:43Z</time>
      </trkpt>
      <trkpt lat="44.83024" lon="3.49597">
        <ele>1318.59</ele>
        <time>2020-08-22T09:41:25Z</time>
      </trkpt>
      <trkpt lat="44.83024" lon="3.49596">
        <ele>1319.07</ele>
        <time>2020-08-22T09:42:08Z</time>
      </trkpt>
      <trkpt lat="44.83024" lon="3.49599">
        <ele>1319.07</ele>
        <time>2020-08-22T09:42:48Z</time>
      </trkpt>
      <trkpt lat="44.83024" lon="3.49598">
        <ele>1318.59</ele>
        <time>2020-08-22T09:43:34Z</time>
      </trkpt>
      <trkpt lat="44.83024" lon="3.496">
        <ele>1318.59</ele>
        <time>2020-08-22T09:44:14Z</time>
      </trkpt>
      <trkpt lat="44.83022" lon="3.49602">
        <ele>1318.59</ele>
        <time>2020-08-22T09:44:53Z</time>
      </trkpt>
      <trkpt lat="44.83022" lon="3.49593">
        <ele>1318.59</ele>
        <time>2020-08-22T09:45:23Z</time>
      </trkpt>
      <trkpt lat="44.8302" lon="3.49597">
        <ele>1318.59</ele>
        <time>2020-08-22T09:45:41Z</time>
      </trkpt>
      <trkpt lat="44.83023" lon="3.49592">
        <ele>1318.59</ele>
        <time>2020-08-22T09:45:57Z</time>
      </trkpt>
      <trkpt lat="44.83022" lon="3.49595">
        <ele>1318.59</ele>
        <time>2020-08-22T09:46:14Z</time>
      </trkpt>
      <trkpt lat="44.83022" lon="3.49598">
        <ele>1318.59</ele>
        <time>2020-08-22T09:46:32Z</time>
      </trkpt>
      <trkpt lat="44.83021" lon="3.49602">
        <ele>1318.59</ele>
        <time>2020-08-22T09:46:52Z</time>
      </trkpt>
      <trkpt lat="44.83023" lon="3.49599">
        <ele>1318.59</ele>
        <time>2020-08-22T09:47:15Z</time>
      </trkpt>
      <trkpt lat="44.83023" lon="3.49597">
        <ele>1318.59</ele>
        <time>2020-08-22T09:47:52Z</time>
      </trkpt>
      <trkpt lat="44.83025" lon="3.49597">
        <ele>1318.59</ele>
        <time>2020-08-22T09:48:21Z</time>
      </trkpt>
      <trkpt lat="44.83023" lon="3.49597">
        <ele>1318.59</ele>
        <time>2020-08-22T09:48:55Z</time>
      </trkpt>
      <trkpt lat="44.83022" lon="3.49598">
        <ele>1318.59</ele>
        <time>2020-08-22T09:49:19Z</time>
      </trkpt>
      <trkpt lat="44.83015" lon="3.49599">
        <ele>1318.59</ele>
        <time>2020-08-22T09:49:36Z</time>
      </trkpt>
      <trkpt lat="44.8301" lon="3.49601">
        <ele>1318.59</ele>
        <time>2020-08-22T09:49:48Z</time>
      </trkpt>
      <trkpt lat="44.83004" lon="3.49607">
        <ele>1318.59</ele>
        <time>2020-08-22T09:50:10Z</time>
      </trkpt>
      <trkpt lat="44.83002" lon="3.4961">
        <ele>1320.03</ele>
        <time>2020-08-22T09:50:16Z</time>
      </trkpt>
      <trkpt lat="44.82998" lon="3.49607">
        <ele>1320.03</ele>
        <time>2020-08-22T09:50:34Z</time>
      </trkpt>
      <trkpt lat="44.82998" lon="3.49607">
        <ele>1320.03</ele>
        <time>2020-08-22T09:51:13Z</time>
      </trkpt>
      <trkpt lat="44.82996" lon="3.49609">
        <ele>1320.03</ele>
        <time>2020-08-22T09:51:42Z</time>
      </trkpt>
      <trkpt lat="44.82993" lon="3.49605">
        <ele>1320.03</ele>
        <time>2020-08-22T09:52:20Z</time>
      </trkpt>
      <trkpt lat="44.82993" lon="3.49613">
        <ele>1320.03</ele>
        <time>2020-08-22T09:53:03Z</time>
      </trkpt>
      <trkpt lat="44.82997" lon="3.49608">
        <ele>1320.51</ele>
        <time>2020-08-22T09:53:42Z</time>
      </trkpt>
      <trkpt lat="44.83005" lon="3.49602">
        <ele>1320.51</ele>
        <time>2020-08-22T09:53:59Z</time>
      </trkpt>
      <trkpt lat="44.83006" lon="3.49598">
        <ele>1319.07</ele>
        <time>2020-08-22T09:54:08Z</time>
      </trkpt>
      <trkpt lat="44.83006" lon="3.49597">
        <ele>1318.59</ele>
        <time>2020-08-22T09:54:09Z</time>
      </trkpt>
      <trkpt lat="44.83008" lon="3.49594">
        <ele>1318.59</ele>
        <time>2020-08-22T09:54:12Z</time>
      </trkpt>
      <trkpt lat="44.83021" lon="3.49579">
        <ele>1318.59</ele>
        <time>2020-08-22T09:54:31Z</time>
      </trkpt>
      <trkpt lat="44.83032" lon="3.4957">
        <ele>1317.62</ele>
        <time>2020-08-22T09:54:47Z</time>
      </trkpt>
      <trkpt lat="44.83032" lon="3.49572">
        <ele>1317.62</ele>
        <time>2020-08-22T09:55:06Z</time>
      </trkpt>
      <trkpt lat="44.83039" lon="3.49564">
        <ele>1317.14</ele>
        <time>2020-08-22T09:55:21Z</time>
      </trkpt>
      <trkpt lat="44.8305" lon="3.49553">
        <ele>1316.66</ele>
        <time>2020-08-22T09:55:36Z</time>
      </trkpt>
      <trkpt lat="44.83052" lon="3.4955">
        <ele>1316.18</ele>
        <time>2020-08-22T09:55:39Z</time>
      </trkpt>
      <trkpt lat="44.83055" lon="3.49548">
        <ele>1316.18</ele>
        <time>2020-08-22T09:55:42Z</time>
      </trkpt>
      <trkpt lat="44.8307" lon="3.4952">
        <ele>1315.7</ele>
        <time>2020-08-22T09:56:05Z</time>
      </trkpt>
      <trkpt lat="44.83079" lon="3.49486">
        <ele>1315.22</ele>
        <time>2020-08-22T09:56:29Z</time>
      </trkpt>
      <trkpt lat="44.83081" lon="3.49454">
        <ele>1314.26</ele>
        <time>2020-08-22T09:56:49Z</time>
      </trkpt>
      <trkpt lat="44.83082" lon="3.49419">
        <ele>1312.82</ele>
        <time>2020-08-22T09:57:12Z</time>
      </trkpt>
      <trkpt lat="44.83078" lon="3.49387">
        <ele>1311.38</ele>
        <time>2020-08-22T09:57:34Z</time>
      </trkpt>
      <trkpt lat="44.83065" lon="3.49356">
        <ele>1310.41</ele>
        <time>2020-08-22T09:57:57Z</time>
      </trkpt>
      <trkpt lat="44.8305" lon="3.49328">
        <ele>1308.97</ele>
        <time>2020-08-22T09:58:19Z</time>
      </trkpt>
      <trkpt lat="44.83038" lon="3.49295">
        <ele>1306.57</ele>
        <time>2020-08-22T09:58:43Z</time>
      </trkpt>
      <trkpt lat="44.83027" lon="3.49266">
        <ele>1305.61</ele>
        <time>2020-08-22T09:59:04Z</time>
      </trkpt>
      <trkpt lat="44.83021" lon="3.49245">
        <ele>1304.17</ele>
        <time>2020-08-22T09:59:24Z</time>
      </trkpt>
      <trkpt lat="44.83021" lon="3.49232">
        <ele>1303.69</ele>
        <time>2020-08-22T09:59:38Z</time>
      </trkpt>
      <trkpt lat="44.83015" lon="3.4923">
        <ele>1303.69</ele>
        <time>2020-08-22T09:59:54Z</time>
      </trkpt>
      <trkpt lat="44.83003" lon="3.49211">
        <ele>1300.32</ele>
        <time>2020-08-22T10:00:14Z</time>
      </trkpt>
      <trkpt lat="44.82993" lon="3.49188">
        <ele>1298.88</ele>
        <time>2020-08-22T10:00:32Z</time>
      </trkpt>
      <trkpt lat="44.82975" lon="3.49159">
        <ele>1296.48</ele>
        <time>2020-08-22T10:00:56Z</time>
      </trkpt>
      <trkpt lat="44.8295" lon="3.49138">
        <ele>1293.59</ele>
        <time>2020-08-22T10:01:21Z</time>
      </trkpt>
      <trkpt lat="44.82924" lon="3.49119">
        <ele>1291.67</ele>
        <time>2020-08-22T10:01:47Z</time>
      </trkpt>
      <trkpt lat="44.82893" lon="3.49106">
        <ele>1289.75</ele>
        <time>2020-08-22T10:02:15Z</time>
      </trkpt>
      <trkpt lat="44.8287" lon="3.49095">
        <ele>1289.75</ele>
        <time>2020-08-22T10:02:36Z</time>
      </trkpt>
      <trkpt lat="44.82843" lon="3.49086">
        <ele>1290.23</ele>
        <time>2020-08-22T10:03:00Z</time>
      </trkpt>
      <trkpt lat="44.82842" lon="3.49086">
        <ele>1290.23</ele>
        <time>2020-08-22T10:03:01Z</time>
      </trkpt>
      <trkpt lat="44.82825" lon="3.4908">
        <ele>1291.19</ele>
        <time>2020-08-22T10:03:17Z</time>
      </trkpt>
      <trkpt lat="44.82809" lon="3.49072">
        <ele>1292.63</ele>
        <time>2020-08-22T10:03:33Z</time>
      </trkpt>
      <trkpt lat="44.8279" lon="3.49067">
        <ele>1294.07</ele>
        <time>2020-08-22T10:03:51Z</time>
      </trkpt>
      <trkpt lat="44.82774" lon="3.49076">
        <ele>1295.99</ele>
        <time>2020-08-22T10:04:08Z</time>
      </trkpt>
      <trkpt lat="44.8276" lon="3.49088">
        <ele>1297.44</ele>
        <time>2020-08-22T10:04:24Z</time>
      </trkpt>
      <trkpt lat="44.82744" lon="3.49103">
        <ele>1298.88</ele>
        <time>2020-08-22T10:04:41Z</time>
      </trkpt>
      <trkpt lat="44.8273" lon="3.49117">
        <ele>1299.84</ele>
        <time>2020-08-22T10:04:57Z</time>
      </trkpt>
      <trkpt lat="44.82713" lon="3.49126">
        <ele>1300.32</ele>
        <time>2020-08-22T10:05:14Z</time>
      </trkpt>
      <trkpt lat="44.82692" lon="3.49122">
        <ele>1300.8</ele>
        <time>2020-08-22T10:05:33Z</time>
      </trkpt>
      <trkpt lat="44.82679" lon="3.49118">
        <ele>1300.8</ele>
        <time>2020-08-22T10:05:46Z</time>
      </trkpt>
      <trkpt lat="44.82657" lon="3.4911">
        <ele>1300.8</ele>
        <time>2020-08-22T10:06:06Z</time>
      </trkpt>
      <trkpt lat="44.82651" lon="3.49109">
        <ele>1299.36</ele>
        <time>2020-08-22T10:06:12Z</time>
      </trkpt>
      <trkpt lat="44.82632" lon="3.49103">
        <ele>1298.4</ele>
        <time>2020-08-22T10:06:30Z</time>
      </trkpt>
      <trkpt lat="44.82613" lon="3.49094">
        <ele>1297.92</ele>
        <time>2020-08-22T10:06:48Z</time>
      </trkpt>
      <trkpt lat="44.82592" lon="3.49082">
        <ele>1297.44</ele>
        <time>2020-08-22T10:07:08Z</time>
      </trkpt>
      <trkpt lat="44.82575" lon="3.49071">
        <ele>1296.96</ele>
        <time>2020-08-22T10:07:26Z</time>
      </trkpt>
      <trkpt lat="44.82554" lon="3.49059">
        <ele>1295.99</ele>
        <time>2020-08-22T10:07:46Z</time>
      </trkpt>
      <trkpt lat="44.82534" lon="3.49046">
        <ele>1295.51</ele>
        <time>2020-08-22T10:08:06Z</time>
      </trkpt>
      <trkpt lat="44.82516" lon="3.49035">
        <ele>1295.03</ele>
        <time>2020-08-22T10:08:25Z</time>
      </trkpt>
      <trkpt lat="44.82504" lon="3.49031">
        <ele>1295.03</ele>
        <time>2020-08-22T10:08:40Z</time>
      </trkpt>
      <trkpt lat="44.82488" lon="3.49018">
        <ele>1294.55</ele>
        <time>2020-08-22T10:08:58Z</time>
      </trkpt>
      <trkpt lat="44.82482" lon="3.49007">
        <ele>1294.55</ele>
        <time>2020-08-22T10:09:13Z</time>
      </trkpt>
      <trkpt lat="44.82471" lon="3.48982">
        <ele>1294.55</ele>
        <time>2020-08-22T10:09:30Z</time>
      </trkpt>
      <trkpt lat="44.82464" lon="3.48958">
        <ele>1294.55</ele>
        <time>2020-08-22T10:09:47Z</time>
      </trkpt>
      <trkpt lat="44.8246" lon="3.48948">
        <ele>1294.55</ele>
        <time>2020-08-22T10:10:00Z</time>
      </trkpt>
      <trkpt lat="44.82461" lon="3.48944">
        <ele>1294.55</ele>
        <time>2020-08-22T10:10:22Z</time>
      </trkpt>
      <trkpt lat="44.82459" lon="3.48944">
        <ele>1294.55</ele>
        <time>2020-08-22T10:11:02Z</time>
      </trkpt>
      <trkpt lat="44.82455" lon="3.48934">
        <ele>1295.99</ele>
        <time>2020-08-22T10:11:10Z</time>
      </trkpt>
      <trkpt lat="44.82453" lon="3.48929">
        <ele>1295.99</ele>
        <time>2020-08-22T10:11:14Z</time>
      </trkpt>
      <trkpt lat="44.82451" lon="3.48906">
        <ele>1296.48</ele>
        <time>2020-08-22T10:11:31Z</time>
      </trkpt>
      <trkpt lat="44.82453" lon="3.4888">
        <ele>1296.48</ele>
        <time>2020-08-22T10:11:48Z</time>
      </trkpt>
      <trkpt lat="44.82456" lon="3.48856">
        <ele>1296.48</ele>
        <time>2020-08-22T10:12:06Z</time>
      </trkpt>
      <trkpt lat="44.82456" lon="3.48828">
        <ele>1296.48</ele>
        <time>2020-08-22T10:12:23Z</time>
      </trkpt>
      <trkpt lat="44.82456" lon="3.48824">
        <ele>1296.48</ele>
        <time>2020-08-22T10:12:26Z</time>
      </trkpt>
      <trkpt lat="44.82456" lon="3.48795">
        <ele>1295.03</ele>
        <time>2020-08-22T10:12:48Z</time>
      </trkpt>
      <trkpt lat="44.82456" lon="3.48779">
        <ele>1294.55</ele>
        <time>2020-08-22T10:13:02Z</time>
      </trkpt>
      <trkpt lat="44.82452" lon="3.4877">
        <ele>1293.59</ele>
        <time>2020-08-22T10:13:20Z</time>
      </trkpt>
      <trkpt lat="44.82445" lon="3.48762">
        <ele>1293.59</ele>
        <time>2020-08-22T10:13:37Z</time>
      </trkpt>
      <trkpt lat="44.82439" lon="3.48755">
        <ele>1293.11</ele>
        <time>2020-08-22T10:13:52Z</time>
      </trkpt>
      <trkpt lat="44.82433" lon="3.48746">
        <ele>1292.15</ele>
        <time>2020-08-22T10:14:06Z</time>
      </trkpt>
      <trkpt lat="44.82431" lon="3.48743">
        <ele>1291.67</ele>
        <time>2020-08-22T10:14:23Z</time>
      </trkpt>
      <trkpt lat="44.82424" lon="3.48748">
        <ele>1291.67</ele>
        <time>2020-08-22T10:14:44Z</time>
      </trkpt>
      <trkpt lat="44.82426" lon="3.48756">
        <ele>1291.67</ele>
        <time>2020-08-22T10:14:59Z</time>
      </trkpt>
      <trkpt lat="44.82428" lon="3.48756">
        <ele>1291.67</ele>
        <time>2020-08-22T10:15:20Z</time>
      </trkpt>
      <trkpt lat="44.82427" lon="3.48755">
        <ele>1291.67</ele>
        <time>2020-08-22T10:15:55Z</time>
      </trkpt>
      <trkpt lat="44.82428" lon="3.48755">
        <ele>1291.19</ele>
        <time>2020-08-22T10:16:18Z</time>
      </trkpt>
      <trkpt lat="44.82427" lon="3.48755">
        <ele>1291.19</ele>
        <time>2020-08-22T10:16:47Z</time>
      </trkpt>
      <trkpt lat="44.82427" lon="3.48755">
        <ele>1293.11</ele>
        <time>2020-08-22T10:16:49Z</time>
      </trkpt>
      <trkpt lat="44.82417" lon="3.48752">
        <ele>1291.67</ele>
        <time>2020-08-22T10:17:07Z</time>
      </trkpt>
      <trkpt lat="44.824" lon="3.48754">
        <ele>1290.71</ele>
        <time>2020-08-22T10:17:24Z</time>
      </trkpt>
      <trkpt lat="44.8238" lon="3.48758">
        <ele>1289.75</ele>
        <time>2020-08-22T10:17:44Z</time>
      </trkpt>
      <trkpt lat="44.82371" lon="3.48758">
        <ele>1289.27</ele>
        <time>2020-08-22T10:17:53Z</time>
      </trkpt>
      <trkpt lat="44.82366" lon="3.48757">
        <ele>1288.78</ele>
        <time>2020-08-22T10:17:58Z</time>
      </trkpt>
      <trkpt lat="44.82346" lon="3.48758">
        <ele>1288.3</ele>
        <time>2020-08-22T10:18:17Z</time>
      </trkpt>
      <trkpt lat="44.8233" lon="3.48754">
        <ele>1288.3</ele>
        <time>2020-08-22T10:18:32Z</time>
      </trkpt>
      <trkpt lat="44.82321" lon="3.48744">
        <ele>1288.3</ele>
        <time>2020-08-22T10:18:47Z</time>
      </trkpt>
      <trkpt lat="44.82316" lon="3.48737">
        <ele>1287.82</ele>
        <time>2020-08-22T10:19:16Z</time>
      </trkpt>
      <trkpt lat="44.82314" lon="3.48726">
        <ele>1287.82</ele>
        <time>2020-08-22T10:19:28Z</time>
      </trkpt>
      <trkpt lat="44.82314" lon="3.48718">
        <ele>1289.27</ele>
        <time>2020-08-22T10:19:34Z</time>
      </trkpt>
      <trkpt lat="44.82314" lon="3.48713">
        <ele>1289.27</ele>
        <time>2020-08-22T10:19:49Z</time>
      </trkpt>
      <trkpt lat="44.82316" lon="3.48702">
        <ele>1289.75</ele>
        <time>2020-08-22T10:19:59Z</time>
      </trkpt>
      <trkpt lat="44.82318" lon="3.48686">
        <ele>1290.23</ele>
        <time>2020-08-22T10:20:12Z</time>
      </trkpt>
      <trkpt lat="44.82318" lon="3.48673">
        <ele>1290.71</ele>
        <time>2020-08-22T10:20:27Z</time>
      </trkpt>
      <trkpt lat="44.82321" lon="3.48659">
        <ele>1291.19</ele>
        <time>2020-08-22T10:20:38Z</time>
      </trkpt>
      <trkpt lat="44.82328" lon="3.48643">
        <ele>1291.67</ele>
        <time>2020-08-22T10:20:55Z</time>
      </trkpt>
      <trkpt lat="44.82333" lon="3.48624">
        <ele>1292.15</ele>
        <time>2020-08-22T10:21:09Z</time>
      </trkpt>
      <trkpt lat="44.82328" lon="3.48595">
        <ele>1293.11</ele>
        <time>2020-08-22T10:21:25Z</time>
      </trkpt>
      <trkpt lat="44.8233" lon="3.48568">
        <ele>1293.59</ele>
        <time>2020-08-22T10:21:41Z</time>
      </trkpt>
      <trkpt lat="44.82334" lon="3.48548">
        <ele>1294.07</ele>
        <time>2020-08-22T10:21:55Z</time>
      </trkpt>
      <trkpt lat="44.82334" lon="3.48546">
        <ele>1294.07</ele>
        <time>2020-08-22T10:21:57Z</time>
      </trkpt>
      <trkpt lat="44.82335" lon="3.48539">
        <ele>1294.07</ele>
        <time>2020-08-22T10:22:01Z</time>
      </trkpt>
      <trkpt lat="44.8234" lon="3.4852">
        <ele>1294.55</ele>
        <time>2020-08-22T10:22:15Z</time>
      </trkpt>
      <trkpt lat="44.82339" lon="3.48513">
        <ele>1294.55</ele>
        <time>2020-08-22T10:22:19Z</time>
      </trkpt>
      <trkpt lat="44.82338" lon="3.48508">
        <ele>1294.55</ele>
        <time>2020-08-22T10:22:22Z</time>
      </trkpt>
      <trkpt lat="44.82339" lon="3.48495">
        <ele>1295.03</ele>
        <time>2020-08-22T10:22:30Z</time>
      </trkpt>
      <trkpt lat="44.82346" lon="3.48461">
        <ele>1295.51</ele>
        <time>2020-08-22T10:22:48Z</time>
      </trkpt>
      <trkpt lat="44.82346" lon="3.48458">
        <ele>1295.03</ele>
        <time>2020-08-22T10:22:50Z</time>
      </trkpt>
      <trkpt lat="44.82344" lon="3.48441">
        <ele>1295.51</ele>
        <time>2020-08-22T10:23:02Z</time>
      </trkpt>
      <trkpt lat="44.82338" lon="3.48421">
        <ele>1295.99</ele>
        <time>2020-08-22T10:23:18Z</time>
      </trkpt>
      <trkpt lat="44.82337" lon="3.48405">
        <ele>1296.48</ele>
        <time>2020-08-22T10:23:33Z</time>
      </trkpt>
      <trkpt lat="44.82328" lon="3.48381">
        <ele>1297.44</ele>
        <time>2020-08-22T10:23:48Z</time>
      </trkpt>
      <trkpt lat="44.82317" lon="3.48354">
        <ele>1297.44</ele>
        <time>2020-08-22T10:24:05Z</time>
      </trkpt>
      <trkpt lat="44.82313" lon="3.48336">
        <ele>1297.44</ele>
        <time>2020-08-22T10:24:19Z</time>
      </trkpt>
      <trkpt lat="44.82306" lon="3.48312">
        <ele>1297.44</ele>
        <time>2020-08-22T10:24:35Z</time>
      </trkpt>
      <trkpt lat="44.82294" lon="3.48295">
        <ele>1297.44</ele>
        <time>2020-08-22T10:24:52Z</time>
      </trkpt>
      <trkpt lat="44.82275" lon="3.48269">
        <ele>1297.44</ele>
        <time>2020-08-22T10:25:10Z</time>
      </trkpt>
      <trkpt lat="44.82258" lon="3.4825">
        <ele>1297.44</ele>
        <time>2020-08-22T10:25:27Z</time>
      </trkpt>
      <trkpt lat="44.8224" lon="3.48231">
        <ele>1296.96</ele>
        <time>2020-08-22T10:25:47Z</time>
      </trkpt>
      <trkpt lat="44.82234" lon="3.48225">
        <ele>1295.99</ele>
        <time>2020-08-22T10:25:54Z</time>
      </trkpt>
      <trkpt lat="44.8222" lon="3.48209">
        <ele>1295.51</ele>
        <time>2020-08-22T10:26:12Z</time>
      </trkpt>
      <trkpt lat="44.82214" lon="3.48198">
        <ele>1295.03</ele>
        <time>2020-08-22T10:26:21Z</time>
      </trkpt>
      <trkpt lat="44.82206" lon="3.4817">
        <ele>1294.55</ele>
        <time>2020-08-22T10:26:39Z</time>
      </trkpt>
      <trkpt lat="44.82202" lon="3.48148">
        <ele>1294.55</ele>
        <time>2020-08-22T10:26:53Z</time>
      </trkpt>
      <trkpt lat="44.82197" lon="3.48119">
        <ele>1294.55</ele>
        <time>2020-08-22T10:27:11Z</time>
      </trkpt>
      <trkpt lat="44.82201" lon="3.4809">
        <ele>1294.55</ele>
        <time>2020-08-22T10:27:29Z</time>
      </trkpt>
      <trkpt lat="44.82206" lon="3.48077">
        <ele>1294.55</ele>
        <time>2020-08-22T10:27:44Z</time>
      </trkpt>
      <trkpt lat="44.82207" lon="3.48075">
        <ele>1294.55</ele>
        <time>2020-08-22T10:27:46Z</time>
      </trkpt>
      <trkpt lat="44.82209" lon="3.48068">
        <ele>1294.55</ele>
        <time>2020-08-22T10:27:51Z</time>
      </trkpt>
      <trkpt lat="44.82209" lon="3.48065">
        <ele>1294.55</ele>
        <time>2020-08-22T10:27:53Z</time>
      </trkpt>
      <trkpt lat="44.82213" lon="3.48055">
        <ele>1296.48</ele>
        <time>2020-08-22T10:28:01Z</time>
      </trkpt>
      <trkpt lat="44.82219" lon="3.48041">
        <ele>1296.48</ele>
        <time>2020-08-22T10:28:12Z</time>
      </trkpt>
      <trkpt lat="44.82224" lon="3.4802">
        <ele>1296.96</ele>
        <time>2020-08-22T10:28:27Z</time>
      </trkpt>
      <trkpt lat="44.82229" lon="3.48008">
        <ele>1297.44</ele>
        <time>2020-08-22T10:28:34Z</time>
      </trkpt>
      <trkpt lat="44.82234" lon="3.47981">
        <ele>1297.44</ele>
        <time>2020-08-22T10:28:52Z</time>
      </trkpt>
      <trkpt lat="44.82236" lon="3.47961">
        <ele>1297.44</ele>
        <time>2020-08-22T10:29:06Z</time>
      </trkpt>
      <trkpt lat="44.82235" lon="3.47937">
        <ele>1297.44</ele>
        <time>2020-08-22T10:29:22Z</time>
      </trkpt>
      <trkpt lat="44.82234" lon="3.47932">
        <ele>1297.44</ele>
        <time>2020-08-22T10:29:25Z</time>
      </trkpt>
      <trkpt lat="44.82226" lon="3.47906">
        <ele>1296.96</ele>
        <time>2020-08-22T10:29:41Z</time>
      </trkpt>
      <trkpt lat="44.82223" lon="3.47891">
        <ele>1297.44</ele>
        <time>2020-08-22T10:29:50Z</time>
      </trkpt>
      <trkpt lat="44.82221" lon="3.47873">
        <ele>1297.44</ele>
        <time>2020-08-22T10:30:03Z</time>
      </trkpt>
      <trkpt lat="44.82222" lon="3.47849">
        <ele>1297.44</ele>
        <time>2020-08-22T10:30:19Z</time>
      </trkpt>
      <trkpt lat="44.82224" lon="3.4784">
        <ele>1296.96</ele>
        <time>2020-08-22T10:30:25Z</time>
      </trkpt>
      <trkpt lat="44.82236" lon="3.47812">
        <ele>1296.96</ele>
        <time>2020-08-22T10:30:45Z</time>
      </trkpt>
      <trkpt lat="44.82247" lon="3.47798">
        <ele>1296.96</ele>
        <time>2020-08-22T10:31:00Z</time>
      </trkpt>
      <trkpt lat="44.82264" lon="3.47789">
        <ele>1297.92</ele>
        <time>2020-08-22T10:31:16Z</time>
      </trkpt>
      <trkpt lat="44.82268" lon="3.47788">
        <ele>1299.36</ele>
        <time>2020-08-22T10:31:20Z</time>
      </trkpt>
      <trkpt lat="44.82283" lon="3.47781">
        <ele>1299.36</ele>
        <time>2020-08-22T10:31:36Z</time>
      </trkpt>
      <trkpt lat="44.82284" lon="3.4778">
        <ele>1299.36</ele>
        <time>2020-08-22T10:31:55Z</time>
      </trkpt>
      <trkpt lat="44.8229" lon="3.47769">
        <ele>1299.36</ele>
        <time>2020-08-22T10:32:08Z</time>
      </trkpt>
      <trkpt lat="44.82303" lon="3.47748">
        <ele>1299.36</ele>
        <time>2020-08-22T10:32:26Z</time>
      </trkpt>
      <trkpt lat="44.82307" lon="3.47742">
        <ele>1299.36</ele>
        <time>2020-08-22T10:32:31Z</time>
      </trkpt>
      <trkpt lat="44.82318" lon="3.47716">
        <ele>1299.36</ele>
        <time>2020-08-22T10:32:50Z</time>
      </trkpt>
      <trkpt lat="44.82325" lon="3.47696">
        <ele>1299.84</ele>
        <time>2020-08-22T10:33:06Z</time>
      </trkpt>
      <trkpt lat="44.82331" lon="3.47682">
        <ele>1300.32</ele>
        <time>2020-08-22T10:33:17Z</time>
      </trkpt>
      <trkpt lat="44.82336" lon="3.47656">
        <ele>1301.28</ele>
        <time>2020-08-22T10:33:34Z</time>
      </trkpt>
      <trkpt lat="44.82336" lon="3.47634">
        <ele>1301.28</ele>
        <time>2020-08-22T10:33:51Z</time>
      </trkpt>
      <trkpt lat="44.82335" lon="3.47631">
        <ele>1301.28</ele>
        <time>2020-08-22T10:33:53Z</time>
      </trkpt>
      <trkpt lat="44.82336" lon="3.47612">
        <ele>1301.76</ele>
        <time>2020-08-22T10:34:03Z</time>
      </trkpt>
      <trkpt lat="44.82331" lon="3.47585">
        <ele>1301.76</ele>
        <time>2020-08-22T10:34:20Z</time>
      </trkpt>
      <trkpt lat="44.82326" lon="3.47566">
        <ele>1301.76</ele>
        <time>2020-08-22T10:34:33Z</time>
      </trkpt>
      <trkpt lat="44.82324" lon="3.47553">
        <ele>1301.76</ele>
        <time>2020-08-22T10:34:42Z</time>
      </trkpt>
      <trkpt lat="44.82327" lon="3.47526">
        <ele>1300.32</ele>
        <time>2020-08-22T10:34:58Z</time>
      </trkpt>
      <trkpt lat="44.82327" lon="3.47524">
        <ele>1300.32</ele>
        <time>2020-08-22T10:34:59Z</time>
      </trkpt>
      <trkpt lat="44.82335" lon="3.47502">
        <ele>1299.84</ele>
        <time>2020-08-22T10:35:14Z</time>
      </trkpt>
      <trkpt lat="44.82346" lon="3.47478">
        <ele>1299.36</ele>
        <time>2020-08-22T10:35:32Z</time>
      </trkpt>
      <trkpt lat="44.82356" lon="3.47463">
        <ele>1300.8</ele>
        <time>2020-08-22T10:35:47Z</time>
      </trkpt>
      <trkpt lat="44.82357" lon="3.47462">
        <ele>1300.8</ele>
        <time>2020-08-22T10:35:48Z</time>
      </trkpt>
      <trkpt lat="44.82375" lon="3.47441">
        <ele>1300.8</ele>
        <time>2020-08-22T10:36:07Z</time>
      </trkpt>
      <trkpt lat="44.82389" lon="3.47424">
        <ele>1300.8</ele>
        <time>2020-08-22T10:36:23Z</time>
      </trkpt>
      <trkpt lat="44.82399" lon="3.47405">
        <ele>1300.8</ele>
        <time>2020-08-22T10:36:36Z</time>
      </trkpt>
      <trkpt lat="44.8241" lon="3.47379">
        <ele>1301.28</ele>
        <time>2020-08-22T10:36:55Z</time>
      </trkpt>
      <trkpt lat="44.8241" lon="3.47377">
        <ele>1301.28</ele>
        <time>2020-08-22T10:36:56Z</time>
      </trkpt>
      <trkpt lat="44.82418" lon="3.47352">
        <ele>1302.24</ele>
        <time>2020-08-22T10:37:13Z</time>
      </trkpt>
      <trkpt lat="44.8242" lon="3.47346">
        <ele>1302.24</ele>
        <time>2020-08-22T10:37:17Z</time>
      </trkpt>
      <trkpt lat="44.82422" lon="3.47341">
        <ele>1302.24</ele>
        <time>2020-08-22T10:37:21Z</time>
      </trkpt>
      <trkpt lat="44.82429" lon="3.47322">
        <ele>1303.2</ele>
        <time>2020-08-22T10:37:35Z</time>
      </trkpt>
      <trkpt lat="44.82431" lon="3.47315">
        <ele>1303.2</ele>
        <time>2020-08-22T10:37:40Z</time>
      </trkpt>
      <trkpt lat="44.82437" lon="3.47292">
        <ele>1303.69</ele>
        <time>2020-08-22T10:37:56Z</time>
      </trkpt>
      <trkpt lat="44.82442" lon="3.47279">
        <ele>1304.65</ele>
        <time>2020-08-22T10:38:07Z</time>
      </trkpt>
      <trkpt lat="44.82446" lon="3.4726">
        <ele>1305.13</ele>
        <time>2020-08-22T10:38:21Z</time>
      </trkpt>
      <trkpt lat="44.82448" lon="3.47252">
        <ele>1306.09</ele>
        <time>2020-08-22T10:38:28Z</time>
      </trkpt>
      <trkpt lat="44.82452" lon="3.47239">
        <ele>1307.05</ele>
        <time>2020-08-22T10:38:40Z</time>
      </trkpt>
      <trkpt lat="44.82454" lon="3.47229">
        <ele>1308.01</ele>
        <time>2020-08-22T10:38:51Z</time>
      </trkpt>
      <trkpt lat="44.82456" lon="3.47225">
        <ele>1308.49</ele>
        <time>2020-08-22T10:39:07Z</time>
      </trkpt>
      <trkpt lat="44.82469" lon="3.47221">
        <ele>1308.49</ele>
        <time>2020-08-22T10:39:38Z</time>
      </trkpt>
      <trkpt lat="44.82472" lon="3.47216">
        <ele>1308.49</ele>
        <time>2020-08-22T10:40:16Z</time>
      </trkpt>
      <trkpt lat="44.82469" lon="3.47222">
        <ele>1308.49</ele>
        <time>2020-08-22T10:40:50Z</time>
      </trkpt>
      <trkpt lat="44.82474" lon="3.47222">
        <ele>1308.97</ele>
        <time>2020-08-22T10:41:20Z</time>
      </trkpt>
      <trkpt lat="44.82474" lon="3.47224">
        <ele>1308.97</ele>
        <time>2020-08-22T10:41:54Z</time>
      </trkpt>
      <trkpt lat="44.82472" lon="3.47221">
        <ele>1309.45</ele>
        <time>2020-08-22T10:42:33Z</time>
      </trkpt>
      <trkpt lat="44.82483" lon="3.4722">
        <ele>1309.93</ele>
        <time>2020-08-22T10:43:06Z</time>
      </trkpt>
      <trkpt lat="44.82473" lon="3.4722">
        <ele>1309.93</ele>
        <time>2020-08-22T10:43:41Z</time>
      </trkpt>
      <trkpt lat="44.82471" lon="3.47222">
        <ele>1310.41</ele>
        <time>2020-08-22T10:44:20Z</time>
      </trkpt>
      <trkpt lat="44.82473" lon="3.47225">
        <ele>1310.9</ele>
        <time>2020-08-22T10:44:47Z</time>
      </trkpt>
      <trkpt lat="44.82471" lon="3.47224">
        <ele>1310.9</ele>
        <time>2020-08-22T10:45:21Z</time>
      </trkpt>
      <trkpt lat="44.82467" lon="3.47225">
        <ele>1310.9</ele>
        <time>2020-08-22T10:45:48Z</time>
      </trkpt>
      <trkpt lat="44.82474" lon="3.47223">
        <ele>1311.86</ele>
        <time>2020-08-22T10:46:19Z</time>
      </trkpt>
      <trkpt lat="44.82476" lon="3.47224">
        <ele>1311.86</ele>
        <time>2020-08-22T10:46:57Z</time>
      </trkpt>
      <trkpt lat="44.82476" lon="3.47227">
        <ele>1312.34</ele>
        <time>2020-08-22T10:47:30Z</time>
      </trkpt>
      <trkpt lat="44.82472" lon="3.47221">
        <ele>1312.82</ele>
        <time>2020-08-22T10:47:57Z</time>
      </trkpt>
      <trkpt lat="44.82473" lon="3.4722">
        <ele>1312.82</ele>
        <time>2020-08-22T10:48:18Z</time>
      </trkpt>
      <trkpt lat="44.82476" lon="3.47224">
        <ele>1312.82</ele>
        <time>2020-08-22T10:48:45Z</time>
      </trkpt>
      <trkpt lat="44.82477" lon="3.47227">
        <ele>1312.82</ele>
        <time>2020-08-22T10:49:14Z</time>
      </trkpt>
      <trkpt lat="44.8248" lon="3.47228">
        <ele>1313.3</ele>
        <time>2020-08-22T10:49:45Z</time>
      </trkpt>
      <trkpt lat="44.82478" lon="3.47228">
        <ele>1314.74</ele>
        <time>2020-08-22T10:50:15Z</time>
      </trkpt>
      <trkpt lat="44.82463" lon="3.47226">
        <ele>1314.74</ele>
        <time>2020-08-22T10:50:39Z</time>
      </trkpt>
      <trkpt lat="44.82462" lon="3.47223">
        <ele>1315.22</ele>
        <time>2020-08-22T10:51:00Z</time>
      </trkpt>
      <trkpt lat="44.82479" lon="3.47225">
        <ele>1315.7</ele>
        <time>2020-08-22T10:51:38Z</time>
      </trkpt>
      <trkpt lat="44.82463" lon="3.47209">
        <ele>1316.18</ele>
        <time>2020-08-22T10:52:16Z</time>
      </trkpt>
      <trkpt lat="44.82471" lon="3.47212">
        <ele>1316.66</ele>
        <time>2020-08-22T10:52:59Z</time>
      </trkpt>
      <trkpt lat="44.82471" lon="3.47221">
        <ele>1316.66</ele>
        <time>2020-08-22T10:53:32Z</time>
      </trkpt>
      <trkpt lat="44.82468" lon="3.47218">
        <ele>1317.14</ele>
        <time>2020-08-22T10:54:16Z</time>
      </trkpt>
      <trkpt lat="44.82468" lon="3.47222">
        <ele>1317.14</ele>
        <time>2020-08-22T10:54:51Z</time>
      </trkpt>
      <trkpt lat="44.82464" lon="3.4722">
        <ele>1317.62</ele>
        <time>2020-08-22T10:55:28Z</time>
      </trkpt>
      <trkpt lat="44.82465" lon="3.47224">
        <ele>1318.1</ele>
        <time>2020-08-22T10:56:11Z</time>
      </trkpt>
      <trkpt lat="44.82471" lon="3.47225">
        <ele>1316.66</ele>
        <time>2020-08-22T10:56:47Z</time>
      </trkpt>
      <trkpt lat="44.82471" lon="3.47227">
        <ele>1317.14</ele>
        <time>2020-08-22T10:57:15Z</time>
      </trkpt>
      <trkpt lat="44.82464" lon="3.47231">
        <ele>1317.14</ele>
        <time>2020-08-22T10:57:34Z</time>
      </trkpt>
      <trkpt lat="44.8246" lon="3.47239">
        <ele>1317.14</ele>
        <time>2020-08-22T10:58:03Z</time>
      </trkpt>
      <trkpt lat="44.82463" lon="3.47224">
        <ele>1317.14</ele>
        <time>2020-08-22T10:58:17Z</time>
      </trkpt>
      <trkpt lat="44.82473" lon="3.4721">
        <ele>1317.14</ele>
        <time>2020-08-22T10:58:32Z</time>
      </trkpt>
      <trkpt lat="44.82481" lon="3.47198">
        <ele>1319.07</ele>
        <time>2020-08-22T10:58:47Z</time>
      </trkpt>
      <trkpt lat="44.82488" lon="3.47195">
        <ele>1320.03</ele>
        <time>2020-08-22T10:58:57Z</time>
      </trkpt>
      <trkpt lat="44.82495" lon="3.47189">
        <ele>1320.51</ele>
        <time>2020-08-22T10:59:07Z</time>
      </trkpt>
      <trkpt lat="44.82504" lon="3.47181">
        <ele>1321.47</ele>
        <time>2020-08-22T10:59:20Z</time>
      </trkpt>
      <trkpt lat="44.82511" lon="3.47177">
        <ele>1321.95</ele>
        <time>2020-08-22T10:59:26Z</time>
      </trkpt>
      <trkpt lat="44.8252" lon="3.47172">
        <ele>1322.43</ele>
        <time>2020-08-22T10:59:35Z</time>
      </trkpt>
      <trkpt lat="44.82523" lon="3.4717">
        <ele>1323.39</ele>
        <time>2020-08-22T10:59:38Z</time>
      </trkpt>
      <trkpt lat="44.8254" lon="3.47155">
        <ele>1323.39</ele>
        <time>2020-08-22T10:59:55Z</time>
      </trkpt>
      <trkpt lat="44.82549" lon="3.47144">
        <ele>1324.35</ele>
        <time>2020-08-22T11:00:05Z</time>
      </trkpt>
      <trkpt lat="44.82559" lon="3.47127">
        <ele>1324.83</ele>
        <time>2020-08-22T11:00:20Z</time>
      </trkpt>
      <trkpt lat="44.82569" lon="3.47111">
        <ele>1324.83</ele>
        <time>2020-08-22T11:00:34Z</time>
      </trkpt>
      <trkpt lat="44.82581" lon="3.47092">
        <ele>1324.83</ele>
        <time>2020-08-22T11:00:51Z</time>
      </trkpt>
      <trkpt lat="44.82591" lon="3.47074">
        <ele>1324.83</ele>
        <time>2020-08-22T11:01:05Z</time>
      </trkpt>
      <trkpt lat="44.82599" lon="3.47053">
        <ele>1323.39</ele>
        <time>2020-08-22T11:01:21Z</time>
      </trkpt>
      <trkpt lat="44.82607" lon="3.47035">
        <ele>1322.43</ele>
        <time>2020-08-22T11:01:35Z</time>
      </trkpt>
      <trkpt lat="44.82615" lon="3.47006">
        <ele>1322.43</ele>
        <time>2020-08-22T11:01:53Z</time>
      </trkpt>
      <trkpt lat="44.82619" lon="3.46983">
        <ele>1321.47</ele>
        <time>2020-08-22T11:02:08Z</time>
      </trkpt>
      <trkpt lat="44.82625" lon="3.46955">
        <ele>1320.99</ele>
        <time>2020-08-22T11:02:27Z</time>
      </trkpt>
      <trkpt lat="44.82631" lon="3.46932">
        <ele>1320.99</ele>
        <time>2020-08-22T11:02:43Z</time>
      </trkpt>
      <trkpt lat="44.82637" lon="3.46907">
        <ele>1320.51</ele>
        <time>2020-08-22T11:03:00Z</time>
      </trkpt>
      <trkpt lat="44.82639" lon="3.46897">
        <ele>1320.51</ele>
        <time>2020-08-22T11:03:06Z</time>
      </trkpt>
      <trkpt lat="44.82644" lon="3.46869">
        <ele>1319.55</ele>
        <time>2020-08-22T11:03:25Z</time>
      </trkpt>
      <trkpt lat="44.82648" lon="3.46851">
        <ele>1319.07</ele>
        <time>2020-08-22T11:03:38Z</time>
      </trkpt>
      <trkpt lat="44.82651" lon="3.46824">
        <ele>1318.59</ele>
        <time>2020-08-22T11:03:54Z</time>
      </trkpt>
      <trkpt lat="44.82655" lon="3.46795">
        <ele>1317.62</ele>
        <time>2020-08-22T11:04:12Z</time>
      </trkpt>
      <trkpt lat="44.82658" lon="3.46768">
        <ele>1317.14</ele>
        <time>2020-08-22T11:04:30Z</time>
      </trkpt>
      <trkpt lat="44.82661" lon="3.46746">
        <ele>1316.66</ele>
        <time>2020-08-22T11:04:45Z</time>
      </trkpt>
      <trkpt lat="44.82672" lon="3.46721">
        <ele>1316.18</ele>
        <time>2020-08-22T11:05:05Z</time>
      </trkpt>
      <trkpt lat="44.82685" lon="3.46706">
        <ele>1315.22</ele>
        <time>2020-08-22T11:05:22Z</time>
      </trkpt>
      <trkpt lat="44.82695" lon="3.467">
        <ele>1314.74</ele>
        <time>2020-08-22T11:05:35Z</time>
      </trkpt>
      <trkpt lat="44.82704" lon="3.46695">
        <ele>1314.74</ele>
        <time>2020-08-22T11:05:44Z</time>
      </trkpt>
      <trkpt lat="44.82723" lon="3.46683">
        <ele>1314.26</ele>
        <time>2020-08-22T11:06:01Z</time>
      </trkpt>
      <trkpt lat="44.82744" lon="3.46671">
        <ele>1313.3</ele>
        <time>2020-08-22T11:06:21Z</time>
      </trkpt>
      <trkpt lat="44.82764" lon="3.46657">
        <ele>1312.82</ele>
        <time>2020-08-22T11:06:41Z</time>
      </trkpt>
      <trkpt lat="44.82784" lon="3.46643">
        <ele>1311.86</ele>
        <time>2020-08-22T11:07:01Z</time>
      </trkpt>
      <trkpt lat="44.82807" lon="3.46625">
        <ele>1310.41</ele>
        <time>2020-08-22T11:07:24Z</time>
      </trkpt>
      <trkpt lat="44.8283" lon="3.4661">
        <ele>1309.93</ele>
        <time>2020-08-22T11:07:46Z</time>
      </trkpt>
      <trkpt lat="44.82848" lon="3.46606">
        <ele>1308.97</ele>
        <time>2020-08-22T11:08:03Z</time>
      </trkpt>
      <trkpt lat="44.82868" lon="3.46613">
        <ele>1308.49</ele>
        <time>2020-08-22T11:08:21Z</time>
      </trkpt>
      <trkpt lat="44.82883" lon="3.46625">
        <ele>1308.49</ele>
        <time>2020-08-22T11:08:38Z</time>
      </trkpt>
      <trkpt lat="44.82903" lon="3.46642">
        <ele>1308.49</ele>
        <time>2020-08-22T11:08:59Z</time>
      </trkpt>
      <trkpt lat="44.8292" lon="3.46655">
        <ele>1308.49</ele>
        <time>2020-08-22T11:09:17Z</time>
      </trkpt>
      <trkpt lat="44.82939" lon="3.46671">
        <ele>1308.01</ele>
        <time>2020-08-22T11:09:38Z</time>
      </trkpt>
      <trkpt lat="44.8296" lon="3.46687">
        <ele>1307.53</ele>
        <time>2020-08-22T11:09:57Z</time>
      </trkpt>
      <trkpt lat="44.82981" lon="3.46701">
        <ele>1306.57</ele>
        <time>2020-08-22T11:10:16Z</time>
      </trkpt>
      <trkpt lat="44.83001" lon="3.4671">
        <ele>1306.57</ele>
        <time>2020-08-22T11:10:37Z</time>
      </trkpt>
      <trkpt lat="44.83014" lon="3.46712">
        <ele>1306.09</ele>
        <time>2020-08-22T11:10:50Z</time>
      </trkpt>
      <trkpt lat="44.83026" lon="3.46712">
        <ele>1305.61</ele>
        <time>2020-08-22T11:11:02Z</time>
      </trkpt>
      <trkpt lat="44.83042" lon="3.46709">
        <ele>1305.61</ele>
        <time>2020-08-22T11:11:17Z</time>
      </trkpt>
      <trkpt lat="44.83061" lon="3.46701">
        <ele>1305.13</ele>
        <time>2020-08-22T11:11:34Z</time>
      </trkpt>
      <trkpt lat="44.83081" lon="3.46686">
        <ele>1305.13</ele>
        <time>2020-08-22T11:11:51Z</time>
      </trkpt>
      <trkpt lat="44.83098" lon="3.46664">
        <ele>1305.13</ele>
        <time>2020-08-22T11:12:10Z</time>
      </trkpt>
      <trkpt lat="44.83099" lon="3.46663">
        <ele>1305.13</ele>
        <time>2020-08-22T11:12:11Z</time>
      </trkpt>
      <trkpt lat="44.8311" lon="3.46632">
        <ele>1305.13</ele>
        <time>2020-08-22T11:12:31Z</time>
      </trkpt>
      <trkpt lat="44.83116" lon="3.46603">
        <ele>1305.13</ele>
        <time>2020-08-22T11:12:49Z</time>
      </trkpt>
      <trkpt lat="44.83123" lon="3.46585">
        <ele>1305.13</ele>
        <time>2020-08-22T11:13:03Z</time>
      </trkpt>
      <trkpt lat="44.83129" lon="3.46563">
        <ele>1305.13</ele>
        <time>2020-08-22T11:13:18Z</time>
      </trkpt>
      <trkpt lat="44.83134" lon="3.46539">
        <ele>1304.65</ele>
        <time>2020-08-22T11:13:33Z</time>
      </trkpt>
      <trkpt lat="44.83141" lon="3.4651">
        <ele>1304.17</ele>
        <time>2020-08-22T11:13:50Z</time>
      </trkpt>
      <trkpt lat="44.83147" lon="3.46492">
        <ele>1304.17</ele>
        <time>2020-08-22T11:14:03Z</time>
      </trkpt>
      <trkpt lat="44.8315" lon="3.46474">
        <ele>1304.17</ele>
        <time>2020-08-22T11:14:14Z</time>
      </trkpt>
      <trkpt lat="44.83156" lon="3.46443">
        <ele>1304.17</ele>
        <time>2020-08-22T11:14:32Z</time>
      </trkpt>
      <trkpt lat="44.8316" lon="3.46419">
        <ele>1303.2</ele>
        <time>2020-08-22T11:14:48Z</time>
      </trkpt>
      <trkpt lat="44.83163" lon="3.46391">
        <ele>1302.72</ele>
        <time>2020-08-22T11:15:05Z</time>
      </trkpt>
      <trkpt lat="44.83166" lon="3.46361">
        <ele>1302.24</ele>
        <time>2020-08-22T11:15:22Z</time>
      </trkpt>
      <trkpt lat="44.83167" lon="3.46335">
        <ele>1302.24</ele>
        <time>2020-08-22T11:15:38Z</time>
      </trkpt>
      <trkpt lat="44.83167" lon="3.46301">
        <ele>1302.24</ele>
        <time>2020-08-22T11:15:58Z</time>
      </trkpt>
      <trkpt lat="44.83167" lon="3.46277">
        <ele>1303.69</ele>
        <time>2020-08-22T11:16:13Z</time>
      </trkpt>
      <trkpt lat="44.83172" lon="3.46248">
        <ele>1304.17</ele>
        <time>2020-08-22T11:16:32Z</time>
      </trkpt>
      <trkpt lat="44.83178" lon="3.4624">
        <ele>1303.69</ele>
        <time>2020-08-22T11:16:47Z</time>
      </trkpt>
      <trkpt lat="44.83177" lon="3.46236">
        <ele>1304.17</ele>
        <time>2020-08-22T11:16:55Z</time>
      </trkpt>
      <trkpt lat="44.83168" lon="3.46213">
        <ele>1304.17</ele>
        <time>2020-08-22T11:17:11Z</time>
      </trkpt>
      <trkpt lat="44.83158" lon="3.46189">
        <ele>1303.69</ele>
        <time>2020-08-22T11:17:29Z</time>
      </trkpt>
      <trkpt lat="44.83147" lon="3.46162">
        <ele>1302.72</ele>
        <time>2020-08-22T11:17:48Z</time>
      </trkpt>
      <trkpt lat="44.83134" lon="3.46134">
        <ele>1300.8</ele>
        <time>2020-08-22T11:18:08Z</time>
      </trkpt>
      <trkpt lat="44.83125" lon="3.46113">
        <ele>1300.8</ele>
        <time>2020-08-22T11:18:23Z</time>
      </trkpt>
      <trkpt lat="44.83117" lon="3.4609">
        <ele>1300.8</ele>
        <time>2020-08-22T11:18:39Z</time>
      </trkpt>
      <trkpt lat="44.8311" lon="3.46066">
        <ele>1300.8</ele>
        <time>2020-08-22T11:18:56Z</time>
      </trkpt>
      <trkpt lat="44.83104" lon="3.46038">
        <ele>1300.32</ele>
        <time>2020-08-22T11:19:13Z</time>
      </trkpt>
      <trkpt lat="44.83099" lon="3.46015">
        <ele>1300.32</ele>
        <time>2020-08-22T11:19:29Z</time>
      </trkpt>
      <trkpt lat="44.83094" lon="3.45983">
        <ele>1298.4</ele>
        <time>2020-08-22T11:19:47Z</time>
      </trkpt>
      <trkpt lat="44.83086" lon="3.45948">
        <ele>1298.4</ele>
        <time>2020-08-22T11:20:08Z</time>
      </trkpt>
      <trkpt lat="44.8308" lon="3.4592">
        <ele>1297.92</ele>
        <time>2020-08-22T11:20:26Z</time>
      </trkpt>
      <trkpt lat="44.83075" lon="3.45896">
        <ele>1296.96</ele>
        <time>2020-08-22T11:20:43Z</time>
      </trkpt>
      <trkpt lat="44.83072" lon="3.45869">
        <ele>1295.51</ele>
        <time>2020-08-22T11:21:01Z</time>
      </trkpt>
      <trkpt lat="44.83079" lon="3.45854">
        <ele>1295.03</ele>
        <time>2020-08-22T11:21:16Z</time>
      </trkpt>
      <trkpt lat="44.8308" lon="3.45848">
        <ele>1294.55</ele>
        <time>2020-08-22T11:21:32Z</time>
      </trkpt>
      <trkpt lat="44.83082" lon="3.45848">
        <ele>1294.07</ele>
        <time>2020-08-22T11:21:56Z</time>
      </trkpt>
      <trkpt lat="44.83082" lon="3.45849">
        <ele>1294.07</ele>
        <time>2020-08-22T11:22:17Z</time>
      </trkpt>
      <trkpt lat="44.83082" lon="3.45852">
        <ele>1294.07</ele>
        <time>2020-08-22T11:22:39Z</time>
      </trkpt>
      <trkpt lat="44.8308" lon="3.45854">
        <ele>1294.07</ele>
        <time>2020-08-22T11:22:51Z</time>
      </trkpt>
      <trkpt lat="44.8308" lon="3.45854">
        <ele>1293.59</ele>
        <time>2020-08-22T11:23:02Z</time>
      </trkpt>
      <trkpt lat="44.83079" lon="3.45855">
        <ele>1293.59</ele>
        <time>2020-08-22T11:23:23Z</time>
      </trkpt>
      <trkpt lat="44.83078" lon="3.45847">
        <ele>1293.59</ele>
        <time>2020-08-22T11:23:58Z</time>
      </trkpt>
      <trkpt lat="44.83078" lon="3.45847">
        <ele>1294.55</ele>
        <time>2020-08-22T11:24:00Z</time>
      </trkpt>
      <trkpt lat="44.83078" lon="3.45849">
        <ele>1294.55</ele>
        <time>2020-08-22T11:24:33Z</time>
      </trkpt>
      <trkpt lat="44.8308" lon="3.45849">
        <ele>1294.55</ele>
        <time>2020-08-22T11:24:48Z</time>
      </trkpt>
      <trkpt lat="44.83091" lon="3.45842">
        <ele>1293.11</ele>
        <time>2020-08-22T11:25:07Z</time>
      </trkpt>
      <trkpt lat="44.83091" lon="3.45843">
        <ele>1293.11</ele>
        <time>2020-08-22T11:25:29Z</time>
      </trkpt>
      <trkpt lat="44.83081" lon="3.45853">
        <ele>1293.11</ele>
        <time>2020-08-22T11:25:46Z</time>
      </trkpt>
      <trkpt lat="44.8308" lon="3.45849">
        <ele>1294.07</ele>
        <time>2020-08-22T11:26:06Z</time>
      </trkpt>
      <trkpt lat="44.83082" lon="3.45841">
        <ele>1294.07</ele>
        <time>2020-08-22T11:26:28Z</time>
      </trkpt>
      <trkpt lat="44.83087" lon="3.4584">
        <ele>1294.07</ele>
        <time>2020-08-22T11:26:44Z</time>
      </trkpt>
      <trkpt lat="44.83095" lon="3.45844">
        <ele>1292.63</ele>
        <time>2020-08-22T11:27:08Z</time>
      </trkpt>
      <trkpt lat="44.8309" lon="3.45842">
        <ele>1292.15</ele>
        <time>2020-08-22T11:27:25Z</time>
      </trkpt>
      <trkpt lat="44.83083" lon="3.45847">
        <ele>1293.11</ele>
        <time>2020-08-22T11:27:38Z</time>
      </trkpt>
      <trkpt lat="44.8308" lon="3.45855">
        <ele>1294.07</ele>
        <time>2020-08-22T11:27:53Z</time>
      </trkpt>
      <trkpt lat="44.83081" lon="3.45852">
        <ele>1294.07</ele>
        <time>2020-08-22T11:28:06Z</time>
      </trkpt>
      <trkpt lat="44.83084" lon="3.45852">
        <ele>1294.07</ele>
        <time>2020-08-22T11:28:19Z</time>
      </trkpt>
      <trkpt lat="44.83082" lon="3.45853">
        <ele>1293.11</ele>
        <time>2020-08-22T11:28:32Z</time>
      </trkpt>
      <trkpt lat="44.8308" lon="3.45853">
        <ele>1292.63</ele>
        <time>2020-08-22T11:29:02Z</time>
      </trkpt>
      <trkpt lat="44.83078" lon="3.45857">
        <ele>1292.63</ele>
        <time>2020-08-22T11:29:35Z</time>
      </trkpt>
      <trkpt lat="44.83078" lon="3.45857">
        <ele>1292.63</ele>
        <time>2020-08-22T11:30:01Z</time>
      </trkpt>
      <trkpt lat="44.83072" lon="3.4586">
        <ele>1292.63</ele>
        <time>2020-08-22T11:30:38Z</time>
      </trkpt>
      <trkpt lat="44.83079" lon="3.45851">
        <ele>1293.11</ele>
        <time>2020-08-22T11:31:03Z</time>
      </trkpt>
      <trkpt lat="44.83081" lon="3.45844">
        <ele>1293.11</ele>
        <time>2020-08-22T11:31:30Z</time>
      </trkpt>
      <trkpt lat="44.83082" lon="3.45849">
        <ele>1293.11</ele>
        <time>2020-08-22T11:32:04Z</time>
      </trkpt>
      <trkpt lat="44.83087" lon="3.4585">
        <ele>1293.11</ele>
        <time>2020-08-22T11:32:35Z</time>
      </trkpt>
      <trkpt lat="44.83088" lon="3.45851">
        <ele>1294.55</ele>
        <time>2020-08-22T11:33:02Z</time>
      </trkpt>
      <trkpt lat="44.83086" lon="3.45845">
        <ele>1294.55</ele>
        <time>2020-08-22T11:33:24Z</time>
      </trkpt>
      <trkpt lat="44.83085" lon="3.45849">
        <ele>1294.55</ele>
        <time>2020-08-22T11:33:52Z</time>
      </trkpt>
      <trkpt lat="44.83082" lon="3.45853">
        <ele>1294.55</ele>
        <time>2020-08-22T11:34:19Z</time>
      </trkpt>
      <trkpt lat="44.83082" lon="3.45847">
        <ele>1295.03</ele>
        <time>2020-08-22T11:34:46Z</time>
      </trkpt>
      <trkpt lat="44.83084" lon="3.45851">
        <ele>1295.03</ele>
        <time>2020-08-22T11:35:15Z</time>
      </trkpt>
      <trkpt lat="44.83081" lon="3.45848">
        <ele>1295.03</ele>
        <time>2020-08-22T11:35:46Z</time>
      </trkpt>
      <trkpt lat="44.83082" lon="3.45856">
        <ele>1295.03</ele>
        <time>2020-08-22T11:36:14Z</time>
      </trkpt>
      <trkpt lat="44.83082" lon="3.4585">
        <ele>1295.51</ele>
        <time>2020-08-22T11:36:42Z</time>
      </trkpt>
      <trkpt lat="44.83084" lon="3.45847">
        <ele>1295.51</ele>
        <time>2020-08-22T11:37:17Z</time>
      </trkpt>
      <trkpt lat="44.8309" lon="3.45851">
        <ele>1295.51</ele>
        <time>2020-08-22T11:37:36Z</time>
      </trkpt>
      <trkpt lat="44.83087" lon="3.45852">
        <ele>1295.51</ele>
        <time>2020-08-22T11:37:48Z</time>
      </trkpt>
      <trkpt lat="44.83082" lon="3.4585">
        <ele>1295.51</ele>
        <time>2020-08-22T11:38:03Z</time>
      </trkpt>
      <trkpt lat="44.83081" lon="3.45847">
        <ele>1295.51</ele>
        <time>2020-08-22T11:38:30Z</time>
      </trkpt>
      <trkpt lat="44.8308" lon="3.45845">
        <ele>1294.07</ele>
        <time>2020-08-22T11:39:04Z</time>
      </trkpt>
      <trkpt lat="44.83081" lon="3.45846">
        <ele>1293.59</ele>
        <time>2020-08-22T11:39:34Z</time>
      </trkpt>
      <trkpt lat="44.83081" lon="3.45844">
        <ele>1293.59</ele>
        <time>2020-08-22T11:40:04Z</time>
      </trkpt>
      <trkpt lat="44.8308" lon="3.45841">
        <ele>1294.07</ele>
        <time>2020-08-22T11:40:33Z</time>
      </trkpt>
      <trkpt lat="44.83083" lon="3.45854">
        <ele>1294.07</ele>
        <time>2020-08-22T11:41:06Z</time>
      </trkpt>
      <trkpt lat="44.83082" lon="3.45853">
        <ele>1293.59</ele>
        <time>2020-08-22T11:41:41Z</time>
      </trkpt>
      <trkpt lat="44.83078" lon="3.4585">
        <ele>1295.03</ele>
        <time>2020-08-22T11:42:10Z</time>
      </trkpt>
      <trkpt lat="44.8308" lon="3.45851">
        <ele>1295.03</ele>
        <time>2020-08-22T11:42:42Z</time>
      </trkpt>
      <trkpt lat="44.8308" lon="3.45849">
        <ele>1295.03</ele>
        <time>2020-08-22T11:43:13Z</time>
      </trkpt>
      <trkpt lat="44.83081" lon="3.45847">
        <ele>1295.03</ele>
        <time>2020-08-22T11:43:40Z</time>
      </trkpt>
      <trkpt lat="44.83084" lon="3.45844">
        <ele>1295.03</ele>
        <time>2020-08-22T11:44:02Z</time>
      </trkpt>
      <trkpt lat="44.83086" lon="3.45846">
        <ele>1295.03</ele>
        <time>2020-08-22T11:44:32Z</time>
      </trkpt>
      <trkpt lat="44.83081" lon="3.45848">
        <ele>1295.03</ele>
        <time>2020-08-22T11:45:01Z</time>
      </trkpt>
      <trkpt lat="44.8308" lon="3.45852">
        <ele>1295.51</ele>
        <time>2020-08-22T11:45:28Z</time>
      </trkpt>
      <trkpt lat="44.83082" lon="3.45846">
        <ele>1295.51</ele>
        <time>2020-08-22T11:46:06Z</time>
      </trkpt>
      <trkpt lat="44.83081" lon="3.4585">
        <ele>1295.51</ele>
        <time>2020-08-22T11:46:44Z</time>
      </trkpt>
      <trkpt lat="44.83077" lon="3.45845">
        <ele>1295.51</ele>
        <time>2020-08-22T11:47:21Z</time>
      </trkpt>
      <trkpt lat="44.83087" lon="3.45855">
        <ele>1295.51</ele>
        <time>2020-08-22T11:47:50Z</time>
      </trkpt>
      <trkpt lat="44.8309" lon="3.45852">
        <ele>1295.51</ele>
        <time>2020-08-22T11:48:07Z</time>
      </trkpt>
      <trkpt lat="44.83082" lon="3.45853">
        <ele>1295.51</ele>
        <time>2020-08-22T11:48:19Z</time>
      </trkpt>
      <trkpt lat="44.83083" lon="3.45856">
        <ele>1295.51</ele>
        <time>2020-08-22T11:48:52Z</time>
      </trkpt>
      <trkpt lat="44.83083" lon="3.45854">
        <ele>1294.55</ele>
        <time>2020-08-22T11:49:25Z</time>
      </trkpt>
      <trkpt lat="44.83081" lon="3.4585">
        <ele>1294.07</ele>
        <time>2020-08-22T11:49:59Z</time>
      </trkpt>
      <trkpt lat="44.83083" lon="3.45855">
        <ele>1294.07</ele>
        <time>2020-08-22T11:50:35Z</time>
      </trkpt>
      <trkpt lat="44.83083" lon="3.45855">
        <ele>1294.07</ele>
        <time>2020-08-22T11:51:15Z</time>
      </trkpt>
      <trkpt lat="44.83083" lon="3.45852">
        <ele>1294.07</ele>
        <time>2020-08-22T11:51:51Z</time>
      </trkpt>
      <trkpt lat="44.83082" lon="3.45855">
        <ele>1294.07</ele>
        <time>2020-08-22T11:52:24Z</time>
      </trkpt>
      <trkpt lat="44.8308" lon="3.45851">
        <ele>1294.07</ele>
        <time>2020-08-22T11:52:53Z</time>
      </trkpt>
      <trkpt lat="44.83082" lon="3.4585">
        <ele>1294.07</ele>
        <time>2020-08-22T11:53:25Z</time>
      </trkpt>
      <trkpt lat="44.83081" lon="3.45848">
        <ele>1294.07</ele>
        <time>2020-08-22T11:54:00Z</time>
      </trkpt>
      <trkpt lat="44.83084" lon="3.45855">
        <ele>1294.07</ele>
        <time>2020-08-22T11:54:36Z</time>
      </trkpt>
      <trkpt lat="44.83079" lon="3.45851">
        <ele>1294.07</ele>
        <time>2020-08-22T11:55:07Z</time>
      </trkpt>
      <trkpt lat="44.83078" lon="3.45846">
        <ele>1294.07</ele>
        <time>2020-08-22T11:55:37Z</time>
      </trkpt>
      <trkpt lat="44.83081" lon="3.45855">
        <ele>1294.07</ele>
        <time>2020-08-22T11:56:14Z</time>
      </trkpt>
      <trkpt lat="44.83081" lon="3.45852">
        <ele>1295.51</ele>
        <time>2020-08-22T11:56:55Z</time>
      </trkpt>
      <trkpt lat="44.83081" lon="3.45851">
        <ele>1295.51</ele>
        <time>2020-08-22T11:56:56Z</time>
      </trkpt>
      <trkpt lat="44.83081" lon="3.45853">
        <ele>1295.03</ele>
        <time>2020-08-22T11:57:32Z</time>
      </trkpt>
      <trkpt lat="44.83079" lon="3.45848">
        <ele>1294.07</ele>
        <time>2020-08-22T11:58:04Z</time>
      </trkpt>
      <trkpt lat="44.83077" lon="3.45846">
        <ele>1294.07</ele>
        <time>2020-08-22T11:58:40Z</time>
      </trkpt>
      <trkpt lat="44.83091" lon="3.4585">
        <ele>1294.07</ele>
        <time>2020-08-22T11:58:59Z</time>
      </trkpt>
      <trkpt lat="44.83095" lon="3.45846">
        <ele>1292.63</ele>
        <time>2020-08-22T11:59:15Z</time>
      </trkpt>
      <trkpt lat="44.8309" lon="3.45847">
        <ele>1292.63</ele>
        <time>2020-08-22T11:59:45Z</time>
      </trkpt>
      <trkpt lat="44.83088" lon="3.45848">
        <ele>1292.63</ele>
        <time>2020-08-22T11:59:53Z</time>
      </trkpt>
      <trkpt lat="44.83084" lon="3.45852">
        <ele>1294.55</ele>
        <time>2020-08-22T12:00:03Z</time>
      </trkpt>
      <trkpt lat="44.8308" lon="3.45854">
        <ele>1295.03</ele>
        <time>2020-08-22T12:00:14Z</time>
      </trkpt>
      <trkpt lat="44.83081" lon="3.45851">
        <ele>1295.03</ele>
        <time>2020-08-22T12:00:40Z</time>
      </trkpt>
      <trkpt lat="44.83079" lon="3.45849">
        <ele>1295.03</ele>
        <time>2020-08-22T12:01:09Z</time>
      </trkpt>
      <trkpt lat="44.83079" lon="3.45853">
        <ele>1295.03</ele>
        <time>2020-08-22T12:01:39Z</time>
      </trkpt>
      <trkpt lat="44.83081" lon="3.45851">
        <ele>1295.03</ele>
        <time>2020-08-22T12:02:12Z</time>
      </trkpt>
      <trkpt lat="44.83083" lon="3.45853">
        <ele>1295.03</ele>
        <time>2020-08-22T12:02:50Z</time>
      </trkpt>
      <trkpt lat="44.83076" lon="3.4585">
        <ele>1294.55</ele>
        <time>2020-08-22T12:03:23Z</time>
      </trkpt>
      <trkpt lat="44.83078" lon="3.45852">
        <ele>1295.03</ele>
        <time>2020-08-22T12:03:56Z</time>
      </trkpt>
      <trkpt lat="44.83083" lon="3.45852">
        <ele>1294.55</ele>
        <time>2020-08-22T12:04:30Z</time>
      </trkpt>
      <trkpt lat="44.83083" lon="3.45847">
        <ele>1294.55</ele>
        <time>2020-08-22T12:05:03Z</time>
      </trkpt>
      <trkpt lat="44.83082" lon="3.45848">
        <ele>1294.55</ele>
        <time>2020-08-22T12:05:33Z</time>
      </trkpt>
      <trkpt lat="44.83078" lon="3.45846">
        <ele>1294.07</ele>
        <time>2020-08-22T12:06:10Z</time>
      </trkpt>
      <trkpt lat="44.8308" lon="3.45848">
        <ele>1294.07</ele>
        <time>2020-08-22T12:06:38Z</time>
      </trkpt>
      <trkpt lat="44.83081" lon="3.45852">
        <ele>1294.07</ele>
        <time>2020-08-22T12:07:02Z</time>
      </trkpt>
      <trkpt lat="44.83082" lon="3.45853">
        <ele>1294.07</ele>
        <time>2020-08-22T12:07:37Z</time>
      </trkpt>
      <trkpt lat="44.8308" lon="3.45852">
        <ele>1294.07</ele>
        <time>2020-08-22T12:08:00Z</time>
      </trkpt>
      <trkpt lat="44.83078" lon="3.45855">
        <ele>1294.07</ele>
        <time>2020-08-22T12:08:26Z</time>
      </trkpt>
      <trkpt lat="44.83079" lon="3.45851">
        <ele>1294.07</ele>
        <time>2020-08-22T12:08:48Z</time>
      </trkpt>
      <trkpt lat="44.8308" lon="3.45853">
        <ele>1294.07</ele>
        <time>2020-08-22T12:09:07Z</time>
      </trkpt>
      <trkpt lat="44.83089" lon="3.45863">
        <ele>1294.55</ele>
        <time>2020-08-22T12:09:21Z</time>
      </trkpt>
      <trkpt lat="44.83092" lon="3.45867">
        <ele>1294.55</ele>
        <time>2020-08-22T12:09:43Z</time>
      </trkpt>
      <trkpt lat="44.83087" lon="3.45862">
        <ele>1294.55</ele>
        <time>2020-08-22T12:10:04Z</time>
      </trkpt>
      <trkpt lat="44.83079" lon="3.4585">
        <ele>1294.55</ele>
        <time>2020-08-22T12:10:20Z</time>
      </trkpt>
      <trkpt lat="44.83081" lon="3.45849">
        <ele>1294.07</ele>
        <time>2020-08-22T12:10:46Z</time>
      </trkpt>
      <trkpt lat="44.8308" lon="3.45849">
        <ele>1294.07</ele>
        <time>2020-08-22T12:11:07Z</time>
      </trkpt>
      <trkpt lat="44.8308" lon="3.45849">
        <ele>1293.11</ele>
        <time>2020-08-22T12:11:32Z</time>
      </trkpt>
      <trkpt lat="44.83081" lon="3.45851">
        <ele>1293.11</ele>
        <time>2020-08-22T12:11:57Z</time>
      </trkpt>
      <trkpt lat="44.83081" lon="3.45851">
        <ele>1293.11</ele>
        <time>2020-08-22T12:12:22Z</time>
      </trkpt>
      <trkpt lat="44.8308" lon="3.4585">
        <ele>1293.11</ele>
        <time>2020-08-22T12:12:54Z</time>
      </trkpt>
      <trkpt lat="44.83081" lon="3.45851">
        <ele>1293.11</ele>
        <time>2020-08-22T12:13:21Z</time>
      </trkpt>
      <trkpt lat="44.83083" lon="3.45849">
        <ele>1293.59</ele>
        <time>2020-08-22T12:13:43Z</time>
      </trkpt>
      <trkpt lat="44.8308" lon="3.45846">
        <ele>1293.59</ele>
        <time>2020-08-22T12:14:01Z</time>
      </trkpt>
      <trkpt lat="44.83079" lon="3.45842">
        <ele>1293.59</ele>
        <time>2020-08-22T12:14:27Z</time>
      </trkpt>
      <trkpt lat="44.83075" lon="3.45828">
        <ele>1292.15</ele>
        <time>2020-08-22T12:14:40Z</time>
      </trkpt>
      <trkpt lat="44.83066" lon="3.45816">
        <ele>1292.15</ele>
        <time>2020-08-22T12:14:57Z</time>
      </trkpt>
      <trkpt lat="44.83059" lon="3.45809">
        <ele>1291.67</ele>
        <time>2020-08-22T12:15:14Z</time>
      </trkpt>
      <trkpt lat="44.83063" lon="3.45813">
        <ele>1291.19</ele>
        <time>2020-08-22T12:15:26Z</time>
      </trkpt>
      <trkpt lat="44.83077" lon="3.45827">
        <ele>1292.15</ele>
        <time>2020-08-22T12:15:41Z</time>
      </trkpt>
      <trkpt lat="44.8309" lon="3.45842">
        <ele>1292.63</ele>
        <time>2020-08-22T12:15:54Z</time>
      </trkpt>
      <trkpt lat="44.83091" lon="3.45849">
        <ele>1292.63</ele>
        <time>2020-08-22T12:16:13Z</time>
      </trkpt>
      <trkpt lat="44.83088" lon="3.45846">
        <ele>1292.63</ele>
        <time>2020-08-22T12:16:29Z</time>
      </trkpt>
      <trkpt lat="44.83078" lon="3.45827">
        <ele>1292.63</ele>
        <time>2020-08-22T12:16:45Z</time>
      </trkpt>
      <trkpt lat="44.83069" lon="3.45819">
        <ele>1292.63</ele>
        <time>2020-08-22T12:17:02Z</time>
      </trkpt>
      <trkpt lat="44.83065" lon="3.45813">
        <ele>1291.19</ele>
        <time>2020-08-22T12:17:15Z</time>
      </trkpt>
      <trkpt lat="44.83063" lon="3.45804">
        <ele>1291.19</ele>
        <time>2020-08-22T12:17:24Z</time>
      </trkpt>
      <trkpt lat="44.83059" lon="3.45783">
        <ele>1289.27</ele>
        <time>2020-08-22T12:17:41Z</time>
      </trkpt>
      <trkpt lat="44.83053" lon="3.45775">
        <ele>1290.71</ele>
        <time>2020-08-22T12:17:55Z</time>
      </trkpt>
      <trkpt lat="44.83053" lon="3.45773">
        <ele>1290.71</ele>
        <time>2020-08-22T12:17:57Z</time>
      </trkpt>
      <trkpt lat="44.83052" lon="3.45762">
        <ele>1290.23</ele>
        <time>2020-08-22T12:18:13Z</time>
      </trkpt>
      <trkpt lat="44.83053" lon="3.45759">
        <ele>1290.23</ele>
        <time>2020-08-22T12:18:22Z</time>
      </trkpt>
      <trkpt lat="44.8305" lon="3.45743">
        <ele>1290.23</ele>
        <time>2020-08-22T12:18:30Z</time>
      </trkpt>
      <trkpt lat="44.83044" lon="3.45711">
        <ele>1290.71</ele>
        <time>2020-08-22T12:18:49Z</time>
      </trkpt>
      <trkpt lat="44.83043" lon="3.45707">
        <ele>1290.71</ele>
        <time>2020-08-22T12:18:52Z</time>
      </trkpt>
      <trkpt lat="44.83027" lon="3.45681">
        <ele>1290.71</ele>
        <time>2020-08-22T12:19:12Z</time>
      </trkpt>
      <trkpt lat="44.83023" lon="3.45677">
        <ele>1289.27</ele>
        <time>2020-08-22T12:19:16Z</time>
      </trkpt>
      <trkpt lat="44.83007" lon="3.45661">
        <ele>1289.27</ele>
        <time>2020-08-22T12:19:32Z</time>
      </trkpt>
      <trkpt lat="44.83002" lon="3.45657">
        <ele>1290.71</ele>
        <time>2020-08-22T12:19:37Z</time>
      </trkpt>
      <trkpt lat="44.8299" lon="3.45647">
        <ele>1291.19</ele>
        <time>2020-08-22T12:19:50Z</time>
      </trkpt>
      <trkpt lat="44.82988" lon="3.45645">
        <ele>1291.19</ele>
        <time>2020-08-22T12:19:52Z</time>
      </trkpt>
      <trkpt lat="44.82968" lon="3.45638">
        <ele>1290.71</ele>
        <time>2020-08-22T12:20:10Z</time>
      </trkpt>
      <trkpt lat="44.82966" lon="3.45637">
        <ele>1289.27</ele>
        <time>2020-08-22T12:20:12Z</time>
      </trkpt>
      <trkpt lat="44.82942" lon="3.45629">
        <ele>1289.27</ele>
        <time>2020-08-22T12:20:33Z</time>
      </trkpt>
      <trkpt lat="44.8293" lon="3.45624">
        <ele>1289.27</ele>
        <time>2020-08-22T12:20:50Z</time>
      </trkpt>
      <trkpt lat="44.82918" lon="3.45623">
        <ele>1288.78</ele>
        <time>2020-08-22T12:21:15Z</time>
      </trkpt>
      <trkpt lat="44.82914" lon="3.45622">
        <ele>1288.78</ele>
        <time>2020-08-22T12:21:31Z</time>
      </trkpt>
      <trkpt lat="44.82913" lon="3.45623">
        <ele>1288.78</ele>
        <time>2020-08-22T12:21:47Z</time>
      </trkpt>
      <trkpt lat="44.82913" lon="3.45622">
        <ele>1288.78</ele>
        <time>2020-08-22T12:22:07Z</time>
      </trkpt>
      <trkpt lat="44.82914" lon="3.4562">
        <ele>1288.78</ele>
        <time>2020-08-22T12:22:27Z</time>
      </trkpt>
      <trkpt lat="44.82912" lon="3.45617">
        <ele>1288.78</ele>
        <time>2020-08-22T12:22:51Z</time>
      </trkpt>
      <trkpt lat="44.82912" lon="3.45614">
        <ele>1288.78</ele>
        <time>2020-08-22T12:23:05Z</time>
      </trkpt>
      <trkpt lat="44.82916" lon="3.45613">
        <ele>1288.78</ele>
        <time>2020-08-22T12:23:18Z</time>
      </trkpt>
      <trkpt lat="44.82904" lon="3.45605">
        <ele>1288.3</ele>
        <time>2020-08-22T12:23:34Z</time>
      </trkpt>
      <trkpt lat="44.82894" lon="3.45599">
        <ele>1289.27</ele>
        <time>2020-08-22T12:23:46Z</time>
      </trkpt>
      <trkpt lat="44.82884" lon="3.45594">
        <ele>1289.27</ele>
        <time>2020-08-22T12:23:58Z</time>
      </trkpt>
      <trkpt lat="44.82872" lon="3.45586">
        <ele>1290.71</ele>
        <time>2020-08-22T12:24:13Z</time>
      </trkpt>
      <trkpt lat="44.82871" lon="3.45585">
        <ele>1290.23</ele>
        <time>2020-08-22T12:24:14Z</time>
      </trkpt>
      <trkpt lat="44.82856" lon="3.4557">
        <ele>1290.23</ele>
        <time>2020-08-22T12:24:33Z</time>
      </trkpt>
      <trkpt lat="44.82855" lon="3.45566">
        <ele>1289.27</ele>
        <time>2020-08-22T12:24:36Z</time>
      </trkpt>
      <trkpt lat="44.82857" lon="3.45562">
        <ele>1289.27</ele>
        <time>2020-08-22T12:24:50Z</time>
      </trkpt>
      <trkpt lat="44.82858" lon="3.45561">
        <ele>1290.23</ele>
        <time>2020-08-22T12:25:09Z</time>
      </trkpt>
      <trkpt lat="44.82856" lon="3.45559">
        <ele>1290.23</ele>
        <time>2020-08-22T12:25:29Z</time>
      </trkpt>
      <trkpt lat="44.82859" lon="3.45562">
        <ele>1290.23</ele>
        <time>2020-08-22T12:25:54Z</time>
      </trkpt>
      <trkpt lat="44.82857" lon="3.45564">
        <ele>1290.23</ele>
        <time>2020-08-22T12:26:20Z</time>
      </trkpt>
      <trkpt lat="44.8286" lon="3.4557">
        <ele>1290.23</ele>
        <time>2020-08-22T12:26:42Z</time>
      </trkpt>
      <trkpt lat="44.82851" lon="3.45561">
        <ele>1290.23</ele>
        <time>2020-08-22T12:26:56Z</time>
      </trkpt>
      <trkpt lat="44.8285" lon="3.45567">
        <ele>1290.23</ele>
        <time>2020-08-22T12:27:14Z</time>
      </trkpt>
      <trkpt lat="44.82856" lon="3.45575">
        <ele>1290.23</ele>
        <time>2020-08-22T12:27:32Z</time>
      </trkpt>
      <trkpt lat="44.82857" lon="3.45577">
        <ele>1288.78</ele>
        <time>2020-08-22T12:27:36Z</time>
      </trkpt>
      <trkpt lat="44.82857" lon="3.45577">
        <ele>1288.78</ele>
        <time>2020-08-22T12:27:47Z</time>
      </trkpt>
      <trkpt lat="44.82857" lon="3.4558">
        <ele>1289.27</ele>
        <time>2020-08-22T12:28:01Z</time>
      </trkpt>
      <trkpt lat="44.82857" lon="3.4558">
        <ele>1289.27</ele>
        <time>2020-08-22T12:28:21Z</time>
      </trkpt>
      <trkpt lat="44.82858" lon="3.45576">
        <ele>1289.27</ele>
        <time>2020-08-22T12:28:52Z</time>
      </trkpt>
      <trkpt lat="44.82856" lon="3.4558">
        <ele>1289.27</ele>
        <time>2020-08-22T12:29:25Z</time>
      </trkpt>
      <trkpt lat="44.82856" lon="3.45579">
        <ele>1289.27</ele>
        <time>2020-08-22T12:29:58Z</time>
      </trkpt>
      <trkpt lat="44.82854" lon="3.45582">
        <ele>1289.27</ele>
        <time>2020-08-22T12:30:27Z</time>
      </trkpt>
      <trkpt lat="44.82857" lon="3.45579">
        <ele>1289.27</ele>
        <time>2020-08-22T12:30:46Z</time>
      </trkpt>
      <trkpt lat="44.82858" lon="3.4558">
        <ele>1289.75</ele>
        <time>2020-08-22T12:31:21Z</time>
      </trkpt>
      <trkpt lat="44.82857" lon="3.45582">
        <ele>1289.75</ele>
        <time>2020-08-22T12:31:55Z</time>
      </trkpt>
      <trkpt lat="44.82856" lon="3.45579">
        <ele>1289.75</ele>
        <time>2020-08-22T12:32:17Z</time>
      </trkpt>
      <trkpt lat="44.82856" lon="3.45576">
        <ele>1289.75</ele>
        <time>2020-08-22T12:32:33Z</time>
      </trkpt>
      <trkpt lat="44.82853" lon="3.45575">
        <ele>1289.75</ele>
        <time>2020-08-22T12:32:48Z</time>
      </trkpt>
      <trkpt lat="44.82853" lon="3.4557">
        <ele>1289.75</ele>
        <time>2020-08-22T12:33:09Z</time>
      </trkpt>
      <trkpt lat="44.82853" lon="3.45575">
        <ele>1289.75</ele>
        <time>2020-08-22T12:33:31Z</time>
      </trkpt>
      <trkpt lat="44.8285" lon="3.45575">
        <ele>1289.75</ele>
        <time>2020-08-22T12:34:01Z</time>
      </trkpt>
      <trkpt lat="44.8285" lon="3.45573">
        <ele>1290.71</ele>
        <time>2020-08-22T12:34:27Z</time>
      </trkpt>
      <trkpt lat="44.8285" lon="3.45574">
        <ele>1289.27</ele>
        <time>2020-08-22T12:34:53Z</time>
      </trkpt>
      <trkpt lat="44.82848" lon="3.45577">
        <ele>1288.78</ele>
        <time>2020-08-22T12:35:08Z</time>
      </trkpt>
      <trkpt lat="44.82845" lon="3.45579">
        <ele>1287.34</ele>
        <time>2020-08-22T12:35:21Z</time>
      </trkpt>
      <trkpt lat="44.82833" lon="3.45572">
        <ele>1286.38</ele>
        <time>2020-08-22T12:35:35Z</time>
      </trkpt>
      <trkpt lat="44.82819" lon="3.45564">
        <ele>1284.46</ele>
        <time>2020-08-22T12:35:50Z</time>
      </trkpt>
      <trkpt lat="44.828" lon="3.45547">
        <ele>1283.5</ele>
        <time>2020-08-22T12:36:09Z</time>
      </trkpt>
      <trkpt lat="44.82783" lon="3.45526">
        <ele>1282.54</ele>
        <time>2020-08-22T12:36:28Z</time>
      </trkpt>
      <trkpt lat="44.82767" lon="3.45506">
        <ele>1282.54</ele>
        <time>2020-08-22T12:36:46Z</time>
      </trkpt>
      <trkpt lat="44.82764" lon="3.45504">
        <ele>1282.06</ele>
        <time>2020-08-22T12:36:49Z</time>
      </trkpt>
      <trkpt lat="44.82758" lon="3.45501">
        <ele>1282.06</ele>
        <time>2020-08-22T12:36:55Z</time>
      </trkpt>
      <trkpt lat="44.82751" lon="3.45495">
        <ele>1281.57</ele>
        <time>2020-08-22T12:37:01Z</time>
      </trkpt>
      <trkpt lat="44.82739" lon="3.45467">
        <ele>1280.13</ele>
        <time>2020-08-22T12:37:19Z</time>
      </trkpt>
      <trkpt lat="44.82731" lon="3.45445">
        <ele>1279.17</ele>
        <time>2020-08-22T12:37:35Z</time>
      </trkpt>
      <trkpt lat="44.82725" lon="3.45423">
        <ele>1276.77</ele>
        <time>2020-08-22T12:37:50Z</time>
      </trkpt>
      <trkpt lat="44.82718" lon="3.45396">
        <ele>1275.81</ele>
        <time>2020-08-22T12:38:08Z</time>
      </trkpt>
      <trkpt lat="44.82717" lon="3.45393">
        <ele>1275.81</ele>
        <time>2020-08-22T12:38:10Z</time>
      </trkpt>
      <trkpt lat="44.82706" lon="3.45373">
        <ele>1273.88</ele>
        <time>2020-08-22T12:38:26Z</time>
      </trkpt>
      <trkpt lat="44.82703" lon="3.4536">
        <ele>1272.92</ele>
        <time>2020-08-22T12:38:38Z</time>
      </trkpt>
      <trkpt lat="44.82697" lon="3.45355">
        <ele>1271.96</ele>
        <time>2020-08-22T12:38:50Z</time>
      </trkpt>
      <trkpt lat="44.82688" lon="3.45347">
        <ele>1270.04</ele>
        <time>2020-08-22T12:39:05Z</time>
      </trkpt>
      <trkpt lat="44.82685" lon="3.45335">
        <ele>1268.12</ele>
        <time>2020-08-22T12:39:18Z</time>
      </trkpt>
      <trkpt lat="44.82678" lon="3.45333">
        <ele>1266.19</ele>
        <time>2020-08-22T12:39:28Z</time>
      </trkpt>
      <trkpt lat="44.8267" lon="3.45332">
        <ele>1265.71</ele>
        <time>2020-08-22T12:39:44Z</time>
      </trkpt>
      <trkpt lat="44.82669" lon="3.45328">
        <ele>1264.75</ele>
        <time>2020-08-22T12:40:00Z</time>
      </trkpt>
      <trkpt lat="44.82668" lon="3.45328">
        <ele>1264.75</ele>
        <time>2020-08-22T12:40:15Z</time>
      </trkpt>
      <trkpt lat="44.82668" lon="3.45328">
        <ele>1264.75</ele>
        <time>2020-08-22T12:40:39Z</time>
      </trkpt>
      <trkpt lat="44.82665" lon="3.45328">
        <ele>1264.75</ele>
        <time>2020-08-22T12:40:59Z</time>
      </trkpt>
      <trkpt lat="44.82665" lon="3.45331">
        <ele>1264.75</ele>
        <time>2020-08-22T12:41:36Z</time>
      </trkpt>
      <trkpt lat="44.82663" lon="3.45333">
        <ele>1264.75</ele>
        <time>2020-08-22T12:42:14Z</time>
      </trkpt>
      <trkpt lat="44.82665" lon="3.45329">
        <ele>1264.75</ele>
        <time>2020-08-22T12:42:36Z</time>
      </trkpt>
      <trkpt lat="44.82664" lon="3.45324">
        <ele>1265.23</ele>
        <time>2020-08-22T12:42:59Z</time>
      </trkpt>
      <trkpt lat="44.82664" lon="3.45327">
        <ele>1265.23</ele>
        <time>2020-08-22T12:43:19Z</time>
      </trkpt>
      <trkpt lat="44.82665" lon="3.45328">
        <ele>1265.23</ele>
        <time>2020-08-22T12:43:37Z</time>
      </trkpt>
      <trkpt lat="44.82667" lon="3.45328">
        <ele>1265.23</ele>
        <time>2020-08-22T12:43:58Z</time>
      </trkpt>
      <trkpt lat="44.82663" lon="3.45328">
        <ele>1265.23</ele>
        <time>2020-08-22T12:44:25Z</time>
      </trkpt>
      <trkpt lat="44.82662" lon="3.45331">
        <ele>1265.23</ele>
        <time>2020-08-22T12:44:51Z</time>
      </trkpt>
      <trkpt lat="44.82663" lon="3.4533">
        <ele>1265.23</ele>
        <time>2020-08-22T12:45:16Z</time>
      </trkpt>
      <trkpt lat="44.82662" lon="3.4533">
        <ele>1265.23</ele>
        <time>2020-08-22T12:45:35Z</time>
      </trkpt>
      <trkpt lat="44.82662" lon="3.4533">
        <ele>1265.71</ele>
        <time>2020-08-22T12:46:01Z</time>
      </trkpt>
      <trkpt lat="44.82663" lon="3.45335">
        <ele>1265.71</ele>
        <time>2020-08-22T12:46:21Z</time>
      </trkpt>
      <trkpt lat="44.82663" lon="3.45331">
        <ele>1265.71</ele>
        <time>2020-08-22T12:46:46Z</time>
      </trkpt>
      <trkpt lat="44.82664" lon="3.45328">
        <ele>1265.23</ele>
        <time>2020-08-22T12:47:03Z</time>
      </trkpt>
      <trkpt lat="44.82664" lon="3.45326">
        <ele>1265.23</ele>
        <time>2020-08-22T12:47:24Z</time>
      </trkpt>
      <trkpt lat="44.82664" lon="3.45325">
        <ele>1265.23</ele>
        <time>2020-08-22T12:47:49Z</time>
      </trkpt>
      <trkpt lat="44.82664" lon="3.45326">
        <ele>1265.23</ele>
        <time>2020-08-22T12:48:16Z</time>
      </trkpt>
      <trkpt lat="44.82669" lon="3.45332">
        <ele>1266.67</ele>
        <time>2020-08-22T12:48:40Z</time>
      </trkpt>
      <trkpt lat="44.8267" lon="3.45332">
        <ele>1266.67</ele>
        <time>2020-08-22T12:48:41Z</time>
      </trkpt>
      <trkpt lat="44.82674" lon="3.45325">
        <ele>1267.64</ele>
        <time>2020-08-22T12:48:56Z</time>
      </trkpt>
      <trkpt lat="44.82668" lon="3.45316">
        <ele>1265.71</ele>
        <time>2020-08-22T12:49:08Z</time>
      </trkpt>
      <trkpt lat="44.82654" lon="3.45295">
        <ele>1263.79</ele>
        <time>2020-08-22T12:49:27Z</time>
      </trkpt>
      <trkpt lat="44.82642" lon="3.45281">
        <ele>1261.87</ele>
        <time>2020-08-22T12:49:42Z</time>
      </trkpt>
      <trkpt lat="44.82628" lon="3.45259">
        <ele>1259.94</ele>
        <time>2020-08-22T12:49:57Z</time>
      </trkpt>
      <trkpt lat="44.82623" lon="3.45235">
        <ele>1258.98</ele>
        <time>2020-08-22T12:50:11Z</time>
      </trkpt>
      <trkpt lat="44.82614" lon="3.45208">
        <ele>1258.02</ele>
        <time>2020-08-22T12:50:29Z</time>
      </trkpt>
      <trkpt lat="44.8261" lon="3.45183">
        <ele>1257.06</ele>
        <time>2020-08-22T12:50:43Z</time>
      </trkpt>
      <trkpt lat="44.82607" lon="3.45164">
        <ele>1257.06</ele>
        <time>2020-08-22T12:50:55Z</time>
      </trkpt>
      <trkpt lat="44.82605" lon="3.45157">
        <ele>1258.02</ele>
        <time>2020-08-22T12:51:00Z</time>
      </trkpt>
      <trkpt lat="44.82602" lon="3.45152">
        <ele>1258.5</ele>
        <time>2020-08-22T12:51:05Z</time>
      </trkpt>
      <trkpt lat="44.82593" lon="3.45146">
        <ele>1257.54</ele>
        <time>2020-08-22T12:51:14Z</time>
      </trkpt>
      <trkpt lat="44.82581" lon="3.4514">
        <ele>1256.1</ele>
        <time>2020-08-22T12:51:30Z</time>
      </trkpt>
      <trkpt lat="44.82562" lon="3.45124">
        <ele>1255.62</ele>
        <time>2020-08-22T12:51:51Z</time>
      </trkpt>
      <trkpt lat="44.82535" lon="3.45104">
        <ele>1254.18</ele>
        <time>2020-08-22T12:52:10Z</time>
      </trkpt>
      <trkpt lat="44.82511" lon="3.45084">
        <ele>1252.74</ele>
        <time>2020-08-22T12:52:30Z</time>
      </trkpt>
      <trkpt lat="44.82492" lon="3.45074">
        <ele>1249.85</ele>
        <time>2020-08-22T12:52:47Z</time>
      </trkpt>
      <trkpt lat="44.82474" lon="3.45054">
        <ele>1249.37</ele>
        <time>2020-08-22T12:53:04Z</time>
      </trkpt>
      <trkpt lat="44.82455" lon="3.45032">
        <ele>1246.97</ele>
        <time>2020-08-22T12:53:24Z</time>
      </trkpt>
      <trkpt lat="44.82445" lon="3.45007">
        <ele>1245.53</ele>
        <time>2020-08-22T12:53:41Z</time>
      </trkpt>
      <trkpt lat="44.82437" lon="3.44979">
        <ele>1243.6</ele>
        <time>2020-08-22T12:53:59Z</time>
      </trkpt>
      <trkpt lat="44.82437" lon="3.44945">
        <ele>1242.16</ele>
        <time>2020-08-22T12:54:17Z</time>
      </trkpt>
      <trkpt lat="44.82441" lon="3.44921">
        <ele>1240.24</ele>
        <time>2020-08-22T12:54:34Z</time>
      </trkpt>
      <trkpt lat="44.82442" lon="3.44907">
        <ele>1239.28</ele>
        <time>2020-08-22T12:54:42Z</time>
      </trkpt>
      <trkpt lat="44.82451" lon="3.44878">
        <ele>1237.35</ele>
        <time>2020-08-22T12:55:01Z</time>
      </trkpt>
      <trkpt lat="44.82455" lon="3.44864">
        <ele>1236.39</ele>
        <time>2020-08-22T12:55:09Z</time>
      </trkpt>
      <trkpt lat="44.8246" lon="3.44851">
        <ele>1235.91</ele>
        <time>2020-08-22T12:55:16Z</time>
      </trkpt>
      <trkpt lat="44.82469" lon="3.44822">
        <ele>1235.43</ele>
        <time>2020-08-22T12:55:33Z</time>
      </trkpt>
      <trkpt lat="44.82465" lon="3.44782">
        <ele>1234.95</ele>
        <time>2020-08-22T12:55:54Z</time>
      </trkpt>
      <trkpt lat="44.82455" lon="3.44751">
        <ele>1234.95</ele>
        <time>2020-08-22T12:56:13Z</time>
      </trkpt>
      <trkpt lat="44.82436" lon="3.44727">
        <ele>1235.91</ele>
        <time>2020-08-22T12:56:34Z</time>
      </trkpt>
      <trkpt lat="44.82428" lon="3.44716">
        <ele>1234.47</ele>
        <time>2020-08-22T12:56:43Z</time>
      </trkpt>
      <trkpt lat="44.82416" lon="3.44694">
        <ele>1233.51</ele>
        <time>2020-08-22T12:56:58Z</time>
      </trkpt>
      <trkpt lat="44.82405" lon="3.44669">
        <ele>1231.59</ele>
        <time>2020-08-22T12:57:15Z</time>
      </trkpt>
      <trkpt lat="44.82394" lon="3.44636">
        <ele>1230.62</ele>
        <time>2020-08-22T12:57:34Z</time>
      </trkpt>
      <trkpt lat="44.82382" lon="3.44613">
        <ele>1230.14</ele>
        <time>2020-08-22T12:57:52Z</time>
      </trkpt>
      <trkpt lat="44.82375" lon="3.44606">
        <ele>1230.14</ele>
        <time>2020-08-22T12:57:59Z</time>
      </trkpt>
      <trkpt lat="44.82356" lon="3.44593">
        <ele>1229.66</ele>
        <time>2020-08-22T12:58:17Z</time>
      </trkpt>
      <trkpt lat="44.82333" lon="3.4458">
        <ele>1229.66</ele>
        <time>2020-08-22T12:58:38Z</time>
      </trkpt>
      <trkpt lat="44.82331" lon="3.44579">
        <ele>1229.66</ele>
        <time>2020-08-22T12:58:40Z</time>
      </trkpt>
      <trkpt lat="44.82323" lon="3.44577">
        <ele>1231.11</ele>
        <time>2020-08-22T12:58:47Z</time>
      </trkpt>
      <trkpt lat="44.82309" lon="3.4457">
        <ele>1233.03</ele>
        <time>2020-08-22T12:59:03Z</time>
      </trkpt>
      <trkpt lat="44.82303" lon="3.44565">
        <ele>1233.51</ele>
        <time>2020-08-22T12:59:09Z</time>
      </trkpt>
      <trkpt lat="44.82284" lon="3.44549">
        <ele>1234.95</ele>
        <time>2020-08-22T12:59:27Z</time>
      </trkpt>
      <trkpt lat="44.82263" lon="3.44532">
        <ele>1235.43</ele>
        <time>2020-08-22T12:59:47Z</time>
      </trkpt>
      <trkpt lat="44.82243" lon="3.44517">
        <ele>1235.43</ele>
        <time>2020-08-22T13:00:06Z</time>
      </trkpt>
      <trkpt lat="44.82223" lon="3.44499">
        <ele>1235.43</ele>
        <time>2020-08-22T13:00:26Z</time>
      </trkpt>
      <trkpt lat="44.82201" lon="3.44472">
        <ele>1233.99</ele>
        <time>2020-08-22T13:00:49Z</time>
      </trkpt>
      <trkpt lat="44.82184" lon="3.44443">
        <ele>1233.51</ele>
        <time>2020-08-22T13:01:10Z</time>
      </trkpt>
      <trkpt lat="44.82167" lon="3.44409">
        <ele>1233.03</ele>
        <time>2020-08-22T13:01:33Z</time>
      </trkpt>
      <trkpt lat="44.82152" lon="3.44379">
        <ele>1232.55</ele>
        <time>2020-08-22T13:01:54Z</time>
      </trkpt>
      <trkpt lat="44.82138" lon="3.44352">
        <ele>1231.59</ele>
        <time>2020-08-22T13:02:15Z</time>
      </trkpt>
      <trkpt lat="44.82131" lon="3.44344">
        <ele>1231.11</ele>
        <time>2020-08-22T13:02:22Z</time>
      </trkpt>
      <trkpt lat="44.82108" lon="3.4432">
        <ele>1230.14</ele>
        <time>2020-08-22T13:02:44Z</time>
      </trkpt>
      <trkpt lat="44.8209" lon="3.44297">
        <ele>1229.18</ele>
        <time>2020-08-22T13:03:03Z</time>
      </trkpt>
      <trkpt lat="44.82082" lon="3.44283">
        <ele>1229.18</ele>
        <time>2020-08-22T13:03:21Z</time>
      </trkpt>
      <trkpt lat="44.82071" lon="3.44271">
        <ele>1228.22</ele>
        <time>2020-08-22T13:03:40Z</time>
      </trkpt>
      <trkpt lat="44.82053" lon="3.44241">
        <ele>1225.34</ele>
        <time>2020-08-22T13:04:02Z</time>
      </trkpt>
      <trkpt lat="44.82039" lon="3.44204">
        <ele>1223.42</ele>
        <time>2020-08-22T13:04:25Z</time>
      </trkpt>
      <trkpt lat="44.82021" lon="3.44171">
        <ele>1221.97</ele>
        <time>2020-08-22T13:04:47Z</time>
      </trkpt>
      <trkpt lat="44.8201" lon="3.44135">
        <ele>1220.53</ele>
        <time>2020-08-22T13:05:10Z</time>
      </trkpt>
      <trkpt lat="44.82001" lon="3.44106">
        <ele>1219.09</ele>
        <time>2020-08-22T13:05:28Z</time>
      </trkpt>
      <trkpt lat="44.81991" lon="3.44068">
        <ele>1216.21</ele>
        <time>2020-08-22T13:05:50Z</time>
      </trkpt>
      <trkpt lat="44.81983" lon="3.44033">
        <ele>1212.84</ele>
        <time>2020-08-22T13:06:10Z</time>
      </trkpt>
      <trkpt lat="44.81972" lon="3.43999">
        <ele>1210.44</ele>
        <time>2020-08-22T13:06:30Z</time>
      </trkpt>
      <trkpt lat="44.81957" lon="3.43977">
        <ele>1208.03</ele>
        <time>2020-08-22T13:06:50Z</time>
      </trkpt>
      <trkpt lat="44.8194" lon="3.43951">
        <ele>1204.67</ele>
        <time>2020-08-22T13:07:10Z</time>
      </trkpt>
      <trkpt lat="44.81921" lon="3.43927">
        <ele>1203.23</ele>
        <time>2020-08-22T13:07:30Z</time>
      </trkpt>
      <trkpt lat="44.81904" lon="3.43891">
        <ele>1201.3</ele>
        <time>2020-08-22T13:07:54Z</time>
      </trkpt>
      <trkpt lat="44.81894" lon="3.43861">
        <ele>1198.9</ele>
        <time>2020-08-22T13:08:12Z</time>
      </trkpt>
      <trkpt lat="44.81883" lon="3.43824">
        <ele>1196.98</ele>
        <time>2020-08-22T13:08:34Z</time>
      </trkpt>
      <trkpt lat="44.81875" lon="3.43782">
        <ele>1195.06</ele>
        <time>2020-08-22T13:08:59Z</time>
      </trkpt>
      <trkpt lat="44.81866" lon="3.43741">
        <ele>1194.09</ele>
        <time>2020-08-22T13:09:23Z</time>
      </trkpt>
      <trkpt lat="44.81861" lon="3.43698">
        <ele>1192.65</ele>
        <time>2020-08-22T13:09:47Z</time>
      </trkpt>
      <trkpt lat="44.81859" lon="3.43655">
        <ele>1191.21</ele>
        <time>2020-08-22T13:10:11Z</time>
      </trkpt>
      <trkpt lat="44.81854" lon="3.43609">
        <ele>1190.73</ele>
        <time>2020-08-22T13:10:37Z</time>
      </trkpt>
      <trkpt lat="44.81847" lon="3.43571">
        <ele>1190.25</ele>
        <time>2020-08-22T13:10:59Z</time>
      </trkpt>
      <trkpt lat="44.81839" lon="3.43522">
        <ele>1188.33</ele>
        <time>2020-08-22T13:11:27Z</time>
      </trkpt>
      <trkpt lat="44.81832" lon="3.43479">
        <ele>1187.37</ele>
        <time>2020-08-22T13:11:52Z</time>
      </trkpt>
      <trkpt lat="44.81825" lon="3.43437">
        <ele>1184.96</ele>
        <time>2020-08-22T13:12:17Z</time>
      </trkpt>
      <trkpt lat="44.81813" lon="3.43406">
        <ele>1183.52</ele>
        <time>2020-08-22T13:12:37Z</time>
      </trkpt>
      <trkpt lat="44.81799" lon="3.43369">
        <ele>1181.6</ele>
        <time>2020-08-22T13:13:01Z</time>
      </trkpt>
      <trkpt lat="44.81789" lon="3.43327">
        <ele>1178.71</ele>
        <time>2020-08-22T13:13:26Z</time>
      </trkpt>
      <trkpt lat="44.81779" lon="3.43286">
        <ele>1176.79</ele>
        <time>2020-08-22T13:13:50Z</time>
      </trkpt>
      <trkpt lat="44.8177" lon="3.43249">
        <ele>1173.91</ele>
        <time>2020-08-22T13:14:12Z</time>
      </trkpt>
      <trkpt lat="44.81763" lon="3.4322">
        <ele>1171.5</ele>
        <time>2020-08-22T13:14:30Z</time>
      </trkpt>
      <trkpt lat="44.81761" lon="3.4321">
        <ele>1171.02</ele>
        <time>2020-08-22T13:14:36Z</time>
      </trkpt>
      <trkpt lat="44.81753" lon="3.43177">
        <ele>1168.14</ele>
        <time>2020-08-22T13:14:55Z</time>
      </trkpt>
      <trkpt lat="44.81747" lon="3.43155">
        <ele>1166.7</ele>
        <time>2020-08-22T13:15:11Z</time>
      </trkpt>
      <trkpt lat="44.81748" lon="3.43156">
        <ele>1166.7</ele>
        <time>2020-08-22T13:15:15Z</time>
      </trkpt>
      <trkpt lat="44.81752" lon="3.43133">
        <ele>1166.22</ele>
        <time>2020-08-22T13:15:34Z</time>
      </trkpt>
      <trkpt lat="44.81752" lon="3.43131">
        <ele>1166.22</ele>
        <time>2020-08-22T13:15:39Z</time>
      </trkpt>
      <trkpt lat="44.81753" lon="3.431">
        <ele>1163.81</ele>
        <time>2020-08-22T13:15:57Z</time>
      </trkpt>
      <trkpt lat="44.81754" lon="3.43064">
        <ele>1160.45</ele>
        <time>2020-08-22T13:16:18Z</time>
      </trkpt>
      <trkpt lat="44.81755" lon="3.43027">
        <ele>1159.01</ele>
        <time>2020-08-22T13:16:39Z</time>
      </trkpt>
      <trkpt lat="44.81746" lon="3.42985">
        <ele>1157.08</ele>
        <time>2020-08-22T13:17:01Z</time>
      </trkpt>
      <trkpt lat="44.81737" lon="3.4295">
        <ele>1157.08</ele>
        <time>2020-08-22T13:17:23Z</time>
      </trkpt>
      <trkpt lat="44.81734" lon="3.42938">
        <ele>1157.08</ele>
        <time>2020-08-22T13:17:37Z</time>
      </trkpt>
      <trkpt lat="44.81734" lon="3.42936">
        <ele>1157.08</ele>
        <time>2020-08-22T13:17:48Z</time>
      </trkpt>
      <trkpt lat="44.81732" lon="3.42925">
        <ele>1157.08</ele>
        <time>2020-08-22T13:17:56Z</time>
      </trkpt>
      <trkpt lat="44.81732" lon="3.42919">
        <ele>1157.08</ele>
        <time>2020-08-22T13:18:02Z</time>
      </trkpt>
      <trkpt lat="44.81716" lon="3.42889">
        <ele>1158.05</ele>
        <time>2020-08-22T13:18:23Z</time>
      </trkpt>
      <trkpt lat="44.81704" lon="3.42871">
        <ele>1158.05</ele>
        <time>2020-08-22T13:18:38Z</time>
      </trkpt>
      <trkpt lat="44.81692" lon="3.42853">
        <ele>1158.53</ele>
        <time>2020-08-22T13:18:53Z</time>
      </trkpt>
      <trkpt lat="44.8169" lon="3.42849">
        <ele>1158.53</ele>
        <time>2020-08-22T13:18:56Z</time>
      </trkpt>
      <trkpt lat="44.81686" lon="3.42846">
        <ele>1158.53</ele>
        <time>2020-08-22T13:19:00Z</time>
      </trkpt>
      <trkpt lat="44.81683" lon="3.42843">
        <ele>1158.53</ele>
        <time>2020-08-22T13:19:03Z</time>
      </trkpt>
      <trkpt lat="44.81681" lon="3.42838">
        <ele>1158.53</ele>
        <time>2020-08-22T13:19:06Z</time>
      </trkpt>
      <trkpt lat="44.81667" lon="3.42823">
        <ele>1159.49</ele>
        <time>2020-08-22T13:19:23Z</time>
      </trkpt>
      <trkpt lat="44.81657" lon="3.4281">
        <ele>1159.97</ele>
        <time>2020-08-22T13:19:38Z</time>
      </trkpt>
      <trkpt lat="44.81648" lon="3.428">
        <ele>1160.45</ele>
        <time>2020-08-22T13:19:47Z</time>
      </trkpt>
      <trkpt lat="44.81646" lon="3.42799">
        <ele>1160.93</ele>
        <time>2020-08-22T13:19:49Z</time>
      </trkpt>
      <trkpt lat="44.81632" lon="3.42783">
        <ele>1161.41</ele>
        <time>2020-08-22T13:20:04Z</time>
      </trkpt>
      <trkpt lat="44.81629" lon="3.42779">
        <ele>1161.41</ele>
        <time>2020-08-22T13:20:07Z</time>
      </trkpt>
      <trkpt lat="44.81622" lon="3.42764">
        <ele>1162.37</ele>
        <time>2020-08-22T13:20:18Z</time>
      </trkpt>
      <trkpt lat="44.81615" lon="3.42749">
        <ele>1163.81</ele>
        <time>2020-08-22T13:20:33Z</time>
      </trkpt>
      <trkpt lat="44.81608" lon="3.4273">
        <ele>1164.77</ele>
        <time>2020-08-22T13:20:48Z</time>
      </trkpt>
      <trkpt lat="44.81599" lon="3.42709">
        <ele>1165.74</ele>
        <time>2020-08-22T13:21:03Z</time>
      </trkpt>
      <trkpt lat="44.81593" lon="3.42694">
        <ele>1166.7</ele>
        <time>2020-08-22T13:21:16Z</time>
      </trkpt>
      <trkpt lat="44.81586" lon="3.42674">
        <ele>1167.66</ele>
        <time>2020-08-22T13:21:31Z</time>
      </trkpt>
      <trkpt lat="44.81578" lon="3.42658">
        <ele>1169.58</ele>
        <time>2020-08-22T13:21:46Z</time>
      </trkpt>
      <trkpt lat="44.81574" lon="3.42642">
        <ele>1171.98</ele>
        <time>2020-08-22T13:22:00Z</time>
      </trkpt>
      <trkpt lat="44.81567" lon="3.42629">
        <ele>1173.43</ele>
        <time>2020-08-22T13:22:14Z</time>
      </trkpt>
      <trkpt lat="44.81558" lon="3.42611">
        <ele>1175.35</ele>
        <time>2020-08-22T13:22:29Z</time>
      </trkpt>
      <trkpt lat="44.81551" lon="3.42601">
        <ele>1177.27</ele>
        <time>2020-08-22T13:22:46Z</time>
      </trkpt>
      <trkpt lat="44.81541" lon="3.42576">
        <ele>1178.71</ele>
        <time>2020-08-22T13:23:01Z</time>
      </trkpt>
      <trkpt lat="44.81531" lon="3.42554">
        <ele>1180.16</ele>
        <time>2020-08-22T13:23:19Z</time>
      </trkpt>
      <trkpt lat="44.81518" lon="3.42537">
        <ele>1181.6</ele>
        <time>2020-08-22T13:23:32Z</time>
      </trkpt>
      <trkpt lat="44.81512" lon="3.42521">
        <ele>1182.08</ele>
        <time>2020-08-22T13:23:44Z</time>
      </trkpt>
      <trkpt lat="44.81502" lon="3.42502">
        <ele>1182.56</ele>
        <time>2020-08-22T13:23:58Z</time>
      </trkpt>
      <trkpt lat="44.81502" lon="3.42501">
        <ele>1182.56</ele>
        <time>2020-08-22T13:23:59Z</time>
      </trkpt>
      <trkpt lat="44.81494" lon="3.42482">
        <ele>1183.04</ele>
        <time>2020-08-22T13:24:16Z</time>
      </trkpt>
      <trkpt lat="44.81481" lon="3.4245">
        <ele>1183.52</ele>
        <time>2020-08-22T13:24:35Z</time>
      </trkpt>
      <trkpt lat="44.81471" lon="3.42424">
        <ele>1183.52</ele>
        <time>2020-08-22T13:24:53Z</time>
      </trkpt>
      <trkpt lat="44.81459" lon="3.42396">
        <ele>1184</ele>
        <time>2020-08-22T13:25:14Z</time>
      </trkpt>
      <trkpt lat="44.81447" lon="3.42371">
        <ele>1184</ele>
        <time>2020-08-22T13:25:35Z</time>
      </trkpt>
      <trkpt lat="44.81432" lon="3.42346">
        <ele>1184.48</ele>
        <time>2020-08-22T13:25:53Z</time>
      </trkpt>
      <trkpt lat="44.81418" lon="3.42324">
        <ele>1184</ele>
        <time>2020-08-22T13:26:11Z</time>
      </trkpt>
      <trkpt lat="44.81413" lon="3.42317">
        <ele>1184</ele>
        <time>2020-08-22T13:26:18Z</time>
      </trkpt>
      <trkpt lat="44.81394" lon="3.42295">
        <ele>1184</ele>
        <time>2020-08-22T13:26:37Z</time>
      </trkpt>
      <trkpt lat="44.81385" lon="3.42285">
        <ele>1184</ele>
        <time>2020-08-22T13:26:54Z</time>
      </trkpt>
      <trkpt lat="44.81377" lon="3.42275">
        <ele>1184.48</ele>
        <time>2020-08-22T13:27:12Z</time>
      </trkpt>
      <trkpt lat="44.81359" lon="3.42245">
        <ele>1184.48</ele>
        <time>2020-08-22T13:27:35Z</time>
      </trkpt>
      <trkpt lat="44.81355" lon="3.42242">
        <ele>1184.96</ele>
        <time>2020-08-22T13:27:40Z</time>
      </trkpt>
      <trkpt lat="44.81336" lon="3.42227">
        <ele>1185.44</ele>
        <time>2020-08-22T13:27:58Z</time>
      </trkpt>
      <trkpt lat="44.81322" lon="3.42214">
        <ele>1185.92</ele>
        <time>2020-08-22T13:28:13Z</time>
      </trkpt>
      <trkpt lat="44.81314" lon="3.42205">
        <ele>1185.92</ele>
        <time>2020-08-22T13:28:22Z</time>
      </trkpt>
      <trkpt lat="44.81311" lon="3.42203">
        <ele>1185.92</ele>
        <time>2020-08-22T13:28:25Z</time>
      </trkpt>
      <trkpt lat="44.81291" lon="3.42189">
        <ele>1186.4</ele>
        <time>2020-08-22T13:28:46Z</time>
      </trkpt>
      <trkpt lat="44.81277" lon="3.42181">
        <ele>1185.92</ele>
        <time>2020-08-22T13:29:01Z</time>
      </trkpt>
      <trkpt lat="44.81261" lon="3.42174">
        <ele>1186.4</ele>
        <time>2020-08-22T13:29:15Z</time>
      </trkpt>
      <trkpt lat="44.81244" lon="3.42167">
        <ele>1187.37</ele>
        <time>2020-08-22T13:29:27Z</time>
      </trkpt>
      <trkpt lat="44.81234" lon="3.42164">
        <ele>1187.85</ele>
        <time>2020-08-22T13:29:35Z</time>
      </trkpt>
      <trkpt lat="44.81218" lon="3.42153">
        <ele>1188.81</ele>
        <time>2020-08-22T13:29:48Z</time>
      </trkpt>
      <trkpt lat="44.81204" lon="3.4214">
        <ele>1188.33</ele>
        <time>2020-08-22T13:30:02Z</time>
      </trkpt>
      <trkpt lat="44.8119" lon="3.4212">
        <ele>1188.81</ele>
        <time>2020-08-22T13:30:18Z</time>
      </trkpt>
      <trkpt lat="44.8118" lon="3.42106">
        <ele>1190.25</ele>
        <time>2020-08-22T13:30:32Z</time>
      </trkpt>
      <trkpt lat="44.81175" lon="3.42094">
        <ele>1190.73</ele>
        <time>2020-08-22T13:30:43Z</time>
      </trkpt>
      <trkpt lat="44.81173" lon="3.42088">
        <ele>1191.21</ele>
        <time>2020-08-22T13:30:46Z</time>
      </trkpt>
      <trkpt lat="44.81165" lon="3.42064">
        <ele>1192.17</ele>
        <time>2020-08-22T13:31:01Z</time>
      </trkpt>
      <trkpt lat="44.81155" lon="3.42039">
        <ele>1193.13</ele>
        <time>2020-08-22T13:31:16Z</time>
      </trkpt>
      <trkpt lat="44.81148" lon="3.42024">
        <ele>1194.09</ele>
        <time>2020-08-22T13:31:27Z</time>
      </trkpt>
      <trkpt lat="44.81138" lon="3.41996">
        <ele>1194.58</ele>
        <time>2020-08-22T13:31:43Z</time>
      </trkpt>
      <trkpt lat="44.81127" lon="3.41977">
        <ele>1194.58</ele>
        <time>2020-08-22T13:31:58Z</time>
      </trkpt>
      <trkpt lat="44.81121" lon="3.41962">
        <ele>1194.58</ele>
        <time>2020-08-22T13:32:12Z</time>
      </trkpt>
      <trkpt lat="44.81114" lon="3.41952">
        <ele>1194.58</ele>
        <time>2020-08-22T13:32:20Z</time>
      </trkpt>
      <trkpt lat="44.81104" lon="3.41933">
        <ele>1194.58</ele>
        <time>2020-08-22T13:32:33Z</time>
      </trkpt>
      <trkpt lat="44.81092" lon="3.41913">
        <ele>1194.58</ele>
        <time>2020-08-22T13:32:48Z</time>
      </trkpt>
      <trkpt lat="44.81083" lon="3.41896">
        <ele>1194.58</ele>
        <time>2020-08-22T13:33:00Z</time>
      </trkpt>
      <trkpt lat="44.81075" lon="3.41887">
        <ele>1194.09</ele>
        <time>2020-08-22T13:33:09Z</time>
      </trkpt>
      <trkpt lat="44.81073" lon="3.41884">
        <ele>1194.09</ele>
        <time>2020-08-22T13:33:12Z</time>
      </trkpt>
      <trkpt lat="44.81064" lon="3.41875">
        <ele>1194.09</ele>
        <time>2020-08-22T13:33:23Z</time>
      </trkpt>
      <trkpt lat="44.81062" lon="3.41872">
        <ele>1194.09</ele>
        <time>2020-08-22T13:33:25Z</time>
      </trkpt>
      <trkpt lat="44.81045" lon="3.41855">
        <ele>1194.09</ele>
        <time>2020-08-22T13:33:43Z</time>
      </trkpt>
      <trkpt lat="44.8103" lon="3.41838">
        <ele>1194.09</ele>
        <time>2020-08-22T13:34:01Z</time>
      </trkpt>
      <trkpt lat="44.81026" lon="3.41831">
        <ele>1192.65</ele>
        <time>2020-08-22T13:34:11Z</time>
      </trkpt>
      <trkpt lat="44.81007" lon="3.4182">
        <ele>1191.69</ele>
        <time>2020-08-22T13:34:29Z</time>
      </trkpt>
      <trkpt lat="44.80987" lon="3.41797">
        <ele>1190.25</ele>
        <time>2020-08-22T13:34:50Z</time>
      </trkpt>
      <trkpt lat="44.80966" lon="3.41771">
        <ele>1189.29</ele>
        <time>2020-08-22T13:35:10Z</time>
      </trkpt>
      <trkpt lat="44.80951" lon="3.4175">
        <ele>1187.85</ele>
        <time>2020-08-22T13:35:26Z</time>
      </trkpt>
      <trkpt lat="44.80938" lon="3.41734">
        <ele>1186.88</ele>
        <time>2020-08-22T13:35:43Z</time>
      </trkpt>
      <trkpt lat="44.80924" lon="3.41712">
        <ele>1184.96</ele>
        <time>2020-08-22T13:36:02Z</time>
      </trkpt>
      <trkpt lat="44.80921" lon="3.41707">
        <ele>1184.96</ele>
        <time>2020-08-22T13:36:05Z</time>
      </trkpt>
      <trkpt lat="44.80904" lon="3.41683">
        <ele>1183.52</ele>
        <time>2020-08-22T13:36:24Z</time>
      </trkpt>
      <trkpt lat="44.80895" lon="3.41667">
        <ele>1182.56</ele>
        <time>2020-08-22T13:36:34Z</time>
      </trkpt>
      <trkpt lat="44.80879" lon="3.4164">
        <ele>1181.12</ele>
        <time>2020-08-22T13:36:54Z</time>
      </trkpt>
      <trkpt lat="44.80858" lon="3.41615">
        <ele>1178.71</ele>
        <time>2020-08-22T13:37:15Z</time>
      </trkpt>
      <trkpt lat="44.80839" lon="3.41598">
        <ele>1177.75</ele>
        <time>2020-08-22T13:37:31Z</time>
      </trkpt>
      <trkpt lat="44.80819" lon="3.41586">
        <ele>1175.83</ele>
        <time>2020-08-22T13:37:47Z</time>
      </trkpt>
      <trkpt lat="44.80801" lon="3.41574">
        <ele>1174.87</ele>
        <time>2020-08-22T13:38:04Z</time>
      </trkpt>
      <trkpt lat="44.80779" lon="3.41553">
        <ele>1173.43</ele>
        <time>2020-08-22T13:38:24Z</time>
      </trkpt>
      <trkpt lat="44.80759" lon="3.41538">
        <ele>1172.47</ele>
        <time>2020-08-22T13:38:42Z</time>
      </trkpt>
      <trkpt lat="44.80735" lon="3.41524">
        <ele>1171.5</ele>
        <time>2020-08-22T13:39:01Z</time>
      </trkpt>
      <trkpt lat="44.80709" lon="3.41506">
        <ele>1170.06</ele>
        <time>2020-08-22T13:39:21Z</time>
      </trkpt>
      <trkpt lat="44.8069" lon="3.41491">
        <ele>1169.58</ele>
        <time>2020-08-22T13:39:40Z</time>
      </trkpt>
      <trkpt lat="44.80674" lon="3.41478">
        <ele>1168.14</ele>
        <time>2020-08-22T13:39:55Z</time>
      </trkpt>
      <trkpt lat="44.80657" lon="3.41466">
        <ele>1167.66</ele>
        <time>2020-08-22T13:40:14Z</time>
      </trkpt>
      <trkpt lat="44.80639" lon="3.41455">
        <ele>1166.7</ele>
        <time>2020-08-22T13:40:33Z</time>
      </trkpt>
      <trkpt lat="44.80619" lon="3.41437">
        <ele>1165.74</ele>
        <time>2020-08-22T13:40:51Z</time>
      </trkpt>
      <trkpt lat="44.80596" lon="3.41419">
        <ele>1164.29</ele>
        <time>2020-08-22T13:41:10Z</time>
      </trkpt>
      <trkpt lat="44.80576" lon="3.41399">
        <ele>1163.33</ele>
        <time>2020-08-22T13:41:30Z</time>
      </trkpt>
      <trkpt lat="44.80551" lon="3.41378">
        <ele>1161.41</ele>
        <time>2020-08-22T13:41:51Z</time>
      </trkpt>
      <trkpt lat="44.8053" lon="3.41365">
        <ele>1160.45</ele>
        <time>2020-08-22T13:42:09Z</time>
      </trkpt>
      <trkpt lat="44.80508" lon="3.41343">
        <ele>1159.97</ele>
        <time>2020-08-22T13:42:28Z</time>
      </trkpt>
      <trkpt lat="44.80491" lon="3.41318">
        <ele>1159.49</ele>
        <time>2020-08-22T13:42:47Z</time>
      </trkpt>
      <trkpt lat="44.80476" lon="3.41303">
        <ele>1158.05</ele>
        <time>2020-08-22T13:43:06Z</time>
      </trkpt>
      <trkpt lat="44.80456" lon="3.41281">
        <ele>1156.12</ele>
        <time>2020-08-22T13:43:25Z</time>
      </trkpt>
      <trkpt lat="44.80437" lon="3.41259">
        <ele>1154.2</ele>
        <time>2020-08-22T13:43:45Z</time>
      </trkpt>
      <trkpt lat="44.80432" lon="3.41231">
        <ele>1152.76</ele>
        <time>2020-08-22T13:44:04Z</time>
      </trkpt>
      <trkpt lat="44.80435" lon="3.41206">
        <ele>1150.84</ele>
        <time>2020-08-22T13:44:22Z</time>
      </trkpt>
      <trkpt lat="44.80441" lon="3.41171">
        <ele>1148.91</ele>
        <time>2020-08-22T13:44:43Z</time>
      </trkpt>
      <trkpt lat="44.80449" lon="3.41133">
        <ele>1147.47</ele>
        <time>2020-08-22T13:45:04Z</time>
      </trkpt>
      <trkpt lat="44.80461" lon="3.41103">
        <ele>1145.55</ele>
        <time>2020-08-22T13:45:21Z</time>
      </trkpt>
      <trkpt lat="44.80472" lon="3.41077">
        <ele>1144.11</ele>
        <time>2020-08-22T13:45:39Z</time>
      </trkpt>
      <trkpt lat="44.80488" lon="3.41055">
        <ele>1141.22</ele>
        <time>2020-08-22T13:45:59Z</time>
      </trkpt>
      <trkpt lat="44.80506" lon="3.41025">
        <ele>1139.78</ele>
        <time>2020-08-22T13:46:19Z</time>
      </trkpt>
      <trkpt lat="44.80522" lon="3.41006">
        <ele>1138.34</ele>
        <time>2020-08-22T13:46:35Z</time>
      </trkpt>
      <trkpt lat="44.80527" lon="3.40998">
        <ele>1138.34</ele>
        <time>2020-08-22T13:46:40Z</time>
      </trkpt>
      <trkpt lat="44.80543" lon="3.40967">
        <ele>1135.45</ele>
        <time>2020-08-22T13:46:59Z</time>
      </trkpt>
      <trkpt lat="44.80552" lon="3.40944">
        <ele>1134.49</ele>
        <time>2020-08-22T13:47:14Z</time>
      </trkpt>
      <trkpt lat="44.80552" lon="3.40925">
        <ele>1133.05</ele>
        <time>2020-08-22T13:47:27Z</time>
      </trkpt>
      <trkpt lat="44.8054" lon="3.40922">
        <ele>1130.17</ele>
        <time>2020-08-22T13:47:43Z</time>
      </trkpt>
      <trkpt lat="44.80536" lon="3.40925">
        <ele>1129.69</ele>
        <time>2020-08-22T13:47:47Z</time>
      </trkpt>
      <trkpt lat="44.80528" lon="3.40933">
        <ele>1128.73</ele>
        <time>2020-08-22T13:47:55Z</time>
      </trkpt>
      <trkpt lat="44.80523" lon="3.40937">
        <ele>1128.24</ele>
        <time>2020-08-22T13:47:59Z</time>
      </trkpt>
      <trkpt lat="44.80509" lon="3.40948">
        <ele>1127.76</ele>
        <time>2020-08-22T13:48:13Z</time>
      </trkpt>
      <trkpt lat="44.80501" lon="3.40953">
        <ele>1126.8</ele>
        <time>2020-08-22T13:48:20Z</time>
      </trkpt>
      <trkpt lat="44.80485" lon="3.40957">
        <ele>1125.36</ele>
        <time>2020-08-22T13:48:37Z</time>
      </trkpt>
      <trkpt lat="44.80469" lon="3.40961">
        <ele>1123.92</ele>
        <time>2020-08-22T13:48:54Z</time>
      </trkpt>
      <trkpt lat="44.80451" lon="3.40966">
        <ele>1121.52</ele>
        <time>2020-08-22T13:49:12Z</time>
      </trkpt>
      <trkpt lat="44.80439" lon="3.40971">
        <ele>1121.03</ele>
        <time>2020-08-22T13:49:22Z</time>
      </trkpt>
      <trkpt lat="44.80412" lon="3.40986">
        <ele>1118.63</ele>
        <time>2020-08-22T13:49:43Z</time>
      </trkpt>
      <trkpt lat="44.80392" lon="3.40992">
        <ele>1117.67</ele>
        <time>2020-08-22T13:50:00Z</time>
      </trkpt>
      <trkpt lat="44.80371" lon="3.40997">
        <ele>1116.71</ele>
        <time>2020-08-22T13:50:18Z</time>
      </trkpt>
      <trkpt lat="44.80355" lon="3.41006">
        <ele>1114.79</ele>
        <time>2020-08-22T13:50:35Z</time>
      </trkpt>
      <trkpt lat="44.80338" lon="3.41027">
        <ele>1113.82</ele>
        <time>2020-08-22T13:50:50Z</time>
      </trkpt>
      <trkpt lat="44.80333" lon="3.41032">
        <ele>1113.34</ele>
        <time>2020-08-22T13:50:55Z</time>
      </trkpt>
      <trkpt lat="44.80324" lon="3.41042">
        <ele>1112.38</ele>
        <time>2020-08-22T13:51:04Z</time>
      </trkpt>
      <trkpt lat="44.80315" lon="3.41052">
        <ele>1111.42</ele>
        <time>2020-08-22T13:51:17Z</time>
      </trkpt>
      <trkpt lat="44.80305" lon="3.41067">
        <ele>1109.5</ele>
        <time>2020-08-22T13:51:30Z</time>
      </trkpt>
      <trkpt lat="44.80289" lon="3.41084">
        <ele>1109.02</ele>
        <time>2020-08-22T13:51:44Z</time>
      </trkpt>
      <trkpt lat="44.8027" lon="3.41108">
        <ele>1106.61</ele>
        <time>2020-08-22T13:52:05Z</time>
      </trkpt>
      <trkpt lat="44.80261" lon="3.41115">
        <ele>1105.17</ele>
        <time>2020-08-22T13:52:16Z</time>
      </trkpt>
      <trkpt lat="44.80246" lon="3.41103">
        <ele>1104.21</ele>
        <time>2020-08-22T13:52:34Z</time>
      </trkpt>
      <trkpt lat="44.80259" lon="3.41077">
        <ele>1103.73</ele>
        <time>2020-08-22T13:52:57Z</time>
      </trkpt>
      <trkpt lat="44.80272" lon="3.4105">
        <ele>1102.77</ele>
        <time>2020-08-22T13:53:17Z</time>
      </trkpt>
      <trkpt lat="44.80275" lon="3.41042">
        <ele>1102.77</ele>
        <time>2020-08-22T13:53:23Z</time>
      </trkpt>
      <trkpt lat="44.80283" lon="3.4101">
        <ele>1101.33</ele>
        <time>2020-08-22T13:53:42Z</time>
      </trkpt>
      <trkpt lat="44.80291" lon="3.40981">
        <ele>1100.85</ele>
        <time>2020-08-22T13:54:00Z</time>
      </trkpt>
      <trkpt lat="44.80299" lon="3.40955">
        <ele>1098.92</ele>
        <time>2020-08-22T13:54:19Z</time>
      </trkpt>
      <trkpt lat="44.80303" lon="3.40937">
        <ele>1097.96</ele>
        <time>2020-08-22T13:54:32Z</time>
      </trkpt>
      <trkpt lat="44.80304" lon="3.40919">
        <ele>1096.04</ele>
        <time>2020-08-22T13:54:45Z</time>
      </trkpt>
      <trkpt lat="44.80305" lon="3.40887">
        <ele>1095.56</ele>
        <time>2020-08-22T13:55:01Z</time>
      </trkpt>
      <trkpt lat="44.80297" lon="3.40858">
        <ele>1095.08</ele>
        <time>2020-08-22T13:55:18Z</time>
      </trkpt>
      <trkpt lat="44.80284" lon="3.40833">
        <ele>1094.6</ele>
        <time>2020-08-22T13:55:38Z</time>
      </trkpt>
      <trkpt lat="44.80273" lon="3.40805">
        <ele>1093.64</ele>
        <time>2020-08-22T13:55:58Z</time>
      </trkpt>
      <trkpt lat="44.8026" lon="3.40784">
        <ele>1091.23</ele>
        <time>2020-08-22T13:56:14Z</time>
      </trkpt>
      <trkpt lat="44.80253" lon="3.40759">
        <ele>1087.87</ele>
        <time>2020-08-22T13:56:30Z</time>
      </trkpt>
      <trkpt lat="44.80247" lon="3.40719">
        <ele>1087.39</ele>
        <time>2020-08-22T13:56:50Z</time>
      </trkpt>
      <trkpt lat="44.8025" lon="3.40691">
        <ele>1087.39</ele>
        <time>2020-08-22T13:57:06Z</time>
      </trkpt>
      <trkpt lat="44.8025" lon="3.40687">
        <ele>1087.39</ele>
        <time>2020-08-22T13:57:09Z</time>
      </trkpt>
      <trkpt lat="44.80253" lon="3.40657">
        <ele>1085.95</ele>
        <time>2020-08-22T13:57:27Z</time>
      </trkpt>
      <trkpt lat="44.80256" lon="3.40628">
        <ele>1084.02</ele>
        <time>2020-08-22T13:57:46Z</time>
      </trkpt>
      <trkpt lat="44.80259" lon="3.40618">
        <ele>1084.02</ele>
        <time>2020-08-22T13:57:54Z</time>
      </trkpt>
      <trkpt lat="44.80274" lon="3.40584">
        <ele>1083.06</ele>
        <time>2020-08-22T13:58:15Z</time>
      </trkpt>
      <trkpt lat="44.80277" lon="3.40554">
        <ele>1082.1</ele>
        <time>2020-08-22T13:58:30Z</time>
      </trkpt>
      <trkpt lat="44.80277" lon="3.40539">
        <ele>1078.74</ele>
        <time>2020-08-22T13:58:40Z</time>
      </trkpt>
      <trkpt lat="44.80284" lon="3.40509">
        <ele>1076.33</ele>
        <time>2020-08-22T13:59:01Z</time>
      </trkpt>
      <trkpt lat="44.80285" lon="3.40504">
        <ele>1074.89</ele>
        <time>2020-08-22T13:59:04Z</time>
      </trkpt>
      <trkpt lat="44.80292" lon="3.40473">
        <ele>1072.01</ele>
        <time>2020-08-22T13:59:23Z</time>
      </trkpt>
      <trkpt lat="44.80299" lon="3.40449">
        <ele>1068.64</ele>
        <time>2020-08-22T13:59:41Z</time>
      </trkpt>
      <trkpt lat="44.80304" lon="3.40414">
        <ele>1066.72</ele>
        <time>2020-08-22T13:59:59Z</time>
      </trkpt>
      <trkpt lat="44.80298" lon="3.4038">
        <ele>1063.36</ele>
        <time>2020-08-22T14:00:18Z</time>
      </trkpt>
      <trkpt lat="44.8029" lon="3.40348">
        <ele>1061.43</ele>
        <time>2020-08-22T14:00:37Z</time>
      </trkpt>
      <trkpt lat="44.80275" lon="3.40327">
        <ele>1060.47</ele>
        <time>2020-08-22T14:00:54Z</time>
      </trkpt>
      <trkpt lat="44.8026" lon="3.40303">
        <ele>1057.59</ele>
        <time>2020-08-22T14:01:15Z</time>
      </trkpt>
      <trkpt lat="44.80252" lon="3.40274">
        <ele>1056.15</ele>
        <time>2020-08-22T14:01:34Z</time>
      </trkpt>
      <trkpt lat="44.80246" lon="3.40247">
        <ele>1053.74</ele>
        <time>2020-08-22T14:01:53Z</time>
      </trkpt>
      <trkpt lat="44.80242" lon="3.40211">
        <ele>1051.82</ele>
        <time>2020-08-22T14:02:14Z</time>
      </trkpt>
      <trkpt lat="44.80241" lon="3.40168">
        <ele>1050.86</ele>
        <time>2020-08-22T14:02:37Z</time>
      </trkpt>
      <trkpt lat="44.80238" lon="3.40138">
        <ele>1049.42</ele>
        <time>2020-08-22T14:02:57Z</time>
      </trkpt>
      <trkpt lat="44.80234" lon="3.40126">
        <ele>1048.45</ele>
        <time>2020-08-22T14:03:13Z</time>
      </trkpt>
      <trkpt lat="44.8022" lon="3.40107">
        <ele>1047.49</ele>
        <time>2020-08-22T14:03:31Z</time>
      </trkpt>
      <trkpt lat="44.80202" lon="3.40087">
        <ele>1045.57</ele>
        <time>2020-08-22T14:03:49Z</time>
      </trkpt>
      <trkpt lat="44.8019" lon="3.40078">
        <ele>1045.57</ele>
        <time>2020-08-22T14:03:58Z</time>
      </trkpt>
      <trkpt lat="44.80166" lon="3.40055">
        <ele>1045.09</ele>
        <time>2020-08-22T14:04:19Z</time>
      </trkpt>
      <trkpt lat="44.80145" lon="3.40042">
        <ele>1044.61</ele>
        <time>2020-08-22T14:04:40Z</time>
      </trkpt>
      <trkpt lat="44.80124" lon="3.40029">
        <ele>1043.65</ele>
        <time>2020-08-22T14:04:59Z</time>
      </trkpt>
      <trkpt lat="44.80111" lon="3.40005">
        <ele>1042.69</ele>
        <time>2020-08-22T14:05:16Z</time>
      </trkpt>
      <trkpt lat="44.80109" lon="3.40003">
        <ele>1043.65</ele>
        <time>2020-08-22T14:05:33Z</time>
      </trkpt>
      <trkpt lat="44.80101" lon="3.39988">
        <ele>1042.69</ele>
        <time>2020-08-22T14:05:53Z</time>
      </trkpt>
      <trkpt lat="44.80095" lon="3.39983">
        <ele>1041.25</ele>
        <time>2020-08-22T14:06:00Z</time>
      </trkpt>
      <trkpt lat="44.80087" lon="3.39988">
        <ele>1040.28</ele>
        <time>2020-08-22T14:06:09Z</time>
      </trkpt>
      <trkpt lat="44.80075" lon="3.40017">
        <ele>1036.92</ele>
        <time>2020-08-22T14:06:29Z</time>
      </trkpt>
      <trkpt lat="44.80068" lon="3.40024">
        <ele>1035.48</ele>
        <time>2020-08-22T14:06:37Z</time>
      </trkpt>
      <trkpt lat="44.80061" lon="3.40024">
        <ele>1035.48</ele>
        <time>2020-08-22T14:06:42Z</time>
      </trkpt>
      <trkpt lat="44.80041" lon="3.40015">
        <ele>1035.96</ele>
        <time>2020-08-22T14:06:59Z</time>
      </trkpt>
      <trkpt lat="44.8001" lon="3.40005">
        <ele>1033.55</ele>
        <time>2020-08-22T14:07:25Z</time>
      </trkpt>
      <trkpt lat="44.79986" lon="3.39994">
        <ele>1032.11</ele>
        <time>2020-08-22T14:07:46Z</time>
      </trkpt>
      <trkpt lat="44.79957" lon="3.3999">
        <ele>1030.67</ele>
        <time>2020-08-22T14:08:10Z</time>
      </trkpt>
      <trkpt lat="44.79928" lon="3.39978">
        <ele>1029.23</ele>
        <time>2020-08-22T14:08:34Z</time>
      </trkpt>
      <trkpt lat="44.799" lon="3.39966">
        <ele>1028.75</ele>
        <time>2020-08-22T14:08:57Z</time>
      </trkpt>
      <trkpt lat="44.79874" lon="3.39955">
        <ele>1027.31</ele>
        <time>2020-08-22T14:09:18Z</time>
      </trkpt>
      <trkpt lat="44.79851" lon="3.39949">
        <ele>1026.34</ele>
        <time>2020-08-22T14:09:36Z</time>
      </trkpt>
      <trkpt lat="44.79829" lon="3.39939">
        <ele>1024.9</ele>
        <time>2020-08-22T14:09:55Z</time>
      </trkpt>
      <trkpt lat="44.79805" lon="3.39924">
        <ele>1023.94</ele>
        <time>2020-08-22T14:10:15Z</time>
      </trkpt>
      <trkpt lat="44.79782" lon="3.3991">
        <ele>1021.06</ele>
        <time>2020-08-22T14:10:36Z</time>
      </trkpt>
      <trkpt lat="44.79759" lon="3.39894">
        <ele>1021.06</ele>
        <time>2020-08-22T14:10:56Z</time>
      </trkpt>
      <trkpt lat="44.79731" lon="3.39875">
        <ele>1020.1</ele>
        <time>2020-08-22T14:11:20Z</time>
      </trkpt>
      <trkpt lat="44.79703" lon="3.39861">
        <ele>1019.62</ele>
        <time>2020-08-22T14:11:44Z</time>
      </trkpt>
      <trkpt lat="44.79676" lon="3.39849">
        <ele>1019.13</ele>
        <time>2020-08-22T14:12:05Z</time>
      </trkpt>
      <trkpt lat="44.79649" lon="3.39836">
        <ele>1018.65</ele>
        <time>2020-08-22T14:12:26Z</time>
      </trkpt>
      <trkpt lat="44.79626" lon="3.39819">
        <ele>1018.65</ele>
        <time>2020-08-22T14:12:47Z</time>
      </trkpt>
      <trkpt lat="44.79606" lon="3.39798">
        <ele>1018.65</ele>
        <time>2020-08-22T14:13:07Z</time>
      </trkpt>
      <trkpt lat="44.79589" lon="3.39776">
        <ele>1018.17</ele>
        <time>2020-08-22T14:13:27Z</time>
      </trkpt>
      <trkpt lat="44.79571" lon="3.39748">
        <ele>1017.69</ele>
        <time>2020-08-22T14:13:48Z</time>
      </trkpt>
      <trkpt lat="44.79548" lon="3.39711">
        <ele>1017.21</ele>
        <time>2020-08-22T14:14:15Z</time>
      </trkpt>
      <trkpt lat="44.79522" lon="3.39678">
        <ele>1017.21</ele>
        <time>2020-08-22T14:14:42Z</time>
      </trkpt>
      <trkpt lat="44.79502" lon="3.39654">
        <ele>1017.21</ele>
        <time>2020-08-22T14:15:02Z</time>
      </trkpt>
      <trkpt lat="44.79484" lon="3.39631">
        <ele>1016.73</ele>
        <time>2020-08-22T14:15:22Z</time>
      </trkpt>
      <trkpt lat="44.7947" lon="3.39616">
        <ele>1015.77</ele>
        <time>2020-08-22T14:15:41Z</time>
      </trkpt>
      <trkpt lat="44.7947" lon="3.39616">
        <ele>1015.77</ele>
        <time>2020-08-22T14:16:20Z</time>
      </trkpt>
      <trkpt lat="44.79469" lon="3.39615">
        <ele>1015.77</ele>
        <time>2020-08-22T14:16:57Z</time>
      </trkpt>
      <trkpt lat="44.79469" lon="3.39615">
        <ele>1015.77</ele>
        <time>2020-08-22T14:17:34Z</time>
      </trkpt>
      <trkpt lat="44.7947" lon="3.39614">
        <ele>1015.77</ele>
        <time>2020-08-22T14:18:06Z</time>
      </trkpt>
      <trkpt lat="44.7947" lon="3.39615">
        <ele>1015.77</ele>
        <time>2020-08-22T14:18:42Z</time>
      </trkpt>
      <trkpt lat="44.79469" lon="3.39614">
        <ele>1015.77</ele>
        <time>2020-08-22T14:19:03Z</time>
      </trkpt>
      <trkpt lat="44.79467" lon="3.39612">
        <ele>1015.77</ele>
        <time>2020-08-22T14:19:27Z</time>
      </trkpt>
      <trkpt lat="44.79466" lon="3.3961">
        <ele>1015.77</ele>
        <time>2020-08-22T14:19:34Z</time>
      </trkpt>
      <trkpt lat="44.79452" lon="3.39589">
        <ele>1012.41</ele>
        <time>2020-08-22T14:19:54Z</time>
      </trkpt>
      <trkpt lat="44.79438" lon="3.39566">
        <ele>1010</ele>
        <time>2020-08-22T14:20:13Z</time>
      </trkpt>
      <trkpt lat="44.79435" lon="3.39538">
        <ele>1007.6</ele>
        <time>2020-08-22T14:20:30Z</time>
      </trkpt>
      <trkpt lat="44.79425" lon="3.39511">
        <ele>1006.16</ele>
        <time>2020-08-22T14:20:49Z</time>
      </trkpt>
      <trkpt lat="44.79405" lon="3.39494">
        <ele>1006.16</ele>
        <time>2020-08-22T14:21:08Z</time>
      </trkpt>
      <trkpt lat="44.79395" lon="3.39488">
        <ele>1006.16</ele>
        <time>2020-08-22T14:21:22Z</time>
      </trkpt>
      <trkpt lat="44.79379" lon="3.3948">
        <ele>1006.16</ele>
        <time>2020-08-22T14:21:38Z</time>
      </trkpt>
      <trkpt lat="44.79366" lon="3.39471">
        <ele>1007.6</ele>
        <time>2020-08-22T14:21:50Z</time>
      </trkpt>
      <trkpt lat="44.79355" lon="3.39459">
        <ele>1008.56</ele>
        <time>2020-08-22T14:22:05Z</time>
      </trkpt>
      <trkpt lat="44.79341" lon="3.39442">
        <ele>1010.48</ele>
        <time>2020-08-22T14:22:22Z</time>
      </trkpt>
      <trkpt lat="44.7933" lon="3.39435">
        <ele>1011.44</ele>
        <time>2020-08-22T14:22:35Z</time>
      </trkpt>
      <trkpt lat="44.79321" lon="3.39428">
        <ele>1012.89</ele>
        <time>2020-08-22T14:22:48Z</time>
      </trkpt>
      <trkpt lat="44.79312" lon="3.39418">
        <ele>1014.33</ele>
        <time>2020-08-22T14:23:01Z</time>
      </trkpt>
      <trkpt lat="44.79302" lon="3.39402">
        <ele>1015.29</ele>
        <time>2020-08-22T14:23:16Z</time>
      </trkpt>
      <trkpt lat="44.79291" lon="3.39384">
        <ele>1017.21</ele>
        <time>2020-08-22T14:23:32Z</time>
      </trkpt>
      <trkpt lat="44.79281" lon="3.39368">
        <ele>1018.65</ele>
        <time>2020-08-22T14:23:47Z</time>
      </trkpt>
      <trkpt lat="44.79268" lon="3.39353">
        <ele>1019.13</ele>
        <time>2020-08-22T14:24:03Z</time>
      </trkpt>
      <trkpt lat="44.79254" lon="3.39342">
        <ele>1020.1</ele>
        <time>2020-08-22T14:24:18Z</time>
      </trkpt>
      <trkpt lat="44.79243" lon="3.39332">
        <ele>1020.58</ele>
        <time>2020-08-22T14:24:30Z</time>
      </trkpt>
      <trkpt lat="44.7924" lon="3.3933">
        <ele>1021.06</ele>
        <time>2020-08-22T14:24:33Z</time>
      </trkpt>
      <trkpt lat="44.79224" lon="3.39322">
        <ele>1022.5</ele>
        <time>2020-08-22T14:24:50Z</time>
      </trkpt>
      <trkpt lat="44.79209" lon="3.39315">
        <ele>1022.98</ele>
        <time>2020-08-22T14:25:04Z</time>
      </trkpt>
      <trkpt lat="44.79192" lon="3.39307">
        <ele>1024.42</ele>
        <time>2020-08-22T14:25:20Z</time>
      </trkpt>
      <trkpt lat="44.79177" lon="3.39301">
        <ele>1024.9</ele>
        <time>2020-08-22T14:25:34Z</time>
      </trkpt>
      <trkpt lat="44.79159" lon="3.39293">
        <ele>1025.86</ele>
        <time>2020-08-22T14:25:51Z</time>
      </trkpt>
      <trkpt lat="44.79153" lon="3.39292">
        <ele>1025.86</ele>
        <time>2020-08-22T14:25:56Z</time>
      </trkpt>
      <trkpt lat="44.79133" lon="3.39283">
        <ele>1026.34</ele>
        <time>2020-08-22T14:26:15Z</time>
      </trkpt>
      <trkpt lat="44.79117" lon="3.39278">
        <ele>1026.83</ele>
        <time>2020-08-22T14:26:31Z</time>
      </trkpt>
      <trkpt lat="44.79099" lon="3.3927">
        <ele>1027.31</ele>
        <time>2020-08-22T14:26:47Z</time>
      </trkpt>
      <trkpt lat="44.79082" lon="3.39259">
        <ele>1028.27</ele>
        <time>2020-08-22T14:27:04Z</time>
      </trkpt>
      <trkpt lat="44.79065" lon="3.39247">
        <ele>1028.27</ele>
        <time>2020-08-22T14:27:21Z</time>
      </trkpt>
      <trkpt lat="44.79058" lon="3.39238">
        <ele>1028.27</ele>
        <time>2020-08-22T14:27:38Z</time>
      </trkpt>
      <trkpt lat="44.79058" lon="3.39237">
        <ele>1028.27</ele>
        <time>2020-08-22T14:28:22Z</time>
      </trkpt>
      <trkpt lat="44.79058" lon="3.39239">
        <ele>1027.79</ele>
        <time>2020-08-22T14:29:12Z</time>
      </trkpt>
      <trkpt lat="44.79058" lon="3.39241">
        <ele>1027.79</ele>
        <time>2020-08-22T14:29:45Z</time>
      </trkpt>
      <trkpt lat="44.79058" lon="3.3924">
        <ele>1027.79</ele>
        <time>2020-08-22T14:30:17Z</time>
      </trkpt>
      <trkpt lat="44.7906" lon="3.39242">
        <ele>1027.79</ele>
        <time>2020-08-22T14:30:55Z</time>
      </trkpt>
      <trkpt lat="44.79059" lon="3.39242">
        <ele>1027.79</ele>
        <time>2020-08-22T14:31:37Z</time>
      </trkpt>
      <trkpt lat="44.7905" lon="3.39237">
        <ele>1028.27</ele>
        <time>2020-08-22T14:31:50Z</time>
      </trkpt>
      <trkpt lat="44.79023" lon="3.39223">
        <ele>1027.79</ele>
        <time>2020-08-22T14:32:14Z</time>
      </trkpt>
      <trkpt lat="44.79001" lon="3.3921">
        <ele>1026.83</ele>
        <time>2020-08-22T14:32:34Z</time>
      </trkpt>
      <trkpt lat="44.78978" lon="3.39196">
        <ele>1026.34</ele>
        <time>2020-08-22T14:32:55Z</time>
      </trkpt>
      <trkpt lat="44.78956" lon="3.39179">
        <ele>1025.86</ele>
        <time>2020-08-22T14:33:16Z</time>
      </trkpt>
      <trkpt lat="44.78948" lon="3.39175">
        <ele>1025.38</ele>
        <time>2020-08-22T14:33:31Z</time>
      </trkpt>
      <trkpt lat="44.78945" lon="3.3918">
        <ele>1025.38</ele>
        <time>2020-08-22T14:33:37Z</time>
      </trkpt>
      <trkpt lat="44.78934" lon="3.39191">
        <ele>1025.38</ele>
        <time>2020-08-22T14:33:50Z</time>
      </trkpt>
      <trkpt lat="44.78925" lon="3.39193">
        <ele>1025.38</ele>
        <time>2020-08-22T14:33:58Z</time>
      </trkpt>
      <trkpt lat="44.78894" lon="3.392">
        <ele>1024.9</ele>
        <time>2020-08-22T14:34:24Z</time>
      </trkpt>
      <trkpt lat="44.78868" lon="3.39206">
        <ele>1024.42</ele>
        <time>2020-08-22T14:34:45Z</time>
      </trkpt>
      <trkpt lat="44.78842" lon="3.39213">
        <ele>1023.94</ele>
        <time>2020-08-22T14:35:06Z</time>
      </trkpt>
      <trkpt lat="44.78814" lon="3.39222">
        <ele>1023.94</ele>
        <time>2020-08-22T14:35:30Z</time>
      </trkpt>
      <trkpt lat="44.78782" lon="3.39229">
        <ele>1023.94</ele>
        <time>2020-08-22T14:35:56Z</time>
      </trkpt>
      <trkpt lat="44.78751" lon="3.39229">
        <ele>1023.94</ele>
        <time>2020-08-22T14:36:22Z</time>
      </trkpt>
      <trkpt lat="44.78746" lon="3.39229">
        <ele>1023.94</ele>
        <time>2020-08-22T14:36:28Z</time>
      </trkpt>
      <trkpt lat="44.78717" lon="3.39227">
        <ele>1024.9</ele>
        <time>2020-08-22T14:36:52Z</time>
      </trkpt>
      <trkpt lat="44.78691" lon="3.39221">
        <ele>1025.86</ele>
        <time>2020-08-22T14:37:14Z</time>
      </trkpt>
      <trkpt lat="44.78672" lon="3.39218">
        <ele>1026.34</ele>
        <time>2020-08-22T14:37:30Z</time>
      </trkpt>
      <trkpt lat="44.78666" lon="3.39218">
        <ele>1027.31</ele>
        <time>2020-08-22T14:37:36Z</time>
      </trkpt>
      <trkpt lat="44.78648" lon="3.39216">
        <ele>1028.27</ele>
        <time>2020-08-22T14:37:52Z</time>
      </trkpt>
      <trkpt lat="44.78627" lon="3.39218">
        <ele>1029.71</ele>
        <time>2020-08-22T14:38:10Z</time>
      </trkpt>
      <trkpt lat="44.78607" lon="3.39223">
        <ele>1029.71</ele>
        <time>2020-08-22T14:38:28Z</time>
      </trkpt>
      <trkpt lat="44.78588" lon="3.39225">
        <ele>1029.23</ele>
        <time>2020-08-22T14:38:44Z</time>
      </trkpt>
      <trkpt lat="44.78562" lon="3.39234">
        <ele>1027.79</ele>
        <time>2020-08-22T14:39:06Z</time>
      </trkpt>
      <trkpt lat="44.78551" lon="3.3924">
        <ele>1026.83</ele>
        <time>2020-08-22T14:39:23Z</time>
      </trkpt>
      <trkpt lat="44.78537" lon="3.39247">
        <ele>1026.34</ele>
        <time>2020-08-22T14:39:44Z</time>
      </trkpt>
      <trkpt lat="44.78515" lon="3.3926">
        <ele>1024.9</ele>
        <time>2020-08-22T14:40:04Z</time>
      </trkpt>
      <trkpt lat="44.78491" lon="3.39275">
        <ele>1023.94</ele>
        <time>2020-08-22T14:40:25Z</time>
      </trkpt>
      <trkpt lat="44.78465" lon="3.3929">
        <ele>1022.5</ele>
        <time>2020-08-22T14:40:48Z</time>
      </trkpt>
      <trkpt lat="44.78438" lon="3.39306">
        <ele>1021.54</ele>
        <time>2020-08-22T14:41:12Z</time>
      </trkpt>
      <trkpt lat="44.78412" lon="3.39318">
        <ele>1020.1</ele>
        <time>2020-08-22T14:41:34Z</time>
      </trkpt>
      <trkpt lat="44.78403" lon="3.3932">
        <ele>1019.62</ele>
        <time>2020-08-22T14:41:47Z</time>
      </trkpt>
      <trkpt lat="44.78378" lon="3.39326">
        <ele>1018.65</ele>
        <time>2020-08-22T14:42:09Z</time>
      </trkpt>
      <trkpt lat="44.78351" lon="3.39335">
        <ele>1016.73</ele>
        <time>2020-08-22T14:42:33Z</time>
      </trkpt>
      <trkpt lat="44.78323" lon="3.3934">
        <ele>1015.29</ele>
        <time>2020-08-22T14:42:56Z</time>
      </trkpt>
      <trkpt lat="44.78304" lon="3.39324">
        <ele>1014.33</ele>
        <time>2020-08-22T14:43:16Z</time>
      </trkpt>
      <trkpt lat="44.78297" lon="3.39308">
        <ele>1014.33</ele>
        <time>2020-08-22T14:43:29Z</time>
      </trkpt>
      <trkpt lat="44.78278" lon="3.39274">
        <ele>1014.33</ele>
        <time>2020-08-22T14:43:51Z</time>
      </trkpt>
      <trkpt lat="44.78262" lon="3.3925">
        <ele>1014.33</ele>
        <time>2020-08-22T14:44:12Z</time>
      </trkpt>
      <trkpt lat="44.78243" lon="3.39226">
        <ele>1015.29</ele>
        <time>2020-08-22T14:44:32Z</time>
      </trkpt>
      <trkpt lat="44.78233" lon="3.39217">
        <ele>1015.29</ele>
        <time>2020-08-22T14:44:43Z</time>
      </trkpt>
      <trkpt lat="44.78208" lon="3.3921">
        <ele>1015.29</ele>
        <time>2020-08-22T14:45:04Z</time>
      </trkpt>
      <trkpt lat="44.78185" lon="3.39206">
        <ele>1016.25</ele>
        <time>2020-08-22T14:45:23Z</time>
      </trkpt>
      <trkpt lat="44.78162" lon="3.39204">
        <ele>1017.21</ele>
        <time>2020-08-22T14:45:42Z</time>
      </trkpt>
      <trkpt lat="44.78139" lon="3.39203">
        <ele>1017.69</ele>
        <time>2020-08-22T14:46:02Z</time>
      </trkpt>
      <trkpt lat="44.78113" lon="3.39204">
        <ele>1018.17</ele>
        <time>2020-08-22T14:46:22Z</time>
      </trkpt>
      <trkpt lat="44.78093" lon="3.39207">
        <ele>1018.17</ele>
        <time>2020-08-22T14:46:39Z</time>
      </trkpt>
      <trkpt lat="44.78071" lon="3.39213">
        <ele>1018.17</ele>
        <time>2020-08-22T14:46:59Z</time>
      </trkpt>
      <trkpt lat="44.78045" lon="3.39217">
        <ele>1018.17</ele>
        <time>2020-08-22T14:47:21Z</time>
      </trkpt>
      <trkpt lat="44.78026" lon="3.39213">
        <ele>1016.25</ele>
        <time>2020-08-22T14:47:38Z</time>
      </trkpt>
      <trkpt lat="44.78002" lon="3.39187">
        <ele>1014.33</ele>
        <time>2020-08-22T14:48:02Z</time>
      </trkpt>
      <trkpt lat="44.77981" lon="3.39172">
        <ele>1012.41</ele>
        <time>2020-08-22T14:48:23Z</time>
      </trkpt>
      <trkpt lat="44.77971" lon="3.3916">
        <ele>1011.93</ele>
        <time>2020-08-22T14:48:35Z</time>
      </trkpt>
      <trkpt lat="44.77964" lon="3.39126">
        <ele>1010</ele>
        <time>2020-08-22T14:48:58Z</time>
      </trkpt>
      <trkpt lat="44.77974" lon="3.39096">
        <ele>1008.08</ele>
        <time>2020-08-22T14:49:19Z</time>
      </trkpt>
      <trkpt lat="44.77986" lon="3.39066">
        <ele>1005.2</ele>
        <time>2020-08-22T14:49:42Z</time>
      </trkpt>
      <trkpt lat="44.78" lon="3.39033">
        <ele>1003.27</ele>
        <time>2020-08-22T14:50:06Z</time>
      </trkpt>
      <trkpt lat="44.78014" lon="3.39014">
        <ele>1000.87</ele>
        <time>2020-08-22T14:50:26Z</time>
      </trkpt>
      <trkpt lat="44.78035" lon="3.38994">
        <ele>998.95</ele>
        <time>2020-08-22T14:50:48Z</time>
      </trkpt>
      <trkpt lat="44.78054" lon="3.38975">
        <ele>996.54</ele>
        <time>2020-08-22T14:51:10Z</time>
      </trkpt>
      <trkpt lat="44.78072" lon="3.38958">
        <ele>994.14</ele>
        <time>2020-08-22T14:51:32Z</time>
      </trkpt>
      <trkpt lat="44.7809" lon="3.38949">
        <ele>992.22</ele>
        <time>2020-08-22T14:51:53Z</time>
      </trkpt>
      <trkpt lat="44.78099" lon="3.38937">
        <ele>991.26</ele>
        <time>2020-08-22T14:52:09Z</time>
      </trkpt>
      <trkpt lat="44.78102" lon="3.38899">
        <ele>988.85</ele>
        <time>2020-08-22T14:52:32Z</time>
      </trkpt>
      <trkpt lat="44.78104" lon="3.38888">
        <ele>988.85</ele>
        <time>2020-08-22T14:52:54Z</time>
      </trkpt>
      <trkpt lat="44.78107" lon="3.38885">
        <ele>988.37</ele>
        <time>2020-08-22T14:53:15Z</time>
      </trkpt>
      <trkpt lat="44.78119" lon="3.38866">
        <ele>985.49</ele>
        <time>2020-08-22T14:53:34Z</time>
      </trkpt>
      <trkpt lat="44.78126" lon="3.38854">
        <ele>985.01</ele>
        <time>2020-08-22T14:53:43Z</time>
      </trkpt>
      <trkpt lat="44.78121" lon="3.38844">
        <ele>984.05</ele>
        <time>2020-08-22T14:53:59Z</time>
      </trkpt>
      <trkpt lat="44.78105" lon="3.38849">
        <ele>980.68</ele>
        <time>2020-08-22T14:54:15Z</time>
      </trkpt>
      <trkpt lat="44.78085" lon="3.38851">
        <ele>977.32</ele>
        <time>2020-08-22T14:54:34Z</time>
      </trkpt>
      <trkpt lat="44.78073" lon="3.38848">
        <ele>974.91</ele>
        <time>2020-08-22T14:54:51Z</time>
      </trkpt>
      <trkpt lat="44.78079" lon="3.38828">
        <ele>972.99</ele>
        <time>2020-08-22T14:55:09Z</time>
      </trkpt>
      <trkpt lat="44.7808" lon="3.38826">
        <ele>972.99</ele>
        <time>2020-08-22T14:55:11Z</time>
      </trkpt>
      <trkpt lat="44.78094" lon="3.38808">
        <ele>970.11</ele>
        <time>2020-08-22T14:55:30Z</time>
      </trkpt>
      <trkpt lat="44.78094" lon="3.38783">
        <ele>967.22</ele>
        <time>2020-08-22T14:55:50Z</time>
      </trkpt>
      <trkpt lat="44.7809" lon="3.38774">
        <ele>967.22</ele>
        <time>2020-08-22T14:56:04Z</time>
      </trkpt>
      <trkpt lat="44.78096" lon="3.38758">
        <ele>965.3</ele>
        <time>2020-08-22T14:56:20Z</time>
      </trkpt>
      <trkpt lat="44.78103" lon="3.38752">
        <ele>964.82</ele>
        <time>2020-08-22T14:56:39Z</time>
      </trkpt>
      <trkpt lat="44.78109" lon="3.38745">
        <ele>963.86</ele>
        <time>2020-08-22T14:56:54Z</time>
      </trkpt>
      <trkpt lat="44.7811" lon="3.38745">
        <ele>963.86</ele>
        <time>2020-08-22T14:57:01Z</time>
      </trkpt>
      <trkpt lat="44.78116" lon="3.38755">
        <ele>963.86</ele>
        <time>2020-08-22T14:57:59Z</time>
      </trkpt>
      <trkpt lat="44.781" lon="3.38757">
        <ele>963.86</ele>
        <time>2020-08-22T14:58:16Z</time>
      </trkpt>
      <trkpt lat="44.78092" lon="3.38756">
        <ele>963.86</ele>
        <time>2020-08-22T14:58:31Z</time>
      </trkpt>
      <trkpt lat="44.78081" lon="3.38752">
        <ele>963.38</ele>
        <time>2020-08-22T14:58:49Z</time>
      </trkpt>
      <trkpt lat="44.78063" lon="3.38762">
        <ele>963.38</ele>
        <time>2020-08-22T14:59:06Z</time>
      </trkpt>
      <trkpt lat="44.78062" lon="3.38779">
        <ele>963.38</ele>
        <time>2020-08-22T14:59:18Z</time>
      </trkpt>
      <trkpt lat="44.7806" lon="3.38781">
        <ele>964.82</ele>
        <time>2020-08-22T14:59:21Z</time>
      </trkpt>
      <trkpt lat="44.78042" lon="3.38799">
        <ele>962.9</ele>
        <time>2020-08-22T14:59:40Z</time>
      </trkpt>
      <trkpt lat="44.78033" lon="3.38803">
        <ele>962.42</ele>
        <time>2020-08-22T14:59:47Z</time>
      </trkpt>
      <trkpt lat="44.78023" lon="3.38795">
        <ele>961.94</ele>
        <time>2020-08-22T15:00:03Z</time>
      </trkpt>
      <trkpt lat="44.78019" lon="3.38789">
        <ele>960.49</ele>
        <time>2020-08-22T15:00:10Z</time>
      </trkpt>
      <trkpt lat="44.78013" lon="3.38771">
        <ele>960.49</ele>
        <time>2020-08-22T15:00:24Z</time>
      </trkpt>
      <trkpt lat="44.7802" lon="3.38772">
        <ele>960.01</ele>
        <time>2020-08-22T15:00:43Z</time>
      </trkpt>
      <trkpt lat="44.78021" lon="3.38767">
        <ele>960.01</ele>
        <time>2020-08-22T15:01:14Z</time>
      </trkpt>
      <trkpt lat="44.78021" lon="3.38769">
        <ele>960.01</ele>
        <time>2020-08-22T15:01:39Z</time>
      </trkpt>
      <trkpt lat="44.78019" lon="3.3877">
        <ele>960.01</ele>
        <time>2020-08-22T15:02:02Z</time>
      </trkpt>
      <trkpt lat="44.78019" lon="3.3877">
        <ele>960.01</ele>
        <time>2020-08-22T15:02:31Z</time>
      </trkpt>
      <trkpt lat="44.78023" lon="3.38765">
        <ele>960.01</ele>
        <time>2020-08-22T15:02:49Z</time>
      </trkpt>
      <trkpt lat="44.78023" lon="3.38762">
        <ele>960.01</ele>
        <time>2020-08-22T15:03:09Z</time>
      </trkpt>
      <trkpt lat="44.78023" lon="3.38762">
        <ele>960.49</ele>
        <time>2020-08-22T15:03:17Z</time>
      </trkpt>
      <trkpt lat="44.78021" lon="3.38763">
        <ele>960.49</ele>
        <time>2020-08-22T15:03:36Z</time>
      </trkpt>
      <trkpt lat="44.78025" lon="3.38766">
        <ele>960.49</ele>
        <time>2020-08-22T15:03:56Z</time>
      </trkpt>
      <trkpt lat="44.78024" lon="3.38766">
        <ele>959.05</ele>
        <time>2020-08-22T15:04:14Z</time>
      </trkpt>
      <trkpt lat="44.78022" lon="3.38766">
        <ele>959.05</ele>
        <time>2020-08-22T15:04:41Z</time>
      </trkpt>
      <trkpt lat="44.7802" lon="3.38768">
        <ele>959.53</ele>
        <time>2020-08-22T15:05:11Z</time>
      </trkpt>
      <trkpt lat="44.7802" lon="3.38769">
        <ele>959.53</ele>
        <time>2020-08-22T15:05:38Z</time>
      </trkpt>
      <trkpt lat="44.78023" lon="3.38768">
        <ele>959.53</ele>
        <time>2020-08-22T15:06:05Z</time>
      </trkpt>
      <trkpt lat="44.78017" lon="3.38766">
        <ele>960.01</ele>
        <time>2020-08-22T15:06:42Z</time>
      </trkpt>
      <trkpt lat="44.7802" lon="3.38767">
        <ele>960.01</ele>
        <time>2020-08-22T15:07:09Z</time>
      </trkpt>
      <trkpt lat="44.78021" lon="3.38765">
        <ele>960.01</ele>
        <time>2020-08-22T15:07:40Z</time>
      </trkpt>
      <trkpt lat="44.78022" lon="3.38767">
        <ele>960.01</ele>
        <time>2020-08-22T15:08:13Z</time>
      </trkpt>
      <trkpt lat="44.78021" lon="3.38768">
        <ele>960.49</ele>
        <time>2020-08-22T15:08:47Z</time>
      </trkpt>
      <trkpt lat="44.78021" lon="3.38765">
        <ele>960.49</ele>
        <time>2020-08-22T15:09:14Z</time>
      </trkpt>
      <trkpt lat="44.78021" lon="3.38765">
        <ele>960.49</ele>
        <time>2020-08-22T15:09:37Z</time>
      </trkpt>
      <trkpt lat="44.7802" lon="3.38766">
        <ele>960.49</ele>
        <time>2020-08-22T15:10:11Z</time>
      </trkpt>
      <trkpt lat="44.78023" lon="3.38767">
        <ele>960.98</ele>
        <time>2020-08-22T15:10:44Z</time>
      </trkpt>
      <trkpt lat="44.78019" lon="3.38771">
        <ele>960.01</ele>
        <time>2020-08-22T15:11:12Z</time>
      </trkpt>
      <trkpt lat="44.78022" lon="3.38766">
        <ele>960.49</ele>
        <time>2020-08-22T15:11:43Z</time>
      </trkpt>
      <trkpt lat="44.7802" lon="3.38761">
        <ele>960.49</ele>
        <time>2020-08-22T15:11:52Z</time>
      </trkpt>
      <trkpt lat="44.7802" lon="3.38758">
        <ele>960.49</ele>
        <time>2020-08-22T15:11:54Z</time>
      </trkpt>
      <trkpt lat="44.78012" lon="3.38773">
        <ele>960.49</ele>
        <time>2020-08-22T15:12:13Z</time>
      </trkpt>
      <trkpt lat="44.78012" lon="3.38773">
        <ele>960.49</ele>
        <time>2020-08-22T15:12:15Z</time>
      </trkpt>
    </trkseg>
  </trk>
</gpx>